<?xml version='1.0' encoding='UTF-8'?><gpx version="1.1" creator="JPX - https://github.com/jenetics/jpx" xmlns="http://www.topografix.com/GPX/1/1"><trk><trkseg><trkpt lat="41.54461989945322" lon="2.218551093058246"><ele>74.0</ele><time>2026-04-02T14:33:35.999Z</time></trkpt><trkpt lat="41.54455593189444" lon="2.218480538252658"><ele>74.0</ele><time>2026-04-02T14:33:37.999Z</time></trkpt><trkpt lat="41.54450584999006" lon="2.218427829704644"><ele>74.0</ele><time>2026-04-02T14:33:38.999Z</time></trkpt><trkpt lat="41.544419871721644" lon="2.2183416038228754"><ele>74.0</ele><time>2026-04-02T14:33:40.999Z</time></trkpt><trkpt lat="41.54433953568118" lon="2.218293791221001"><ele>74.0</ele><time>2026-04-02T14:33:42.999Z</time></trkpt><trkpt lat="41.544281362265046" lon="2.218257829518608"><ele>74.0</ele><time>2026-04-02T14:33:43.999Z</time></trkpt><trkpt lat="41.5442079440281" lon="2.2181693599010592"><ele>74.66666666666667</ele><time>2026-04-02T14:33:45.999Z</time></trkpt><trkpt lat="41.54413552929821" lon="2.218105935679499"><ele>75.33333333333334</ele><time>2026-04-02T14:33:46.999Z</time></trkpt><trkpt lat="41.544074141696406" lon="2.218035030092226"><ele>76.0</ele><time>2026-04-02T14:33:47.999Z</time></trkpt><trkpt lat="41.5440200019513" lon="2.217971794572921"><ele>76.66666666666667</ele><time>2026-04-02T14:33:48.999Z</time></trkpt><trkpt lat="41.543961510809915" lon="2.2179347229990354"><ele>77.33333333333333</ele><time>2026-04-02T14:33:49.999Z</time></trkpt><trkpt lat="41.54397612743462" lon="2.2177428499371685"><ele>78.0</ele><time>2026-04-02T14:33:52.999Z</time></trkpt><trkpt lat="41.5440090791118" lon="2.2176624740292366"><ele>78.0</ele><time>2026-04-02T14:33:53.999Z</time></trkpt><trkpt lat="41.544059651676356" lon="2.2175849258736484"><ele>78.0</ele><time>2026-04-02T14:33:54.999Z</time></trkpt><trkpt lat="41.5441097562229" lon="2.2174982675833674"><ele>78.0</ele><time>2026-04-02T14:33:55.999Z</time></trkpt><trkpt lat="41.54417310013222" lon="2.2173782721356776"><ele>78.0</ele><time>2026-04-02T14:33:57.999Z</time></trkpt><trkpt lat="41.544205113727536" lon="2.217281205819532"><ele>78.0</ele><time>2026-04-02T14:33:58.999Z</time></trkpt><trkpt lat="41.544277117885635" lon="2.2172308311194335"><ele>78.0</ele><time>2026-04-02T14:34:01.999Z</time></trkpt><trkpt lat="41.54436233334692" lon="2.2171817084331535"><ele>77.8</ele><time>2026-04-02T14:34:03.999Z</time></trkpt><trkpt lat="41.54444017645957" lon="2.217199644135257"><ele>77.6</ele><time>2026-04-02T14:34:05.999Z</time></trkpt><trkpt lat="41.54449385570313" lon="2.2172792587077845"><ele>77.4</ele><time>2026-04-02T14:34:07.999Z</time></trkpt><trkpt lat="41.54459463445567" lon="2.217368270828895"><ele>77.2</ele><time>2026-04-02T14:34:09.999Z</time></trkpt><trkpt lat="41.54466546398853" lon="2.2174446014239795"><ele>77.0</ele><time>2026-04-02T14:34:10.999Z</time></trkpt><trkpt lat="41.54473774327754" lon="2.2175224393643087"><ele>76.5</ele><time>2026-04-02T14:34:11.999Z</time></trkpt><trkpt lat="41.544819096192185" lon="2.2176017493731615"><ele>76.0</ele><time>2026-04-02T14:34:12.999Z</time></trkpt><trkpt lat="41.54491549387439" lon="2.217688091989142"><ele>75.5</ele><time>2026-04-02T14:34:13.999Z</time></trkpt><trkpt lat="41.54500793111643" lon="2.217782068185303"><ele>75.0</ele><time>2026-04-02T14:34:14.999Z</time></trkpt><trkpt lat="41.5451009588288" lon="2.217883018126009"><ele>75.0</ele><time>2026-04-02T14:34:15.999Z</time></trkpt><trkpt lat="41.54519050607597" lon="2.217975390198093"><ele>75.0</ele><time>2026-04-02T14:34:16.999Z</time></trkpt><trkpt lat="41.54527359820584" lon="2.2180625196271495"><ele>75.0</ele><time>2026-04-02T14:34:17.999Z</time></trkpt><trkpt lat="41.5453524694514" lon="2.2181477067421502"><ele>75.0</ele><time>2026-04-02T14:34:18.999Z</time></trkpt><trkpt lat="41.54540763231093" lon="2.2182301053781956"><ele>75.0</ele><time>2026-04-02T14:34:19.999Z</time></trkpt><trkpt lat="41.54547880989055" lon="2.2182868872158203"><ele>74.83333333333333</ele><time>2026-04-02T14:34:20.999Z</time></trkpt><trkpt lat="41.5455365118039" lon="2.218334549506042"><ele>74.66666666666667</ele><time>2026-04-02T14:34:21.999Z</time></trkpt><trkpt lat="41.54560907881421" lon="2.2184065337703953"><ele>74.5</ele><time>2026-04-02T14:34:23.999Z</time></trkpt><trkpt lat="41.54567843366338" lon="2.218467422570564"><ele>74.33333333333334</ele><time>2026-04-02T14:34:33.999Z</time></trkpt><trkpt lat="41.54572129028416" lon="2.218530229479391"><ele>74.16666666666667</ele><time>2026-04-02T14:34:34.999Z</time></trkpt><trkpt lat="41.5457970542317" lon="2.2185783389623293"><ele>74.0</ele><time>2026-04-02T14:34:35.999Z</time></trkpt><trkpt lat="41.54586631036107" lon="2.2186497772008087"><ele>74.0</ele><time>2026-04-02T14:34:36.999Z</time></trkpt><trkpt lat="41.5459390237295" lon="2.2187184049482043"><ele>74.0</ele><time>2026-04-02T14:34:37.999Z</time></trkpt><trkpt lat="41.54600795688208" lon="2.2187927693256557"><ele>74.0</ele><time>2026-04-02T14:34:38.999Z</time></trkpt><trkpt lat="41.546068873728636" lon="2.2188562051865137"><ele>74.0</ele><time>2026-04-02T14:34:39.999Z</time></trkpt><trkpt lat="41.546123220088546" lon="2.2189181648680854"><ele>74.0</ele><time>2026-04-02T14:34:40.999Z</time></trkpt><trkpt lat="41.54618294464242" lon="2.218986171625891"><ele>74.0</ele><time>2026-04-02T14:34:41.999Z</time></trkpt><trkpt lat="41.546251889519155" lon="2.2190566100473528"><ele>73.66666666666667</ele><time>2026-04-02T14:34:42.999Z</time></trkpt><trkpt lat="41.54632134417791" lon="2.219128282890075"><ele>73.33333333333334</ele><time>2026-04-02T14:34:43.999Z</time></trkpt><trkpt lat="41.54639377805668" lon="2.2192002442965073"><ele>73.0</ele><time>2026-04-02T14:34:44.999Z</time></trkpt><trkpt lat="41.54646335205522" lon="2.219267708206928"><ele>72.66666666666667</ele><time>2026-04-02T14:34:45.999Z</time></trkpt><trkpt lat="41.54653002545059" lon="2.2193424356954496"><ele>72.33333333333333</ele><time>2026-04-02T14:34:46.999Z</time></trkpt><trkpt lat="41.54659437812336" lon="2.2194093046528742"><ele>72.0</ele><time>2026-04-02T14:34:47.999Z</time></trkpt><trkpt lat="41.54666139408968" lon="2.2194796102019447"><ele>72.0</ele><time>2026-04-02T14:34:48.999Z</time></trkpt><trkpt lat="41.5467252728303" lon="2.2195551398553452"><ele>72.0</ele><time>2026-04-02T14:34:49.999Z</time></trkpt><trkpt lat="41.54679763613898" lon="2.219627717318147"><ele>72.0</ele><time>2026-04-02T14:34:50.999Z</time></trkpt><trkpt lat="41.54686177152258" lon="2.219694748156773"><ele>72.0</ele><time>2026-04-02T14:34:51.999Z</time></trkpt><trkpt lat="41.54692508199944" lon="2.2197596313817245"><ele>72.0</ele><time>2026-04-02T14:34:52.999Z</time></trkpt><trkpt lat="41.54698799136759" lon="2.21981794320293"><ele>72.0</ele><time>2026-04-02T14:34:53.999Z</time></trkpt><trkpt lat="41.54705271940186" lon="2.2198858978411145"><ele>72.0</ele><time>2026-04-02T14:34:54.999Z</time></trkpt><trkpt lat="41.547112339563924" lon="2.219960582414676"><ele>72.0</ele><time>2026-04-02T14:34:55.999Z</time></trkpt><trkpt lat="41.54718486148871" lon="2.22004022553185"><ele>72.0</ele><time>2026-04-02T14:34:56.999Z</time></trkpt><trkpt lat="41.547271422203984" lon="2.2201139053035384"><ele>72.0</ele><time>2026-04-02T14:34:57.999Z</time></trkpt><trkpt lat="41.547351080297545" lon="2.220188628081759"><ele>72.0</ele><time>2026-04-02T14:34:58.999Z</time></trkpt><trkpt lat="41.54743816609955" lon="2.2202703481711072"><ele>72.0</ele><time>2026-04-02T14:34:59.999Z</time></trkpt><trkpt lat="41.54751857396955" lon="2.2203441537630177"><ele>72.0</ele><time>2026-04-02T14:35:00.999Z</time></trkpt><trkpt lat="41.54759550080128" lon="2.2204162159408765"><ele>72.0</ele><time>2026-04-02T14:35:01.999Z</time></trkpt><trkpt lat="41.54766641225372" lon="2.220492468682839"><ele>72.0</ele><time>2026-04-02T14:35:02.999Z</time></trkpt><trkpt lat="41.547739887975105" lon="2.220577790384305"><ele>72.0</ele><time>2026-04-02T14:35:03.999Z</time></trkpt><trkpt lat="41.54781483524343" lon="2.2206501593225627"><ele>72.0</ele><time>2026-04-02T14:35:04.999Z</time></trkpt><trkpt lat="41.547879864285285" lon="2.2207288799551983"><ele>72.0</ele><time>2026-04-02T14:35:05.999Z</time></trkpt><trkpt lat="41.547958939627755" lon="2.220808390109671"><ele>72.0</ele><time>2026-04-02T14:35:06.999Z</time></trkpt><trkpt lat="41.548038684158584" lon="2.220890955941687"><ele>72.0</ele><time>2026-04-02T14:35:07.999Z</time></trkpt><trkpt lat="41.54811645236449" lon="2.2209624462141306"><ele>72.0</ele><time>2026-04-02T14:35:08.999Z</time></trkpt><trkpt lat="41.54818548150922" lon="2.221026014451668"><ele>72.0</ele><time>2026-04-02T14:35:09.999Z</time></trkpt><trkpt lat="41.54824912324671" lon="2.22108547853423"><ele>72.0</ele><time>2026-04-02T14:35:10.999Z</time></trkpt><trkpt lat="41.54830469817047" lon="2.221137797901228"><ele>72.0</ele><time>2026-04-02T14:35:11.999Z</time></trkpt><trkpt lat="41.54838497432631" lon="2.221246845982978"><ele>72.0</ele><time>2026-04-02T14:35:13.999Z</time></trkpt><trkpt lat="41.54841273296518" lon="2.2213938392109203"><ele>72.0</ele><time>2026-04-02T14:35:15.999Z</time></trkpt><trkpt lat="41.5484056305046" lon="2.221501813127328"><ele>72.16666666666667</ele><time>2026-04-02T14:35:16.999Z</time></trkpt><trkpt lat="41.54837840022725" lon="2.2215974712650617"><ele>72.33333333333333</ele><time>2026-04-02T14:35:17.999Z</time></trkpt><trkpt lat="41.548340258208505" lon="2.221691731503199"><ele>72.5</ele><time>2026-04-02T14:35:18.999Z</time></trkpt><trkpt lat="41.5482957827126" lon="2.22178787592418"><ele>72.66666666666666</ele><time>2026-04-02T14:35:19.999Z</time></trkpt><trkpt lat="41.54824085016198" lon="2.221902888254848"><ele>72.83333333333333</ele><time>2026-04-02T14:35:20.999Z</time></trkpt><trkpt lat="41.548187756475656" lon="2.2219625188587426"><ele>73.0</ele><time>2026-04-02T14:35:21.999Z</time></trkpt><trkpt lat="41.54811258732621" lon="2.222065540188413"><ele>73.0</ele><time>2026-04-02T14:35:23.999Z</time></trkpt><trkpt lat="41.54806678296318" lon="2.222124062745665"><ele>73.0</ele><time>2026-04-02T14:35:25.999Z</time></trkpt><trkpt lat="41.54801982437422" lon="2.2222003484560617"><ele>73.0</ele><time>2026-04-02T14:35:28.999Z</time></trkpt><trkpt lat="41.54788657387656" lon="2.222190274137969"><ele>73.0</ele><time>2026-04-02T14:35:31.999Z</time></trkpt><trkpt lat="41.54783027131272" lon="2.222284087377805"><ele>73.0</ele><time>2026-04-02T14:35:35Z</time></trkpt><trkpt lat="41.54771793439667" lon="2.2224456852653436"><ele>73.0</ele><time>2026-04-02T14:36:12.999Z</time></trkpt><trkpt lat="41.547661239056076" lon="2.222317053869872"><ele>73.0</ele><time>2026-04-02T14:40:04Z</time></trkpt><trkpt lat="41.54760282106664" lon="2.2222796732460246"><ele>73.0</ele><time>2026-04-02T14:40:05Z</time></trkpt><trkpt lat="41.54753975967233" lon="2.222239490540622"><ele>73.0</ele><time>2026-04-02T14:40:06Z</time></trkpt><trkpt lat="41.54748172226831" lon="2.2222025091200353"><ele>73.0</ele><time>2026-04-02T14:40:07Z</time></trkpt><trkpt lat="41.547422970332406" lon="2.222165197699539"><ele>73.0</ele><time>2026-04-02T14:40:08Z</time></trkpt><trkpt lat="41.547359211336" lon="2.2221248543591776"><ele>73.0</ele><time>2026-04-02T14:40:09Z</time></trkpt><trkpt lat="41.54728646539001" lon="2.222078824536672"><ele>72.83333333333333</ele><time>2026-04-02T14:40:10Z</time></trkpt><trkpt lat="41.54721082108938" lon="2.2220309608098265"><ele>72.66666666666666</ele><time>2026-04-02T14:40:11Z</time></trkpt><trkpt lat="41.547130379335236" lon="2.221980061506343"><ele>72.5</ele><time>2026-04-02T14:40:12Z</time></trkpt><trkpt lat="41.5470563579663" lon="2.2219323951940426"><ele>72.33333333333333</ele><time>2026-04-02T14:40:13Z</time></trkpt><trkpt lat="41.546990568950676" lon="2.2218901394944135"><ele>72.16666666666667</ele><time>2026-04-02T14:40:14Z</time></trkpt><trkpt lat="41.5469332352593" lon="2.2218516159404706"><ele>72.0</ele><time>2026-04-02T14:40:15Z</time></trkpt><trkpt lat="41.54682386896875" lon="2.221778130641404"><ele>71.83333333333333</ele><time>2026-04-02T14:40:17Z</time></trkpt><trkpt lat="41.54675495969235" lon="2.221730747303557"><ele>71.66666666666667</ele><time>2026-04-02T14:40:18Z</time></trkpt><trkpt lat="41.54668926526252" lon="2.2216852506734304"><ele>71.5</ele><time>2026-04-02T14:40:19Z</time></trkpt><trkpt lat="41.54657541901253" lon="2.2216063554223724"><ele>71.33333333333334</ele><time>2026-04-02T14:40:21Z</time></trkpt><trkpt lat="41.54650698668782" lon="2.2215585794226453"><ele>71.16666666666667</ele><time>2026-04-02T14:40:22Z</time></trkpt><trkpt lat="41.54643010023091" lon="2.221504901168813"><ele>71.0</ele><time>2026-04-02T14:40:23Z</time></trkpt><trkpt lat="41.54635062219726" lon="2.2214494135726968"><ele>70.83333333333334</ele><time>2026-04-02T14:40:24Z</time></trkpt><trkpt lat="41.546272668473044" lon="2.2213949902056367"><ele>70.66666666666667</ele><time>2026-04-02T14:40:25Z</time></trkpt><trkpt lat="41.546195904519706" lon="2.221341397468048"><ele>70.5</ele><time>2026-04-02T14:40:26Z</time></trkpt><trkpt lat="41.546126549325194" lon="2.221292977167792"><ele>70.33333333333333</ele><time>2026-04-02T14:40:27Z</time></trkpt><trkpt lat="41.546069737303704" lon="2.221253791800878"><ele>70.16666666666666</ele><time>2026-04-02T14:40:28Z</time></trkpt><trkpt lat="41.5459977988865" lon="2.2212031636387763"><ele>70.0</ele><time>2026-04-02T14:40:30Z</time></trkpt><trkpt lat="41.546023493890736" lon="2.221076771320967"><ele>70.0</ele><time>2026-04-02T14:40:32Z</time></trkpt><trkpt lat="41.54610546125833" lon="2.220943659917453"><ele>70.0</ele><time>2026-04-02T14:40:34Z</time></trkpt><trkpt lat="41.54614569765895" lon="2.2208663474816177"><ele>70.0</ele><time>2026-04-02T14:40:35Z</time></trkpt><trkpt lat="41.5461978872349" lon="2.2207779716074527"><ele>70.0</ele><time>2026-04-02T14:40:36Z</time></trkpt><trkpt lat="41.54625643633426" lon="2.220692883885232"><ele>70.0</ele><time>2026-04-02T14:40:37Z</time></trkpt><trkpt lat="41.5463029780409" lon="2.220616208395176"><ele>70.0</ele><time>2026-04-02T14:40:38Z</time></trkpt><trkpt lat="41.546359420500174" lon="2.220481599367874"><ele>70.16666666666666</ele><time>2026-04-02T14:40:40Z</time></trkpt><trkpt lat="41.54629675365981" lon="2.2203406062029813"><ele>70.33333333333333</ele><time>2026-04-02T14:40:42Z</time></trkpt><trkpt lat="41.54624757921461" lon="2.2202853372918336"><ele>70.5</ele><time>2026-04-02T14:40:43Z</time></trkpt><trkpt lat="41.54618597737904" lon="2.220224940099825"><ele>70.66666666666667</ele><time>2026-04-02T14:40:44Z</time></trkpt><trkpt lat="41.54612627500226" lon="2.220165619167589"><ele>70.83333333333334</ele><time>2026-04-02T14:40:45Z</time></trkpt><trkpt lat="41.54605752729689" lon="2.2200931080722155"><ele>71.0</ele><time>2026-04-02T14:40:46Z</time></trkpt><trkpt lat="41.545995185562774" lon="2.2200285945491762"><ele>71.0</ele><time>2026-04-02T14:40:47Z</time></trkpt><trkpt lat="41.54593182673783" lon="2.219970521796353"><ele>71.0</ele><time>2026-04-02T14:40:48Z</time></trkpt><trkpt lat="41.54588144102252" lon="2.2199039973684487"><ele>71.0</ele><time>2026-04-02T14:40:49Z</time></trkpt><trkpt lat="41.54582838448291" lon="2.2198451211480834"><ele>71.0</ele><time>2026-04-02T14:40:50Z</time></trkpt><trkpt lat="41.54577596175201" lon="2.2197976330676834"><ele>71.0</ele><time>2026-04-02T14:40:51Z</time></trkpt><trkpt lat="41.54568508012901" lon="2.2196985711352677"><ele>71.0</ele><time>2026-04-02T14:40:53Z</time></trkpt><trkpt lat="41.54560864024291" lon="2.2196113148136907"><ele>71.16666666666667</ele><time>2026-04-02T14:40:55Z</time></trkpt><trkpt lat="41.54554683824544" lon="2.2195791179077706"><ele>71.33333333333334</ele><time>2026-04-02T14:41:31Z</time></trkpt><trkpt lat="41.54546411304837" lon="2.2194960359899416"><ele>71.5</ele><time>2026-04-02T14:41:33Z</time></trkpt><trkpt lat="41.54540191194485" lon="2.2194349401487266"><ele>71.66666666666667</ele><time>2026-04-02T14:41:34Z</time></trkpt><trkpt lat="41.5453306517831" lon="2.2193575301183044"><ele>71.83333333333333</ele><time>2026-04-02T14:41:35Z</time></trkpt><trkpt lat="41.545255812304205" lon="2.2192747813273037"><ele>72.0</ele><time>2026-04-02T14:41:36Z</time></trkpt><trkpt lat="41.54517615159735" lon="2.21919951747428"><ele>72.0</ele><time>2026-04-02T14:41:37Z</time></trkpt><trkpt lat="41.54509560103324" lon="2.2191193490549668"><ele>72.0</ele><time>2026-04-02T14:41:38Z</time></trkpt><trkpt lat="41.54501464952949" lon="2.219038789452827"><ele>72.0</ele><time>2026-04-02T14:41:39Z</time></trkpt><trkpt lat="41.54493154450134" lon="2.2189548279220612"><ele>72.0</ele><time>2026-04-02T14:41:40Z</time></trkpt><trkpt lat="41.544860929192055" lon="2.2188780833241135"><ele>72.0</ele><time>2026-04-02T14:41:41Z</time></trkpt><trkpt lat="41.5447920860573" lon="2.218806025886274"><ele>72.33333333333333</ele><time>2026-04-02T14:41:42Z</time></trkpt><trkpt lat="41.544735187246026" lon="2.2187341249227326"><ele>72.66666666666667</ele><time>2026-04-02T14:41:43Z</time></trkpt><trkpt lat="41.544674199637434" lon="2.2186747920454284"><ele>73.0</ele><time>2026-04-02T14:41:44Z</time></trkpt><trkpt lat="41.54461350591075" lon="2.218606811525127"><ele>73.33333333333334</ele><time>2026-04-02T14:41:45Z</time></trkpt><trkpt lat="41.544552312165216" lon="2.2185439560002878"><ele>73.66666666666667</ele><time>2026-04-02T14:41:46Z</time></trkpt><trkpt lat="41.54449469031526" lon="2.218490635089804"><ele>74.0</ele><time>2026-04-02T14:41:47Z</time></trkpt><trkpt lat="41.54443881287322" lon="2.218425761756944"><ele>74.16666666666667</ele><time>2026-04-02T14:41:48Z</time></trkpt><trkpt lat="41.544379137450356" lon="2.2183633777252334"><ele>74.33333333333334</ele><time>2026-04-02T14:41:49Z</time></trkpt><trkpt lat="41.544315815479635" lon="2.2182979871584267"><ele>74.5</ele><time>2026-04-02T14:41:50Z</time></trkpt><trkpt lat="41.54425831156354" lon="2.2182423562686937"><ele>74.66666666666667</ele><time>2026-04-02T14:41:51Z</time></trkpt><trkpt lat="41.54416954738086" lon="2.218142748835784"><ele>74.83333333333333</ele><time>2026-04-02T14:41:53Z</time></trkpt><trkpt lat="41.544106268239645" lon="2.2180790877159122"><ele>75.0</ele><time>2026-04-02T14:41:55Z</time></trkpt><trkpt lat="41.544036848972084" lon="2.218014909891208"><ele>75.6</ele><time>2026-04-02T14:41:57Z</time></trkpt><trkpt lat="41.5439820003329" lon="2.2179447005928834"><ele>76.2</ele><time>2026-04-02T14:41:59Z</time></trkpt><trkpt lat="41.54391348877313" lon="2.217884464661312"><ele>76.8</ele><time>2026-04-02T14:42:03Z</time></trkpt><trkpt lat="41.54397014900909" lon="2.217744782012887"><ele>77.4</ele><time>2026-04-02T14:42:05Z</time></trkpt><trkpt lat="41.54403248863058" lon="2.217616162162932"><ele>78.0</ele><time>2026-04-02T14:42:07Z</time></trkpt><trkpt lat="41.544108265346416" lon="2.2174888406243274"><ele>78.0</ele><time>2026-04-02T14:42:09Z</time></trkpt><trkpt lat="41.54414127499055" lon="2.217414711668553"><ele>78.0</ele><time>2026-04-02T14:42:10Z</time></trkpt><trkpt lat="41.544209847091516" lon="2.217286453116345"><ele>78.0</ele><time>2026-04-02T14:42:12Z</time></trkpt><trkpt lat="41.544294349914026" lon="2.21721419259657"><ele>78.0</ele><time>2026-04-02T14:42:14Z</time></trkpt><trkpt lat="41.54439188177812" lon="2.2171529843535143"><ele>78.0</ele><time>2026-04-02T14:42:16Z</time></trkpt><trkpt lat="41.54441600569809" lon="2.2170672478949656"><ele>77.83333333333333</ele><time>2026-04-02T14:42:17Z</time></trkpt><trkpt lat="41.544425573010706" lon="2.216949787054167"><ele>77.66666666666667</ele><time>2026-04-02T14:42:18Z</time></trkpt><trkpt lat="41.54444693165452" lon="2.21684477350246"><ele>77.5</ele><time>2026-04-02T14:42:19Z</time></trkpt><trkpt lat="41.544499056051876" lon="2.2167506556340872"><ele>77.33333333333334</ele><time>2026-04-02T14:42:20Z</time></trkpt><trkpt lat="41.544556905773625" lon="2.2166552448801755"><ele>77.16666666666667</ele><time>2026-04-02T14:42:21Z</time></trkpt><trkpt lat="41.5446092681459" lon="2.2165529622988793"><ele>77.0</ele><time>2026-04-02T14:42:22Z</time></trkpt><trkpt lat="41.54467358416598" lon="2.2164670779249627"><ele>77.6</ele><time>2026-04-02T14:42:23Z</time></trkpt><trkpt lat="41.54472816588007" lon="2.216370447763244"><ele>78.2</ele><time>2026-04-02T14:42:24Z</time></trkpt><trkpt lat="41.544787884281114" lon="2.21626690662442"><ele>78.8</ele><time>2026-04-02T14:42:25Z</time></trkpt><trkpt lat="41.544849252826204" lon="2.216158792303834"><ele>79.4</ele><time>2026-04-02T14:42:26Z</time></trkpt><trkpt lat="41.54491306661658" lon="2.2160460591650017"><ele>80.0</ele><time>2026-04-02T14:42:27Z</time></trkpt><trkpt lat="41.5449778270877" lon="2.2159319255144196"><ele>80.0</ele><time>2026-04-02T14:42:28Z</time></trkpt><trkpt lat="41.54504088473748" lon="2.2158206831749974"><ele>80.0</ele><time>2026-04-02T14:42:29Z</time></trkpt><trkpt lat="41.545104011519506" lon="2.2157076362760177"><ele>80.0</ele><time>2026-04-02T14:42:30Z</time></trkpt><trkpt lat="41.5451653165119" lon="2.2155996153214463"><ele>80.0</ele><time>2026-04-02T14:42:31Z</time></trkpt><trkpt lat="41.54522446432862" lon="2.215495808105314"><ele>80.0</ele><time>2026-04-02T14:42:32Z</time></trkpt><trkpt lat="41.5452807185315" lon="2.2153975407992528"><ele>80.8</ele><time>2026-04-02T14:42:33Z</time></trkpt><trkpt lat="41.54532765405627" lon="2.215315551765551"><ele>81.6</ele><time>2026-04-02T14:42:34Z</time></trkpt><trkpt lat="41.54536675917313" lon="2.21524724125922"><ele>82.4</ele><time>2026-04-02T14:42:35Z</time></trkpt><trkpt lat="41.545419805394395" lon="2.215136911362411"><ele>83.2</ele><time>2026-04-02T14:42:37Z</time></trkpt><trkpt lat="41.545473801214825" lon="2.2150640897253604"><ele>84.0</ele><time>2026-04-02T14:42:44Z</time></trkpt><trkpt lat="41.545373810805536" lon="2.214841211032181"><ele>84.4</ele><time>2026-04-02T14:42:46Z</time></trkpt><trkpt lat="41.54531738585599" lon="2.214749885256774"><ele>84.80000000000001</ele><time>2026-04-02T14:42:47Z</time></trkpt><trkpt lat="41.54525642474754" lon="2.2146510362447867"><ele>85.19999999999999</ele><time>2026-04-02T14:42:48Z</time></trkpt><trkpt lat="41.5451997105339" lon="2.2145590736422713"><ele>85.6</ele><time>2026-04-02T14:42:48.999Z</time></trkpt><trkpt lat="41.54513343104774" lon="2.2144659324304863"><ele>86.0</ele><time>2026-04-02T14:42:49.999Z</time></trkpt><trkpt lat="41.54507208850467" lon="2.214362004549651"><ele>86.0</ele><time>2026-04-02T14:42:50.999Z</time></trkpt><trkpt lat="41.545007075450506" lon="2.214261493957075"><ele>86.0</ele><time>2026-04-02T14:42:51.999Z</time></trkpt><trkpt lat="41.544943074529336" lon="2.2141549652706964"><ele>86.0</ele><time>2026-04-02T14:42:52.999Z</time></trkpt><trkpt lat="41.54488047779101" lon="2.21404937673832"><ele>86.0</ele><time>2026-04-02T14:42:53.999Z</time></trkpt><trkpt lat="41.544822763330295" lon="2.2139503134001335"><ele>86.0</ele><time>2026-04-02T14:42:54.999Z</time></trkpt><trkpt lat="41.5447763455918" lon="2.21386994356602"><ele>86.5</ele><time>2026-04-02T14:42:55.999Z</time></trkpt><trkpt lat="41.54473478561182" lon="2.213797529322543"><ele>87.0</ele><time>2026-04-02T14:42:56.999Z</time></trkpt><trkpt lat="41.544673864730555" lon="2.2136727621439842"><ele>87.5</ele><time>2026-04-02T14:42:58.999Z</time></trkpt><trkpt lat="41.544627031098365" lon="2.2135744596510905"><ele>88.0</ele><time>2026-04-02T14:43:00.999Z</time></trkpt><trkpt lat="41.54459658514721" lon="2.2134742883126974"><ele>88.5</ele><time>2026-04-02T14:43:02.999Z</time></trkpt><trkpt lat="41.5446736163842" lon="2.2134075664288986"><ele>89.0</ele><time>2026-04-02T14:43:04.999Z</time></trkpt><trkpt lat="41.544768742910065" lon="2.2133077151587686"><ele>89.0</ele><time>2026-04-02T14:43:06.999Z</time></trkpt><trkpt lat="41.54484488239345" lon="2.2132265794838912"><ele>89.0</ele><time>2026-04-02T14:43:09Z</time></trkpt><trkpt lat="41.54492314288479" lon="2.213139210734211"><ele>89.0</ele><time>2026-04-02T14:43:11Z</time></trkpt><trkpt lat="41.54499435078701" lon="2.213053160262707"><ele>89.0</ele><time>2026-04-02T14:43:13Z</time></trkpt><trkpt lat="41.545075215969014" lon="2.212950194265082"><ele>89.0</ele><time>2026-04-02T14:43:15Z</time></trkpt><trkpt lat="41.5451495085377" lon="2.212910597666217"><ele>89.0</ele><time>2026-04-02T14:43:16Z</time></trkpt><trkpt lat="41.54522214127078" lon="2.212847233778577"><ele>89.0</ele><time>2026-04-02T14:43:17Z</time></trkpt><trkpt lat="41.545296124993605" lon="2.2127716510051796"><ele>89.0</ele><time>2026-04-02T14:43:18Z</time></trkpt><trkpt lat="41.54532735630511" lon="2.212687222314701"><ele>89.0</ele><time>2026-04-02T14:43:19Z</time></trkpt><trkpt lat="41.545389057599884" lon="2.212606058846412"><ele>89.0</ele><time>2026-04-02T14:43:20Z</time></trkpt><trkpt lat="41.54546257697889" lon="2.2125389837083103"><ele>89.0</ele><time>2026-04-02T14:43:21Z</time></trkpt><trkpt lat="41.54553674974113" lon="2.212457049464641"><ele>89.66666666666667</ele><time>2026-04-02T14:43:22Z</time></trkpt><trkpt lat="41.54561425328892" lon="2.212371533968249"><ele>90.33333333333334</ele><time>2026-04-02T14:43:23Z</time></trkpt><trkpt lat="41.54567937983592" lon="2.2122998947471806"><ele>91.0</ele><time>2026-04-02T14:43:24Z</time></trkpt><trkpt lat="41.54573434984131" lon="2.212239427749561"><ele>91.66666666666667</ele><time>2026-04-02T14:43:25Z</time></trkpt><trkpt lat="41.545775847606514" lon="2.2121754922317285"><ele>92.33333333333333</ele><time>2026-04-02T14:43:26Z</time></trkpt><trkpt lat="41.54587819995054" lon="2.212088498712612"><ele>93.0</ele><time>2026-04-02T14:43:28Z</time></trkpt><trkpt lat="41.545922171711965" lon="2.212024828378381"><ele>93.00000000000001</ele><time>2026-04-02T14:43:29Z</time></trkpt><trkpt lat="41.545965164876506" lon="2.211956639310694"><ele>93.0</ele><time>2026-04-02T14:43:30Z</time></trkpt><trkpt lat="41.54602335828618" lon="2.2119019945273064"><ele>93.0</ele><time>2026-04-02T14:43:31Z</time></trkpt><trkpt lat="41.546078689480055" lon="2.2118291589115864"><ele>93.0</ele><time>2026-04-02T14:43:32Z</time></trkpt><trkpt lat="41.54614260891967" lon="2.2117786059121523"><ele>93.0</ele><time>2026-04-02T14:43:33Z</time></trkpt><trkpt lat="41.546194138866596" lon="2.211717717643548"><ele>93.00000000000001</ele><time>2026-04-02T14:43:34Z</time></trkpt><trkpt lat="41.54624487925907" lon="2.2116596974216187"><ele>93.0</ele><time>2026-04-02T14:43:35Z</time></trkpt><trkpt lat="41.54630238294861" lon="2.211603342476345"><ele>93.0</ele><time>2026-04-02T14:43:36Z</time></trkpt><trkpt lat="41.54636470204361" lon="2.2115597483991367"><ele>93.0</ele><time>2026-04-02T14:43:37Z</time></trkpt><trkpt lat="41.54643138121968" lon="2.2114705611502"><ele>93.0</ele><time>2026-04-02T14:43:38Z</time></trkpt><trkpt lat="41.54651263321288" lon="2.211445180708139"><ele>93.0</ele><time>2026-04-02T14:43:39Z</time></trkpt><trkpt lat="41.54658895261172" lon="2.21141584740117"><ele>93.0</ele><time>2026-04-02T14:43:40Z</time></trkpt><trkpt lat="41.54666114457302" lon="2.211384618159814"><ele>93.0</ele><time>2026-04-02T14:43:41Z</time></trkpt><trkpt lat="41.54673619028364" lon="2.211384181746412"><ele>92.66666666666667</ele><time>2026-04-02T14:43:42Z</time></trkpt><trkpt lat="41.54679613499917" lon="2.2113582474069333"><ele>92.33333333333333</ele><time>2026-04-02T14:43:43Z</time></trkpt><trkpt lat="41.546892258572036" lon="2.211316267861468"><ele>92.0</ele><time>2026-04-02T14:43:45Z</time></trkpt><trkpt lat="41.54695811244796" lon="2.2112808509624675"><ele>91.66666666666666</ele><time>2026-04-02T14:43:48Z</time></trkpt><trkpt lat="41.547060390618206" lon="2.211242979864336"><ele>91.33333333333333</ele><time>2026-04-02T14:45:05.999Z</time></trkpt><trkpt lat="41.547162258394636" lon="2.211199751372948"><ele>91.0</ele><time>2026-04-02T14:45:07.999Z</time></trkpt><trkpt lat="41.547271807591514" lon="2.2111511250362694"><ele>90.19999999999999</ele><time>2026-04-02T14:45:09.999Z</time></trkpt><trkpt lat="41.54727718747765" lon="2.2109170489010537"><ele>89.39999999999999</ele><time>2026-04-02T14:45:11.999Z</time></trkpt><trkpt lat="41.547260007353806" lon="2.210821636592495"><ele>88.6</ele><time>2026-04-02T14:45:12.999Z</time></trkpt><trkpt lat="41.54723308765879" lon="2.210712988946374"><ele>87.8</ele><time>2026-04-02T14:45:13.999Z</time></trkpt><trkpt lat="41.5472022745517" lon="2.2105943640001176"><ele>87.0</ele><time>2026-04-02T14:45:14.999Z</time></trkpt><trkpt lat="41.5471766048174" lon="2.2104755607398077"><ele>87.0</ele><time>2026-04-02T14:45:15.999Z</time></trkpt><trkpt lat="41.54714894748638" lon="2.210366990281146"><ele>87.0</ele><time>2026-04-02T14:45:16.999Z</time></trkpt><trkpt lat="41.54712540129323" lon="2.210258159076899"><ele>87.0</ele><time>2026-04-02T14:45:17.999Z</time></trkpt><trkpt lat="41.547099458841295" lon="2.2101383653871114"><ele>87.0</ele><time>2026-04-02T14:45:18.999Z</time></trkpt><trkpt lat="41.54707193370391" lon="2.2100118764808756"><ele>87.0</ele><time>2026-04-02T14:45:19.999Z</time></trkpt><trkpt lat="41.54704064429352" lon="2.209885855708097"><ele>86.0</ele><time>2026-04-02T14:45:20.999Z</time></trkpt><trkpt lat="41.54700840082061" lon="2.2097552431960583"><ele>85.0</ele><time>2026-04-02T14:45:21.999Z</time></trkpt><trkpt lat="41.5469688870417" lon="2.2096288222757385"><ele>84.0</ele><time>2026-04-02T14:45:22.999Z</time></trkpt><trkpt lat="41.546936469433824" lon="2.209498495683835"><ele>83.0</ele><time>2026-04-02T14:45:23.999Z</time></trkpt><trkpt lat="41.54690645148609" lon="2.2093727171511914"><ele>82.0</ele><time>2026-04-02T14:45:24.999Z</time></trkpt><trkpt lat="41.54690127507742" lon="2.2092577366193376"><ele>82.0</ele><time>2026-04-02T14:45:25.999Z</time></trkpt><trkpt lat="41.546886219492116" lon="2.209166431935626"><ele>82.0</ele><time>2026-04-02T14:45:26.999Z</time></trkpt><trkpt lat="41.54685598271959" lon="2.209010462754514"><ele>82.0</ele><time>2026-04-02T14:45:28.999Z</time></trkpt><trkpt lat="41.54682921991019" lon="2.208875703147283"><ele>82.0</ele><time>2026-04-02T14:45:30.999Z</time></trkpt><trkpt lat="41.54680104141304" lon="2.2087806897731848"><ele>82.0</ele><time>2026-04-02T14:45:32.999Z</time></trkpt><trkpt lat="41.54678040505845" lon="2.208651928872171"><ele>81.39999999999999</ele><time>2026-04-02T14:45:35.999Z</time></trkpt><trkpt lat="41.54676117448157" lon="2.2085658872268508"><ele>80.8</ele><time>2026-04-02T14:45:37.999Z</time></trkpt><trkpt lat="41.54671428989093" lon="2.208476804630837"><ele>80.2</ele><time>2026-04-02T14:45:42Z</time></trkpt><trkpt lat="41.54670994457201" lon="2.2083696469679994"><ele>79.6</ele><time>2026-04-02T14:45:44Z</time></trkpt><trkpt lat="41.54680512377593" lon="2.208329509078099"><ele>79.0</ele><time>2026-04-02T14:45:45Z</time></trkpt><trkpt lat="41.5469385159744" lon="2.208274014771162"><ele>79.0</ele><time>2026-04-02T14:45:47Z</time></trkpt><trkpt lat="41.54702000252" lon="2.2082403159013304"><ele>79.0</ele><time>2026-04-02T14:45:48Z</time></trkpt><trkpt lat="41.54711234382149" lon="2.2082153967261062"><ele>79.0</ele><time>2026-04-02T14:45:49Z</time></trkpt><trkpt lat="41.54719763728903" lon="2.2081869004020462"><ele>79.0</ele><time>2026-04-02T14:45:50Z</time></trkpt><trkpt lat="41.54727409512057" lon="2.2081512326901955"><ele>79.0</ele><time>2026-04-02T14:45:51Z</time></trkpt><trkpt lat="41.54733499440912" lon="2.2081128379482413"><ele>79.0</ele><time>2026-04-02T14:45:52Z</time></trkpt><trkpt lat="41.54743788529104" lon="2.2080581823633754"><ele>79.6</ele><time>2026-04-02T14:45:54Z</time></trkpt><trkpt lat="41.547524705280466" lon="2.208006328649044"><ele>80.2</ele><time>2026-04-02T14:45:56Z</time></trkpt><trkpt lat="41.547607778555374" lon="2.2079624602123458"><ele>80.8</ele><time>2026-04-02T14:45:58Z</time></trkpt><trkpt lat="41.54770267758072" lon="2.207951728729926"><ele>81.39999999999999</ele><time>2026-04-02T14:46:00Z</time></trkpt><trkpt lat="41.547777018756726" lon="2.207879101427756"><ele>82.0</ele><time>2026-04-02T14:46:02Z</time></trkpt><trkpt lat="41.547854613094536" lon="2.2078240343157782"><ele>82.6</ele><time>2026-04-02T14:46:04Z</time></trkpt><trkpt lat="41.547954301462084" lon="2.207791034115948"><ele>83.19999999999999</ele><time>2026-04-02T14:46:06Z</time></trkpt><trkpt lat="41.548038770464" lon="2.2077608514237994"><ele>83.8</ele><time>2026-04-02T14:46:08Z</time></trkpt><trkpt lat="41.54814297984488" lon="2.207710866780315"><ele>84.4</ele><time>2026-04-02T14:46:10Z</time></trkpt><trkpt lat="41.54823644737551" lon="2.207670592093106"><ele>85.0</ele><time>2026-04-02T14:46:12Z</time></trkpt><trkpt lat="41.54834362313747" lon="2.207625190026403"><ele>85.0</ele><time>2026-04-02T14:46:14Z</time></trkpt><trkpt lat="41.54844890352487" lon="2.207572589348681"><ele>85.0</ele><time>2026-04-02T14:46:16Z</time></trkpt><trkpt lat="41.54853342977896" lon="2.2075512398482937"><ele>85.0</ele><time>2026-04-02T14:46:18Z</time></trkpt><trkpt lat="41.54864195885923" lon="2.207509136781596"><ele>85.0</ele><time>2026-04-02T14:46:20Z</time></trkpt><trkpt lat="41.548703444332624" lon="2.207485740014268"><ele>85.0</ele><time>2026-04-02T14:46:21Z</time></trkpt><trkpt lat="41.548769490228054" lon="2.2074539980874217"><ele>85.0</ele><time>2026-04-02T14:46:22Z</time></trkpt><trkpt lat="41.548837764694376" lon="2.2074315073561017"><ele>85.2</ele><time>2026-04-02T14:46:23Z</time></trkpt><trkpt lat="41.54890806812888" lon="2.2074217020320432"><ele>85.4</ele><time>2026-04-02T14:46:24Z</time></trkpt><trkpt lat="41.54900657275238" lon="2.2073589151997814"><ele>85.6</ele><time>2026-04-02T14:46:26Z</time></trkpt><trkpt lat="41.54910708420065" lon="2.2073247564118286"><ele>85.8</ele><time>2026-04-02T14:46:28Z</time></trkpt><trkpt lat="41.54917600429918" lon="2.207293303489626"><ele>86.0</ele><time>2026-04-02T14:46:30Z</time></trkpt><trkpt lat="41.54927214794983" lon="2.2072693203239173"><ele>85.4</ele><time>2026-04-02T14:46:33Z</time></trkpt><trkpt lat="41.54936916952817" lon="2.2072328842804"><ele>84.8</ele><time>2026-04-02T14:46:35Z</time></trkpt><trkpt lat="41.54946359742263" lon="2.2073051852310495"><ele>84.2</ele><time>2026-04-02T14:46:37Z</time></trkpt><trkpt lat="41.54957740545475" lon="2.2072885250334777"><ele>83.60000000000001</ele><time>2026-04-02T14:46:38Z</time></trkpt><trkpt lat="41.54963580929899" lon="2.2071921584826133"><ele>83.0</ele><time>2026-04-02T14:46:39Z</time></trkpt><trkpt lat="41.549633185787144" lon="2.207085664723922"><ele>83.0</ele><time>2026-04-02T14:46:40Z</time></trkpt><trkpt lat="41.54959423459073" lon="2.207003573408149"><ele>83.0</ele><time>2026-04-02T14:46:41Z</time></trkpt><trkpt lat="41.5494839607817" lon="2.206905890225499"><ele>83.0</ele><time>2026-04-02T14:46:43Z</time></trkpt><trkpt lat="41.54941462614779" lon="2.2068692642563787"><ele>83.0</ele><time>2026-04-02T14:46:44Z</time></trkpt><trkpt lat="41.54935510842265" lon="2.2067372279166246"><ele>83.0</ele><time>2026-04-02T14:46:46Z</time></trkpt><trkpt lat="41.54932481306514" lon="2.206591515145412"><ele>83.0</ele><time>2026-04-02T14:46:48Z</time></trkpt><trkpt lat="41.54929664109169" lon="2.2065089039636585"><ele>83.0</ele><time>2026-04-02T14:46:49Z</time></trkpt><trkpt lat="41.54926642714778" lon="2.206407666001432"><ele>83.0</ele><time>2026-04-02T14:46:50Z</time></trkpt><trkpt lat="41.5492364277545" lon="2.206294586801675"><ele>83.0</ele><time>2026-04-02T14:46:51Z</time></trkpt><trkpt lat="41.54919905183499" lon="2.2061682757311276"><ele>83.0</ele><time>2026-04-02T14:46:52Z</time></trkpt><trkpt lat="41.54920144583832" lon="2.2060228776430937"><ele>82.4</ele><time>2026-04-02T14:46:53Z</time></trkpt><trkpt lat="41.54917037699363" lon="2.205885996718192"><ele>81.80000000000001</ele><time>2026-04-02T14:46:54Z</time></trkpt><trkpt lat="41.54913242515368" lon="2.20575495281234"><ele>81.2</ele><time>2026-04-02T14:46:55Z</time></trkpt><trkpt lat="41.54910305604569" lon="2.205615427852487"><ele>80.6</ele><time>2026-04-02T14:46:56Z</time></trkpt><trkpt lat="41.54907248060102" lon="2.2054808390986373"><ele>80.0</ele><time>2026-04-02T14:46:57Z</time></trkpt><trkpt lat="41.54903690511807" lon="2.205373008743714"><ele>79.6</ele><time>2026-04-02T14:46:58Z</time></trkpt><trkpt lat="41.54900561098117" lon="2.2052465863615454"><ele>79.2</ele><time>2026-04-02T14:46:59Z</time></trkpt><trkpt lat="41.54898884609666" lon="2.2051079500431703"><ele>78.8</ele><time>2026-04-02T14:47:00Z</time></trkpt><trkpt lat="41.54896134599838" lon="2.204994599852799"><ele>78.4</ele><time>2026-04-02T14:47:00.999Z</time></trkpt><trkpt lat="41.54892135629815" lon="2.2048774140030405"><ele>78.0</ele><time>2026-04-02T14:47:01.999Z</time></trkpt><trkpt lat="41.548885161358456" lon="2.204740266244577"><ele>78.0</ele><time>2026-04-02T14:47:02.999Z</time></trkpt><trkpt lat="41.54885830743191" lon="2.2045690165026977"><ele>78.0</ele><time>2026-04-02T14:47:03.999Z</time></trkpt><trkpt lat="41.54881583857682" lon="2.204423547593433"><ele>78.0</ele><time>2026-04-02T14:47:04.999Z</time></trkpt><trkpt lat="41.54878920568258" lon="2.204290542870134"><ele>78.0</ele><time>2026-04-02T14:47:05.999Z</time></trkpt><trkpt lat="41.54875727613704" lon="2.2041897397216887"><ele>78.0</ele><time>2026-04-02T14:47:06.999Z</time></trkpt><trkpt lat="41.54872553072139" lon="2.2040385932819295"><ele>78.0</ele><time>2026-04-02T14:47:07.999Z</time></trkpt><trkpt lat="41.54869882587646" lon="2.203924541618627"><ele>78.0</ele><time>2026-04-02T14:47:08.999Z</time></trkpt><trkpt lat="41.54867185541496" lon="2.2038198586765776"><ele>78.0</ele><time>2026-04-02T14:47:09.999Z</time></trkpt><trkpt lat="41.548646088611804" lon="2.2037251177211195"><ele>78.0</ele><time>2026-04-02T14:47:10.999Z</time></trkpt><trkpt lat="41.548643404903736" lon="2.203633158193996"><ele>78.0</ele><time>2026-04-02T14:47:11.999Z</time></trkpt><trkpt lat="41.54861740655421" lon="2.2035147745578794"><ele>78.0</ele><time>2026-04-02T14:47:13.999Z</time></trkpt><trkpt lat="41.54859965867515" lon="2.203432196286807"><ele>78.0</ele><time>2026-04-02T14:47:15.999Z</time></trkpt><trkpt lat="41.5485730981845" lon="2.2033038956848094"><ele>78.0</ele><time>2026-04-02T14:47:17.999Z</time></trkpt><trkpt lat="41.548602764642645" lon="2.2032215640313106"><ele>78.0</ele><time>2026-04-02T14:47:18.999Z</time></trkpt><trkpt lat="41.54863455358124" lon="2.20309884544123"><ele>78.0</ele><time>2026-04-02T14:47:19.999Z</time></trkpt><trkpt lat="41.54868712010088" lon="2.2029915323129425"><ele>78.0</ele><time>2026-04-02T14:47:20.999Z</time></trkpt><trkpt lat="41.54876606818832" lon="2.2029087031345638"><ele>78.0</ele><time>2026-04-02T14:47:21.999Z</time></trkpt><trkpt lat="41.548853378713645" lon="2.2028290772716437"><ele>78.0</ele><time>2026-04-02T14:47:22.999Z</time></trkpt><trkpt lat="41.548959456384814" lon="2.2027743321728206"><ele>78.0</ele><time>2026-04-02T14:47:24Z</time></trkpt><trkpt lat="41.54905613550931" lon="2.2027179496412432"><ele>78.0</ele><time>2026-04-02T14:47:25Z</time></trkpt><trkpt lat="41.54914895089656" lon="2.2026659105623576"><ele>78.0</ele><time>2026-04-02T14:47:26Z</time></trkpt><trkpt lat="41.549200543269656" lon="2.2025163943600323"><ele>78.0</ele><time>2026-04-02T14:47:27Z</time></trkpt><trkpt lat="41.54921047964694" lon="2.2023895609151345"><ele>78.0</ele><time>2026-04-02T14:47:28Z</time></trkpt><trkpt lat="41.54915901413029" lon="2.2022293655108385"><ele>78.0</ele><time>2026-04-02T14:47:29Z</time></trkpt><trkpt lat="41.54909807353435" lon="2.202070217898119"><ele>78.0</ele><time>2026-04-02T14:47:30Z</time></trkpt><trkpt lat="41.549020232718526" lon="2.2018900531807586"><ele>78.33333333333333</ele><time>2026-04-02T14:47:31Z</time></trkpt><trkpt lat="41.5489420382663" lon="2.2016974790041153"><ele>78.66666666666666</ele><time>2026-04-02T14:47:32Z</time></trkpt><trkpt lat="41.54885397131162" lon="2.20149118573994"><ele>79.0</ele><time>2026-04-02T14:47:33Z</time></trkpt><trkpt lat="41.54876999631687" lon="2.2012943784153145"><ele>81.66666666666666</ele><time>2026-04-02T14:47:34Z</time></trkpt><trkpt lat="41.54868791642798" lon="2.2010940274889825"><ele>84.33333333333333</ele><time>2026-04-02T14:47:35Z</time></trkpt><trkpt lat="41.54860075120048" lon="2.2008848570309127"><ele>87.0</ele><time>2026-04-02T14:47:36Z</time></trkpt><trkpt lat="41.548513583941826" lon="2.2006705462259273"><ele>87.0</ele><time>2026-04-02T14:47:37Z</time></trkpt><trkpt lat="41.54842309411166" lon="2.2004451358776698"><ele>87.0</ele><time>2026-04-02T14:47:38Z</time></trkpt><trkpt lat="41.548327614821304" lon="2.2002168168742573"><ele>87.0</ele><time>2026-04-02T14:47:39Z</time></trkpt><trkpt lat="41.54822462074631" lon="2.1999948136937535"><ele>88.66666666666667</ele><time>2026-04-02T14:47:40Z</time></trkpt><trkpt lat="41.54811381946086" lon="2.199771879230011"><ele>90.33333333333334</ele><time>2026-04-02T14:47:41Z</time></trkpt><trkpt lat="41.547999339917126" lon="2.1995398082012727"><ele>92.0</ele><time>2026-04-02T14:47:42Z</time></trkpt><trkpt lat="41.54787756881911" lon="2.1993138730291673"><ele>93.0</ele><time>2026-04-02T14:47:43Z</time></trkpt><trkpt lat="41.54775854965232" lon="2.199086292858122"><ele>94.0</ele><time>2026-04-02T14:47:44Z</time></trkpt><trkpt lat="41.54764147856187" lon="2.1988589068109894"><ele>95.0</ele><time>2026-04-02T14:47:45Z</time></trkpt><trkpt lat="41.54753121194278" lon="2.198625259825726"><ele>95.0</ele><time>2026-04-02T14:47:46Z</time></trkpt><trkpt lat="41.54742228998717" lon="2.198394724502859"><ele>95.0</ele><time>2026-04-02T14:47:47Z</time></trkpt><trkpt lat="41.54731097250215" lon="2.1981649568601065"><ele>95.0</ele><time>2026-04-02T14:47:48Z</time></trkpt><trkpt lat="41.5472014288325" lon="2.1979268798277594"><ele>97.66666666666667</ele><time>2026-04-02T14:47:49Z</time></trkpt><trkpt lat="41.54709429217144" lon="2.197687234157606"><ele>100.33333333333334</ele><time>2026-04-02T14:47:50Z</time></trkpt><trkpt lat="41.546985709282765" lon="2.1974480835865715"><ele>103.0</ele><time>2026-04-02T14:47:51Z</time></trkpt><trkpt lat="41.546871037295155" lon="2.197210448773134"><ele>103.0</ele><time>2026-04-02T14:47:52Z</time></trkpt><trkpt lat="41.546757816066716" lon="2.196969854114208"><ele>103.0</ele><time>2026-04-02T14:47:53Z</time></trkpt><trkpt lat="41.546643562616445" lon="2.1967284548448416"><ele>103.0</ele><time>2026-04-02T14:47:54Z</time></trkpt><trkpt lat="41.546527756742" lon="2.196481534519554"><ele>103.0</ele><time>2026-04-02T14:47:55Z</time></trkpt><trkpt lat="41.54640899422152" lon="2.1962350175129175"><ele>103.0</ele><time>2026-04-02T14:47:56Z</time></trkpt><trkpt lat="41.54629138465288" lon="2.1959868450500433"><ele>103.0</ele><time>2026-04-02T14:47:57Z</time></trkpt><trkpt lat="41.54617228386068" lon="2.1957386794806557"><ele>103.0</ele><time>2026-04-02T14:47:58Z</time></trkpt><trkpt lat="41.546055087841644" lon="2.1954849178485367"><ele>103.0</ele><time>2026-04-02T14:47:59Z</time></trkpt><trkpt lat="41.54593116246704" lon="2.195236230389697"><ele>103.0</ele><time>2026-04-02T14:48:00Z</time></trkpt><trkpt lat="41.54581038926258" lon="2.1949844287538998"><ele>104.66666666666667</ele><time>2026-04-02T14:48:01Z</time></trkpt><trkpt lat="41.5456886837803" lon="2.194736341494951"><ele>106.33333333333334</ele><time>2026-04-02T14:48:02Z</time></trkpt><trkpt lat="41.54556609589579" lon="2.1944836600849156"><ele>108.0</ele><time>2026-04-02T14:48:03Z</time></trkpt><trkpt lat="41.54544457216768" lon="2.1942222635697357"><ele>105.0</ele><time>2026-04-02T14:48:04Z</time></trkpt><trkpt lat="41.54532099882858" lon="2.193958978045981"><ele>102.0</ele><time>2026-04-02T14:48:05Z</time></trkpt><trkpt lat="41.54520085927712" lon="2.1936894844322943"><ele>102.0</ele><time>2026-04-02T14:48:06Z</time></trkpt><trkpt lat="41.54508535868798" lon="2.1934248018175535"><ele>102.0</ele><time>2026-04-02T14:48:07Z</time></trkpt><trkpt lat="41.54497479213464" lon="2.1931652884914703"><ele>102.0</ele><time>2026-04-02T14:48:08Z</time></trkpt><trkpt lat="41.54486912768741" lon="2.1929205286017437"><ele>102.0</ele><time>2026-04-02T14:48:09Z</time></trkpt><trkpt lat="41.5447654343698" lon="2.1926651113145073"><ele>102.0</ele><time>2026-04-02T14:48:10Z</time></trkpt><trkpt lat="41.544659716825315" lon="2.192406885399218"><ele>101.33333333333334</ele><time>2026-04-02T14:48:11Z</time></trkpt><trkpt lat="41.54456171387757" lon="2.192161274754866"><ele>100.66666666666667</ele><time>2026-04-02T14:48:12Z</time></trkpt><trkpt lat="41.5444723869522" lon="2.191922642278833"><ele>100.0</ele><time>2026-04-02T14:48:13Z</time></trkpt><trkpt lat="41.54439555647104" lon="2.191683590355171"><ele>98.0</ele><time>2026-04-02T14:48:14Z</time></trkpt><trkpt lat="41.54435349802055" lon="2.191471133053555"><ele>96.0</ele><time>2026-04-02T14:48:15Z</time></trkpt><trkpt lat="41.54434288005175" lon="2.1912854956970884"><ele>94.0</ele><time>2026-04-02T14:48:16Z</time></trkpt><trkpt lat="41.54435751189143" lon="2.1911130174774516"><ele>92.0</ele><time>2026-04-02T14:48:17Z</time></trkpt><trkpt lat="41.54441113826283" lon="2.190940284000455"><ele>92.0</ele><time>2026-04-02T14:48:18Z</time></trkpt><trkpt lat="41.54449089843648" lon="2.190786093330315"><ele>92.0</ele><time>2026-04-02T14:48:19Z</time></trkpt><trkpt lat="41.54459546738544" lon="2.1906406865908656"><ele>92.0</ele><time>2026-04-02T14:48:20Z</time></trkpt><trkpt lat="41.544684823074675" lon="2.1904867396236027"><ele>92.0</ele><time>2026-04-02T14:48:21Z</time></trkpt><trkpt lat="41.54474287084254" lon="2.190311151068111"><ele>94.0</ele><time>2026-04-02T14:48:22Z</time></trkpt><trkpt lat="41.54478147534824" lon="2.1901124556689338"><ele>96.0</ele><time>2026-04-02T14:48:23Z</time></trkpt><trkpt lat="41.54478337166608" lon="2.189888697841503"><ele>98.0</ele><time>2026-04-02T14:48:24Z</time></trkpt><trkpt lat="41.54474800718115" lon="2.1896475030804106"><ele>98.0</ele><time>2026-04-02T14:48:25Z</time></trkpt><trkpt lat="41.54468641822271" lon="2.189392516890972"><ele>98.0</ele><time>2026-04-02T14:48:26Z</time></trkpt><trkpt lat="41.54461951573453" lon="2.189145719719566"><ele>98.0</ele><time>2026-04-02T14:48:27Z</time></trkpt><trkpt lat="41.544567035370704" lon="2.1889182253402177"><ele>96.0</ele><time>2026-04-02T14:48:28Z</time></trkpt><trkpt lat="41.54455580359972" lon="2.1886879556002845"><ele>94.0</ele><time>2026-04-02T14:48:29Z</time></trkpt><trkpt lat="41.54458758165175" lon="2.1884423712610688"><ele>92.0</ele><time>2026-04-02T14:48:30Z</time></trkpt><trkpt lat="41.54464808848441" lon="2.1882059799252054"><ele>91.66666666666667</ele><time>2026-04-02T14:48:31Z</time></trkpt><trkpt lat="41.5447295554394" lon="2.1880018776274275"><ele>91.33333333333333</ele><time>2026-04-02T14:48:32Z</time></trkpt><trkpt lat="41.544846993665566" lon="2.187821648768895"><ele>91.0</ele><time>2026-04-02T14:48:33Z</time></trkpt><trkpt lat="41.54499521320685" lon="2.187681618921491"><ele>91.0</ele><time>2026-04-02T14:48:34Z</time></trkpt><trkpt lat="41.54516123756626" lon="2.187552388752741"><ele>91.0</ele><time>2026-04-02T14:48:35Z</time></trkpt><trkpt lat="41.545312787061185" lon="2.187397308467917"><ele>91.0</ele><time>2026-04-02T14:48:36Z</time></trkpt><trkpt lat="41.54546829432022" lon="2.1872381782085077"><ele>89.5</ele><time>2026-04-02T14:48:37Z</time></trkpt><trkpt lat="41.54575595932969" lon="2.1873128191124516"><ele>88.0</ele><time>2026-04-02T14:48:38Z</time></trkpt><trkpt lat="41.54596138703243" lon="2.187256475147426"><ele>88.0</ele><time>2026-04-02T14:48:39Z</time></trkpt><trkpt lat="41.54617294137157" lon="2.1872009493412032"><ele>88.0</ele><time>2026-04-02T14:48:40Z</time></trkpt><trkpt lat="41.54638903275432" lon="2.18715138158121"><ele>88.0</ele><time>2026-04-02T14:48:41Z</time></trkpt><trkpt lat="41.54663680513029" lon="2.1873525301227628"><ele>89.66666666666666</ele><time>2026-04-02T14:48:42Z</time></trkpt><trkpt lat="41.54685752310672" lon="2.187304386941113"><ele>91.33333333333333</ele><time>2026-04-02T14:48:43Z</time></trkpt><trkpt lat="41.54707993959746" lon="2.1872597559291984"><ele>93.0</ele><time>2026-04-02T14:48:44Z</time></trkpt><trkpt lat="41.547306713932564" lon="2.1872143886182456"><ele>95.5</ele><time>2026-04-02T14:48:45Z</time></trkpt><trkpt lat="41.5475313586958" lon="2.187168555040411"><ele>98.0</ele><time>2026-04-02T14:48:46Z</time></trkpt><trkpt lat="41.54775542723211" lon="2.1871228390429"><ele>98.0</ele><time>2026-04-02T14:48:47Z</time></trkpt><trkpt lat="41.54797256846046" lon="2.1870787678781545"><ele>98.0</ele><time>2026-04-02T14:48:48Z</time></trkpt><trkpt lat="41.54819256008352" lon="2.187034383590919"><ele>98.0</ele><time>2026-04-02T14:48:49Z</time></trkpt><trkpt lat="41.548416764464044" lon="2.1869874880731097"><ele>98.0</ele><time>2026-04-02T14:48:50Z</time></trkpt><trkpt lat="41.54864180849837" lon="2.186928682221104"><ele>98.0</ele><time>2026-04-02T14:48:51Z</time></trkpt><trkpt lat="41.54885424685787" lon="2.1868877332950625"><ele>98.0</ele><time>2026-04-02T14:48:52Z</time></trkpt><trkpt lat="41.54908385663951" lon="2.1868424940943143"><ele>97.66666666666666</ele><time>2026-04-02T14:48:53Z</time></trkpt><trkpt lat="41.549298646239876" lon="2.1868013011531064"><ele>97.33333333333334</ele><time>2026-04-02T14:48:54Z</time></trkpt><trkpt lat="41.5494931450263" lon="2.1867869730961567"><ele>97.0</ele><time>2026-04-02T14:48:55.001Z</time></trkpt><trkpt lat="41.549652727398524" lon="2.186834364275343"><ele>98.0</ele><time>2026-04-02T14:48:56.001Z</time></trkpt><trkpt lat="41.549797181356666" lon="2.1869118828444285"><ele>99.0</ele><time>2026-04-02T14:48:57.001Z</time></trkpt><trkpt lat="41.54998135421737" lon="2.1869889792389"><ele>100.0</ele><time>2026-04-02T14:48:58.001Z</time></trkpt><trkpt lat="41.55016752796172" lon="2.187059356598552"><ele>98.0</ele><time>2026-04-02T14:48:59.001Z</time></trkpt><trkpt lat="41.55058502512752" lon="2.1863258482945067"><ele>98.0</ele><time>2026-04-02T14:49:00.001Z</time></trkpt><trkpt lat="41.55080595215544" lon="2.1862795112049946"><ele>98.0</ele><time>2026-04-02T14:49:01.001Z</time></trkpt><trkpt lat="41.55102766442945" lon="2.186234029764874"><ele>98.0</ele><time>2026-04-02T14:49:02.001Z</time></trkpt><trkpt lat="41.55124869439411" lon="2.1861931747415495"><ele>98.66666666666666</ele><time>2026-04-02T14:49:03.001Z</time></trkpt><trkpt lat="41.551468661273155" lon="2.186151489732502"><ele>99.33333333333334</ele><time>2026-04-02T14:49:04.001Z</time></trkpt><trkpt lat="41.5516852810711" lon="2.1861108399686935"><ele>100.0</ele><time>2026-04-02T14:49:05.001Z</time></trkpt><trkpt lat="41.55190581337408" lon="2.18606971388448"><ele>100.33333333333334</ele><time>2026-04-02T14:49:06.001Z</time></trkpt><trkpt lat="41.552127578995375" lon="2.186027664812612"><ele>100.66666666666666</ele><time>2026-04-02T14:49:07Z</time></trkpt><trkpt lat="41.55234937558959" lon="2.1859828680217985"><ele>101.0</ele><time>2026-04-02T14:49:08Z</time></trkpt><trkpt lat="41.55257228233956" lon="2.1859365543411386"><ele>101.0</ele><time>2026-04-02T14:49:09Z</time></trkpt><trkpt lat="41.5527970294064" lon="2.1858929024912936"><ele>101.0</ele><time>2026-04-02T14:49:10Z</time></trkpt><trkpt lat="41.55302025509365" lon="2.185852922893259"><ele>102.33333333333333</ele><time>2026-04-02T14:49:11Z</time></trkpt><trkpt lat="41.553239680174855" lon="2.1858094634620193"><ele>103.66666666666666</ele><time>2026-04-02T14:49:12Z</time></trkpt><trkpt lat="41.55346048125652" lon="2.185764409910488"><ele>105.0</ele><time>2026-04-02T14:49:13Z</time></trkpt><trkpt lat="41.55368276098437" lon="2.1857217287817043"><ele>105.0</ele><time>2026-04-02T14:49:14Z</time></trkpt><trkpt lat="41.55390116529973" lon="2.185679132130464"><ele>105.0</ele><time>2026-04-02T14:49:15Z</time></trkpt><trkpt lat="41.554117954370554" lon="2.185635587646711"><ele>105.0</ele><time>2026-04-02T14:49:16Z</time></trkpt><trkpt lat="41.55433628744686" lon="2.1855931078974313"><ele>104.66666666666666</ele><time>2026-04-02T14:49:17Z</time></trkpt><trkpt lat="41.55455435119236" lon="2.1855513722059072"><ele>104.33333333333333</ele><time>2026-04-02T14:49:18Z</time></trkpt><trkpt lat="41.554771636273" lon="2.185506648392248"><ele>104.0</ele><time>2026-04-02T14:49:19Z</time></trkpt><trkpt lat="41.554986405901005" lon="2.185460887423461"><ele>104.0</ele><time>2026-04-02T14:49:20Z</time></trkpt><trkpt lat="41.5551992196305" lon="2.1854170184032435"><ele>104.0</ele><time>2026-04-02T14:49:21Z</time></trkpt><trkpt lat="41.555410601924336" lon="2.185378363536252"><ele>104.0</ele><time>2026-04-02T14:49:22Z</time></trkpt><trkpt lat="41.555614623137046" lon="2.185336688136846"><ele>104.0</ele><time>2026-04-02T14:49:23Z</time></trkpt><trkpt lat="41.55582216790132" lon="2.185293775196286"><ele>104.0</ele><time>2026-04-02T14:49:24Z</time></trkpt><trkpt lat="41.55602896256989" lon="2.1852373517455352"><ele>104.0</ele><time>2026-04-02T14:49:25Z</time></trkpt><trkpt lat="41.55624015316427" lon="2.185182824379942"><ele>104.0</ele><time>2026-04-02T14:49:26Z</time></trkpt><trkpt lat="41.55644994723554" lon="2.1851536058103576"><ele>104.0</ele><time>2026-04-02T14:49:27Z</time></trkpt><trkpt lat="41.55666726153572" lon="2.185137817698516"><ele>104.0</ele><time>2026-04-02T14:49:28Z</time></trkpt><trkpt lat="41.556876269483936" lon="2.1851387444274084"><ele>105.0</ele><time>2026-04-02T14:49:29Z</time></trkpt><trkpt lat="41.55708388227406" lon="2.1851605910382133"><ele>106.0</ele><time>2026-04-02T14:49:30Z</time></trkpt><trkpt lat="41.55728742550781" lon="2.1851991071093257"><ele>107.0</ele><time>2026-04-02T14:49:31Z</time></trkpt><trkpt lat="41.55748925388822" lon="2.1852410695016746"><ele>107.0</ele><time>2026-04-02T14:49:32Z</time></trkpt><trkpt lat="41.557691965594984" lon="2.1852968105998642"><ele>107.0</ele><time>2026-04-02T14:49:33Z</time></trkpt><trkpt lat="41.557890216236096" lon="2.185366734766844"><ele>107.0</ele><time>2026-04-02T14:49:34Z</time></trkpt><trkpt lat="41.55808799303989" lon="2.185442952181019"><ele>107.66666666666666</ele><time>2026-04-02T14:49:35Z</time></trkpt><trkpt lat="41.55828348951087" lon="2.1855303324285194"><ele>108.33333333333334</ele><time>2026-04-02T14:49:36Z</time></trkpt><trkpt lat="41.55847453980447" lon="2.1856264462671424"><ele>109.0</ele><time>2026-04-02T14:49:37Z</time></trkpt><trkpt lat="41.5586621180363" lon="2.1857358548559795"><ele>111.0</ele><time>2026-04-02T14:49:38Z</time></trkpt><trkpt lat="41.558846692544584" lon="2.1858530117665613"><ele>113.0</ele><time>2026-04-02T14:49:39Z</time></trkpt><trkpt lat="41.55903056091036" lon="2.185976321830497"><ele>115.0</ele><time>2026-04-02T14:49:40Z</time></trkpt><trkpt lat="41.559211058862694" lon="2.186109887420933"><ele>115.0</ele><time>2026-04-02T14:49:41Z</time></trkpt><trkpt lat="41.55938869048203" lon="2.18625122703971"><ele>115.0</ele><time>2026-04-02T14:49:42Z</time></trkpt><trkpt lat="41.55956161447892" lon="2.186398014659345"><ele>115.0</ele><time>2026-04-02T14:49:43Z</time></trkpt><trkpt lat="41.55973512065751" lon="2.186546553093243"><ele>115.0</ele><time>2026-04-02T14:49:44Z</time></trkpt><trkpt lat="41.559912481856806" lon="2.186693411870739"><ele>115.0</ele><time>2026-04-02T14:49:45Z</time></trkpt><trkpt lat="41.56008819350073" lon="2.186841302541648"><ele>115.0</ele><time>2026-04-02T14:49:46Z</time></trkpt><trkpt lat="41.56026693102732" lon="2.186985381629383"><ele>115.66666666666667</ele><time>2026-04-02T14:49:47Z</time></trkpt><trkpt lat="41.560447810489045" lon="2.1871262534532785"><ele>116.33333333333334</ele><time>2026-04-02T14:49:48Z</time></trkpt><trkpt lat="41.560630223552224" lon="2.187257517653163"><ele>117.0</ele><time>2026-04-02T14:49:49Z</time></trkpt><trkpt lat="41.560811059614565" lon="2.18737818250954"><ele>118.33333333333334</ele><time>2026-04-02T14:49:50Z</time></trkpt><trkpt lat="41.5609933387363" lon="2.1874900441668954"><ele>119.66666666666667</ele><time>2026-04-02T14:49:51Z</time></trkpt><trkpt lat="41.56117919019004" lon="2.1875938772586347"><ele>121.0</ele><time>2026-04-02T14:49:52Z</time></trkpt><trkpt lat="41.56136840921345" lon="2.1876903026989"><ele>122.33333333333334</ele><time>2026-04-02T14:49:53Z</time></trkpt><trkpt lat="41.561559167678325" lon="2.187777471806402"><ele>123.66666666666666</ele><time>2026-04-02T14:49:54Z</time></trkpt><trkpt lat="41.561751076591904" lon="2.1878570623114046"><ele>125.0</ele><time>2026-04-02T14:49:55Z</time></trkpt><trkpt lat="41.56194782539987" lon="2.187928672119053"><ele>124.33333333333333</ele><time>2026-04-02T14:49:56Z</time></trkpt><trkpt lat="41.56214329653804" lon="2.187991729635774"><ele>123.66666666666666</ele><time>2026-04-02T14:49:57Z</time></trkpt><trkpt lat="41.56233854493423" lon="2.188047268068581"><ele>123.0</ele><time>2026-04-02T14:49:58Z</time></trkpt><trkpt lat="41.56253845288821" lon="2.1880918404060403"><ele>123.0</ele><time>2026-04-02T14:49:59Z</time></trkpt><trkpt lat="41.56273682157184" lon="2.188126611741771"><ele>123.0</ele><time>2026-04-02T14:50:00Z</time></trkpt><trkpt lat="41.56293870366526" lon="2.188155176755718"><ele>123.0</ele><time>2026-04-02T14:50:01Z</time></trkpt><trkpt lat="41.5631377790838" lon="2.1881747793842767"><ele>124.0</ele><time>2026-04-02T14:50:02Z</time></trkpt><trkpt lat="41.56333948879116" lon="2.1881879122117645"><ele>125.0</ele><time>2026-04-02T14:50:03Z</time></trkpt><trkpt lat="41.563539464863986" lon="2.1881904361452174"><ele>126.0</ele><time>2026-04-02T14:50:04Z</time></trkpt><trkpt lat="41.56373913871445" lon="2.1881859804173747"><ele>127.0</ele><time>2026-04-02T14:50:05Z</time></trkpt><trkpt lat="41.56393646162505" lon="2.1881715470024563"><ele>128.0</ele><time>2026-04-02T14:50:06Z</time></trkpt><trkpt lat="41.56413521555286" lon="2.188152493066747"><ele>129.0</ele><time>2026-04-02T14:50:07Z</time></trkpt><trkpt lat="41.56432958264466" lon="2.18813227086675"><ele>129.0</ele><time>2026-04-02T14:50:08Z</time></trkpt><trkpt lat="41.56452853742631" lon="2.1881096277633376"><ele>129.0</ele><time>2026-04-02T14:50:09Z</time></trkpt><trkpt lat="41.5647266016906" lon="2.188086828256305"><ele>129.0</ele><time>2026-04-02T14:50:10Z</time></trkpt><trkpt lat="41.564924929183945" lon="2.188062745206669"><ele>128.66666666666666</ele><time>2026-04-02T14:50:11Z</time></trkpt><trkpt lat="41.56512591095161" lon="2.1880394659245312"><ele>128.33333333333331</ele><time>2026-04-02T14:50:12Z</time></trkpt><trkpt lat="41.56533561070056" lon="2.1880206568798677"><ele>128.0</ele><time>2026-04-02T14:50:13Z</time></trkpt><trkpt lat="41.56553852089166" lon="2.1880016907427686"><ele>128.66666666666666</ele><time>2026-04-02T14:50:14Z</time></trkpt><trkpt lat="41.56574254733525" lon="2.1879827603148545"><ele>129.33333333333334</ele><time>2026-04-02T14:50:15Z</time></trkpt><trkpt lat="41.56594713222125" lon="2.187955629907759"><ele>130.0</ele><time>2026-04-02T14:50:16.001Z</time></trkpt><trkpt lat="41.56615242968466" lon="2.187931226775885"><ele>131.33333333333334</ele><time>2026-04-02T14:50:17.001Z</time></trkpt><trkpt lat="41.56636351011903" lon="2.1879081296391134"><ele>132.66666666666666</ele><time>2026-04-02T14:50:18.001Z</time></trkpt><trkpt lat="41.56657162368531" lon="2.1878858986580454"><ele>134.0</ele><time>2026-04-02T14:50:19.001Z</time></trkpt><trkpt lat="41.56677913351282" lon="2.1878638938292525"><ele>134.0</ele><time>2026-04-02T14:50:20.001Z</time></trkpt><trkpt lat="41.5669844519103" lon="2.187843377585399"><ele>134.0</ele><time>2026-04-02T14:50:21.001Z</time></trkpt><trkpt lat="41.56719151869997" lon="2.187820881086446"><ele>134.0</ele><time>2026-04-02T14:50:22.001Z</time></trkpt><trkpt lat="41.56739636386233" lon="2.1877948545024672"><ele>135.0</ele><time>2026-04-02T14:50:23.001Z</time></trkpt><trkpt lat="41.56759790566348" lon="2.187775152189698"><ele>136.0</ele><time>2026-04-02T14:50:24.001Z</time></trkpt><trkpt lat="41.56780310850575" lon="2.187756275734045"><ele>137.0</ele><time>2026-04-02T14:50:25.001Z</time></trkpt><trkpt lat="41.56800768167392" lon="2.1877330335321785"><ele>137.0</ele><time>2026-04-02T14:50:26.001Z</time></trkpt><trkpt lat="41.56821409531412" lon="2.187709920501528"><ele>137.0</ele><time>2026-04-02T14:50:27.001Z</time></trkpt><trkpt lat="41.56842044112363" lon="2.1876871325116523"><ele>137.0</ele><time>2026-04-02T14:50:28.001Z</time></trkpt><trkpt lat="41.56862731583148" lon="2.1876622522043374"><ele>137.66666666666666</ele><time>2026-04-02T14:50:29.001Z</time></trkpt><trkpt lat="41.56883232745957" lon="2.187644952942372"><ele>138.33333333333334</ele><time>2026-04-02T14:50:30.001Z</time></trkpt><trkpt lat="41.569041448706926" lon="2.187624806556769"><ele>139.0</ele><time>2026-04-02T14:50:31.001Z</time></trkpt><trkpt lat="41.56924104921281" lon="2.1876044120360447"><ele>139.0</ele><time>2026-04-02T14:50:32.001Z</time></trkpt><trkpt lat="41.56944134986677" lon="2.18757895229013"><ele>139.0</ele><time>2026-04-02T14:50:33.001Z</time></trkpt><trkpt lat="41.56964293153179" lon="2.187559419674332"><ele>139.0</ele><time>2026-04-02T14:50:34.001Z</time></trkpt><trkpt lat="41.56984285513352" lon="2.1875372131510904"><ele>138.0</ele><time>2026-04-02T14:50:35.001Z</time></trkpt><trkpt lat="41.57004589893275" lon="2.1875154558848804"><ele>137.0</ele><time>2026-04-02T14:50:36.001Z</time></trkpt><trkpt lat="41.57024781546296" lon="2.187495677366544"><ele>136.0</ele><time>2026-04-02T14:50:37.001Z</time></trkpt><trkpt lat="41.57045165399413" lon="2.187472293192894"><ele>136.0</ele><time>2026-04-02T14:50:38.001Z</time></trkpt><trkpt lat="41.57064045555654" lon="2.1874490579607078"><ele>136.0</ele><time>2026-04-02T14:50:39.001Z</time></trkpt><trkpt lat="41.57081821416237" lon="2.18743229116958"><ele>136.0</ele><time>2026-04-02T14:50:40.001Z</time></trkpt><trkpt lat="41.570997969648765" lon="2.1874114203724293"><ele>136.0</ele><time>2026-04-02T14:50:41.001Z</time></trkpt><trkpt lat="41.571181324145584" lon="2.1873917415351256"><ele>136.0</ele><time>2026-04-02T14:50:42.001Z</time></trkpt><trkpt lat="41.5713756228475" lon="2.187378675269005"><ele>136.0</ele><time>2026-04-02T14:50:43.001Z</time></trkpt><trkpt lat="41.571568934690134" lon="2.187363507445224"><ele>137.33333333333334</ele><time>2026-04-02T14:50:44.001Z</time></trkpt><trkpt lat="41.57176109189162" lon="2.187348589966934"><ele>138.66666666666666</ele><time>2026-04-02T14:50:45.001Z</time></trkpt><trkpt lat="41.57194772342082" lon="2.1873268119347595"><ele>140.0</ele><time>2026-04-02T14:50:46.001Z</time></trkpt><trkpt lat="41.57214019101172" lon="2.187316828628161"><ele>142.66666666666666</ele><time>2026-04-02T14:50:47.001Z</time></trkpt><trkpt lat="41.57233827586304" lon="2.187302225269113"><ele>145.33333333333334</ele><time>2026-04-02T14:50:48.001Z</time></trkpt><trkpt lat="41.57254226467952" lon="2.1872875702964185"><ele>148.0</ele><time>2026-04-02T14:50:49.001Z</time></trkpt><trkpt lat="41.57275065974387" lon="2.1872814470902253"><ele>146.33333333333334</ele><time>2026-04-02T14:50:50.001Z</time></trkpt><trkpt lat="41.5729492479507" lon="2.187264724007117"><ele>144.66666666666666</ele><time>2026-04-02T14:50:51.001Z</time></trkpt><trkpt lat="41.57315590897318" lon="2.1872703073018815"><ele>143.0</ele><time>2026-04-02T14:50:52.001Z</time></trkpt><trkpt lat="41.57336130226575" lon="2.1872586889862347"><ele>143.0</ele><time>2026-04-02T14:50:53.001Z</time></trkpt><trkpt lat="41.57357096832958" lon="2.1872536656810384"><ele>143.0</ele><time>2026-04-02T14:50:54.001Z</time></trkpt><trkpt lat="41.57377979352101" lon="2.187248114725161"><ele>143.0</ele><time>2026-04-02T14:50:55.001Z</time></trkpt><trkpt lat="41.57398602970407" lon="2.1872343664492133"><ele>142.0</ele><time>2026-04-02T14:50:56.001Z</time></trkpt><trkpt lat="41.57419709273296" lon="2.1872296113673904"><ele>141.0</ele><time>2026-04-02T14:50:57.001Z</time></trkpt><trkpt lat="41.57439632335317" lon="2.1872349750364686"><ele>140.0</ele><time>2026-04-02T14:50:58.001Z</time></trkpt><trkpt lat="41.574590951132734" lon="2.1872367035156177"><ele>139.33333333333331</ele><time>2026-04-02T14:50:59.001Z</time></trkpt><trkpt lat="41.57478698146445" lon="2.1872370424395253"><ele>138.66666666666666</ele><time>2026-04-02T14:51:00.001Z</time></trkpt><trkpt lat="41.5749685524158" lon="2.1872389917760655"><ele>138.0</ele><time>2026-04-02T14:51:01.001Z</time></trkpt><trkpt lat="41.57514557381919" lon="2.1872453616995124"><ele>138.0</ele><time>2026-04-02T14:51:02.001Z</time></trkpt><trkpt lat="41.57533054378904" lon="2.1872485285818932"><ele>138.0</ele><time>2026-04-02T14:51:03.001Z</time></trkpt><trkpt lat="41.57551715090614" lon="2.1872500457066266"><ele>138.0</ele><time>2026-04-02T14:51:04.001Z</time></trkpt><trkpt lat="41.57569895772905" lon="2.187257463794688"><ele>139.0</ele><time>2026-04-02T14:51:05.001Z</time></trkpt><trkpt lat="41.57588350336923" lon="2.1872648183197727"><ele>140.0</ele><time>2026-04-02T14:51:06.001Z</time></trkpt><trkpt lat="41.57606469405315" lon="2.187273030153119"><ele>141.0</ele><time>2026-04-02T14:51:07.001Z</time></trkpt><trkpt lat="41.57625180568458" lon="2.187280864722853"><ele>142.0</ele><time>2026-04-02T14:51:08.001Z</time></trkpt><trkpt lat="41.57643925252724" lon="2.1872947524013657"><ele>143.0</ele><time>2026-04-02T14:51:09.001Z</time></trkpt><trkpt lat="41.57662476127085" lon="2.1873120747642396"><ele>144.0</ele><time>2026-04-02T14:51:10.001Z</time></trkpt><trkpt lat="41.576814514557896" lon="2.1873207456610704"><ele>144.0</ele><time>2026-04-02T14:51:11.001Z</time></trkpt><trkpt lat="41.57700095042606" lon="2.1873319427146196"><ele>144.0</ele><time>2026-04-02T14:51:12.001Z</time></trkpt><trkpt lat="41.57718161111643" lon="2.1873447794431264"><ele>144.0</ele><time>2026-04-02T14:51:13.001Z</time></trkpt><trkpt lat="41.57735541366042" lon="2.187362980016691"><ele>141.66666666666666</ele><time>2026-04-02T14:51:14.001Z</time></trkpt><trkpt lat="41.57753335437493" lon="2.187378837033772"><ele>139.33333333333331</ele><time>2026-04-02T14:51:15.001Z</time></trkpt><trkpt lat="41.57771410643762" lon="2.1873912185467024"><ele>137.0</ele><time>2026-04-02T14:51:16.001Z</time></trkpt><trkpt lat="41.57789077624546" lon="2.1874078327220525"><ele>137.0</ele><time>2026-04-02T14:51:17.001Z</time></trkpt><trkpt lat="41.578071428278626" lon="2.1874245235717904"><ele>137.0</ele><time>2026-04-02T14:51:18.001Z</time></trkpt><trkpt lat="41.57825025173161" lon="2.187444856317615"><ele>137.0</ele><time>2026-04-02T14:51:19.001Z</time></trkpt><trkpt lat="41.57843215471158" lon="2.187463115457248"><ele>137.0</ele><time>2026-04-02T14:51:20.001Z</time></trkpt><trkpt lat="41.578620107220004" lon="2.187487947565152"><ele>137.0</ele><time>2026-04-02T14:51:21.001Z</time></trkpt><trkpt lat="41.57880052259666" lon="2.187510102437326"><ele>137.0</ele><time>2026-04-02T14:51:22.001Z</time></trkpt><trkpt lat="41.57897855826472" lon="2.1875352725911648"><ele>138.66666666666666</ele><time>2026-04-02T14:51:23.001Z</time></trkpt><trkpt lat="41.579153670148315" lon="2.18756160283134"><ele>140.33333333333334</ele><time>2026-04-02T14:51:24.001Z</time></trkpt><trkpt lat="41.57933062369787" lon="2.187586972294261"><ele>142.0</ele><time>2026-04-02T14:51:25.001Z</time></trkpt><trkpt lat="41.579513240249604" lon="2.187612232399622"><ele>141.33333333333334</ele><time>2026-04-02T14:51:26.001Z</time></trkpt><trkpt lat="41.579694857962544" lon="2.187639128442445"><ele>140.66666666666666</ele><time>2026-04-02T14:51:27.001Z</time></trkpt><trkpt lat="41.57987995321408" lon="2.1876665135355933"><ele>140.0</ele><time>2026-04-02T14:51:28.001Z</time></trkpt><trkpt lat="41.58006678282519" lon="2.187696247417985"><ele>140.0</ele><time>2026-04-02T14:51:29.001Z</time></trkpt><trkpt lat="41.58025038527694" lon="2.1877296141367886"><ele>140.0</ele><time>2026-04-02T14:51:30.001Z</time></trkpt><trkpt lat="41.580434610638015" lon="2.1877604742977517"><ele>140.0</ele><time>2026-04-02T14:51:31Z</time></trkpt><trkpt lat="41.58061609787361" lon="2.1877915116081113"><ele>139.66666666666666</ele><time>2026-04-02T14:51:32Z</time></trkpt><trkpt lat="41.58079305508442" lon="2.187821062544379"><ele>139.33333333333334</ele><time>2026-04-02T14:51:33Z</time></trkpt><trkpt lat="41.580967744405505" lon="2.1878402269894113"><ele>139.0</ele><time>2026-04-02T14:51:34Z</time></trkpt><trkpt lat="41.58114777644732" lon="2.187856965164346"><ele>139.0</ele><time>2026-04-02T14:51:35Z</time></trkpt><trkpt lat="41.58132059970574" lon="2.1878750287401476"><ele>139.0</ele><time>2026-04-02T14:51:36Z</time></trkpt><trkpt lat="41.58149644453903" lon="2.1879042470775865"><ele>139.0</ele><time>2026-04-02T14:51:37Z</time></trkpt><trkpt lat="41.581672174966265" lon="2.187921328777235"><ele>139.0</ele><time>2026-04-02T14:51:38Z</time></trkpt><trkpt lat="41.58184926693768" lon="2.1879395487459496"><ele>139.0</ele><time>2026-04-02T14:51:39Z</time></trkpt><trkpt lat="41.58202767305857" lon="2.187954175571185"><ele>139.0</ele><time>2026-04-02T14:51:40Z</time></trkpt><trkpt lat="41.58220836583265" lon="2.187966259264425"><ele>140.33333333333334</ele><time>2026-04-02T14:51:41Z</time></trkpt><trkpt lat="41.582391481841746" lon="2.1879756549167917"><ele>141.66666666666666</ele><time>2026-04-02T14:51:42Z</time></trkpt><trkpt lat="41.58257769639347" lon="2.1879881693572645"><ele>143.0</ele><time>2026-04-02T14:51:43Z</time></trkpt><trkpt lat="41.582763886781116" lon="2.187995075160709"><ele>143.0</ele><time>2026-04-02T14:51:44Z</time></trkpt><trkpt lat="41.582951055667145" lon="2.1879984465034044"><ele>143.0</ele><time>2026-04-02T14:51:45Z</time></trkpt><trkpt lat="41.58313875015808" lon="2.188002306712928"><ele>143.0</ele><time>2026-04-02T14:51:46Z</time></trkpt><trkpt lat="41.58333180575642" lon="2.1880020682079193"><ele>143.0</ele><time>2026-04-02T14:51:47Z</time></trkpt><trkpt lat="41.58353113938382" lon="2.18800181469952"><ele>143.0</ele><time>2026-04-02T14:51:48Z</time></trkpt><trkpt lat="41.58373446274108" lon="2.1879995221848274"><ele>143.0</ele><time>2026-04-02T14:51:49.001Z</time></trkpt><trkpt lat="41.58393874384651" lon="2.1879951595404408"><ele>142.66666666666666</ele><time>2026-04-02T14:51:50.001Z</time></trkpt><trkpt lat="41.58414504174059" lon="2.1879915428851895"><ele>142.33333333333334</ele><time>2026-04-02T14:51:51.001Z</time></trkpt><trkpt lat="41.584352715618564" lon="2.1879792689871627"><ele>142.0</ele><time>2026-04-02T14:51:52.001Z</time></trkpt><trkpt lat="41.584558581254655" lon="2.187968553671609"><ele>141.33333333333334</ele><time>2026-04-02T14:51:53.001Z</time></trkpt><trkpt lat="41.584767860687826" lon="2.1879513583554395"><ele>140.66666666666666</ele><time>2026-04-02T14:51:54.001Z</time></trkpt><trkpt lat="41.58497264828621" lon="2.187936699565037"><ele>140.0</ele><time>2026-04-02T14:51:55.001Z</time></trkpt><trkpt lat="41.585178640518315" lon="2.1879181610181146"><ele>142.33333333333331</ele><time>2026-04-02T14:51:56.001Z</time></trkpt><trkpt lat="41.585388205112686" lon="2.1878923740478458"><ele>144.66666666666666</ele><time>2026-04-02T14:51:57.001Z</time></trkpt><trkpt lat="41.58559700879836" lon="2.1878672767393095"><ele>147.0</ele><time>2026-04-02T14:51:58.001Z</time></trkpt><trkpt lat="41.585802615412554" lon="2.187845663116196"><ele>147.0</ele><time>2026-04-02T14:51:59.001Z</time></trkpt><trkpt lat="41.586015286875465" lon="2.1878226728625445"><ele>147.0</ele><time>2026-04-02T14:52:00.001Z</time></trkpt><trkpt lat="41.58621690623504" lon="2.187795383405776"><ele>147.0</ele><time>2026-04-02T14:52:01.001Z</time></trkpt><trkpt lat="41.586419917155325" lon="2.1877662793322856"><ele>148.0</ele><time>2026-04-02T14:52:02.001Z</time></trkpt><trkpt lat="41.58661867148701" lon="2.1877367710632436"><ele>149.0</ele><time>2026-04-02T14:52:03.001Z</time></trkpt><trkpt lat="41.58681822552812" lon="2.1877001242421685"><ele>150.0</ele><time>2026-04-02T14:52:04.001Z</time></trkpt><trkpt lat="41.58700737402745" lon="2.1876662247366556"><ele>150.33333333333334</ele><time>2026-04-02T14:52:05.001Z</time></trkpt><trkpt lat="41.58719012893512" lon="2.1876309022168225"><ele>150.66666666666669</ele><time>2026-04-02T14:52:06.001Z</time></trkpt><trkpt lat="41.587368285199666" lon="2.187589014171035"><ele>151.0</ele><time>2026-04-02T14:52:07.001Z</time></trkpt><trkpt lat="41.58754815252816" lon="2.1875508381108966"><ele>151.0</ele><time>2026-04-02T14:52:08.001Z</time></trkpt><trkpt lat="41.58772636255865" lon="2.1875116796117107"><ele>151.0</ele><time>2026-04-02T14:52:09.001Z</time></trkpt><trkpt lat="41.58790883758678" lon="2.1874673503921187"><ele>151.0</ele><time>2026-04-02T14:52:10.001Z</time></trkpt><trkpt lat="41.58808886478271" lon="2.1874243672815976"><ele>149.66666666666669</ele><time>2026-04-02T14:52:11.001Z</time></trkpt><trkpt lat="41.58826770264911" lon="2.187380233944416"><ele>148.33333333333334</ele><time>2026-04-02T14:52:12.001Z</time></trkpt><trkpt lat="41.588442416872645" lon="2.1873311529541066"><ele>147.0</ele><time>2026-04-02T14:52:13.001Z</time></trkpt><trkpt lat="41.58862281724852" lon="2.187281579084981"><ele>148.66666666666666</ele><time>2026-04-02T14:52:14.001Z</time></trkpt><trkpt lat="41.58880090895964" lon="2.1872278921814585"><ele>150.33333333333331</ele><time>2026-04-02T14:52:15.001Z</time></trkpt><trkpt lat="41.58897639244368" lon="2.187173761344516"><ele>152.0</ele><time>2026-04-02T14:52:16.001Z</time></trkpt><trkpt lat="41.58915539327341" lon="2.1871172426658236"><ele>152.0</ele><time>2026-04-02T14:52:17.001Z</time></trkpt><trkpt lat="41.589332671422675" lon="2.187059797093434"><ele>152.0</ele><time>2026-04-02T14:52:18.001Z</time></trkpt><trkpt lat="41.589506686027356" lon="2.187000589250051"><ele>152.0</ele><time>2026-04-02T14:52:19.001Z</time></trkpt><trkpt lat="41.589681471807204" lon="2.186941814114757"><ele>152.0</ele><time>2026-04-02T14:52:20.001Z</time></trkpt><trkpt lat="41.589860895915514" lon="2.1868807324206414"><ele>152.0</ele><time>2026-04-02T14:52:21.001Z</time></trkpt><trkpt lat="41.59002860073429" lon="2.1868223955814066"><ele>152.0</ele><time>2026-04-02T14:52:22.001Z</time></trkpt><trkpt lat="41.590194813061046" lon="2.1867631476812655"><ele>152.66666666666666</ele><time>2026-04-02T14:52:23.001Z</time></trkpt><trkpt lat="41.59034739539267" lon="2.186706373025303"><ele>153.33333333333334</ele><time>2026-04-02T14:52:24.001Z</time></trkpt><trkpt lat="41.590498416514684" lon="2.186648282591173"><ele>154.0</ele><time>2026-04-02T14:52:25.001Z</time></trkpt><trkpt lat="41.590646957282054" lon="2.186587543132373"><ele>154.0</ele><time>2026-04-02T14:52:26.001Z</time></trkpt><trkpt lat="41.59079599592371" lon="2.186530707682442"><ele>154.0</ele><time>2026-04-02T14:52:27.001Z</time></trkpt><trkpt lat="41.59094165837857" lon="2.1864717065644266"><ele>154.0</ele><time>2026-04-02T14:52:28.001Z</time></trkpt><trkpt lat="41.59108556054908" lon="2.186409502843494"><ele>155.0</ele><time>2026-04-02T14:52:29.001Z</time></trkpt><trkpt lat="41.59122744252647" lon="2.186349363208577"><ele>156.0</ele><time>2026-04-02T14:52:30.001Z</time></trkpt><trkpt lat="41.59137172183895" lon="2.1862897859871877"><ele>157.0</ele><time>2026-04-02T14:52:31.001Z</time></trkpt><trkpt lat="41.59151604561829" lon="2.186225833508916"><ele>157.0</ele><time>2026-04-02T14:52:32.001Z</time></trkpt><trkpt lat="41.59166081259271" lon="2.186158550971159"><ele>157.0</ele><time>2026-04-02T14:52:33.001Z</time></trkpt><trkpt lat="41.591799387640926" lon="2.186089326765354"><ele>157.0</ele><time>2026-04-02T14:52:34.001Z</time></trkpt><trkpt lat="41.59194216915747" lon="2.1860213106979542"><ele>157.25</ele><time>2026-04-02T14:52:35.001Z</time></trkpt><trkpt lat="41.59208341702117" lon="2.1859534584921367"><ele>157.5</ele><time>2026-04-02T14:52:36.001Z</time></trkpt><trkpt lat="41.59221927418031" lon="2.18588970724497"><ele>157.75</ele><time>2026-04-02T14:52:37.001Z</time></trkpt><trkpt lat="41.59234793893316" lon="2.185820320455507"><ele>158.0</ele><time>2026-04-02T14:52:38.001Z</time></trkpt><trkpt lat="41.59248903549683" lon="2.185752536903963"><ele>158.0</ele><time>2026-04-02T14:52:39.001Z</time></trkpt><trkpt lat="41.59262913094614" lon="2.1856871727674085"><ele>158.0</ele><time>2026-04-02T14:52:40.001Z</time></trkpt><trkpt lat="41.59276654253033" lon="2.185615754845289"><ele>158.0</ele><time>2026-04-02T14:52:41.001Z</time></trkpt><trkpt lat="41.592904406353135" lon="2.185539084800623"><ele>158.0</ele><time>2026-04-02T14:52:42.001Z</time></trkpt><trkpt lat="41.59304828312937" lon="2.1854613061806365"><ele>160.33333333333331</ele><time>2026-04-02T14:52:43.001Z</time></trkpt><trkpt lat="41.59319328499975" lon="2.1853812901773817"><ele>162.66666666666666</ele><time>2026-04-02T14:52:44.001Z</time></trkpt><trkpt lat="41.59333894376883" lon="2.1852992443914068"><ele>165.0</ele><time>2026-04-02T14:52:45.001Z</time></trkpt><trkpt lat="41.593487444758956" lon="2.185213270120994"><ele>165.0</ele><time>2026-04-02T14:52:46.001Z</time></trkpt><trkpt lat="41.59363178655525" lon="2.1851225436217954"><ele>165.0</ele><time>2026-04-02T14:52:47.001Z</time></trkpt><trkpt lat="41.59377092587857" lon="2.185034989814303"><ele>165.0</ele><time>2026-04-02T14:52:48.001Z</time></trkpt><trkpt lat="41.59389999294757" lon="2.184946599945272"><ele>167.0</ele><time>2026-04-02T14:52:49.001Z</time></trkpt><trkpt lat="41.594033762930415" lon="2.184860999237081"><ele>169.0</ele><time>2026-04-02T14:52:50.001Z</time></trkpt><trkpt lat="41.59416885637109" lon="2.1847659465643843"><ele>171.0</ele><time>2026-04-02T14:52:51.001Z</time></trkpt><trkpt lat="41.594327252689574" lon="2.18466127176003"><ele>172.0</ele><time>2026-04-02T14:52:52.001Z</time></trkpt><trkpt lat="41.59450412723703" lon="2.1845455488577774"><ele>173.0</ele><time>2026-04-02T14:52:53.021Z</time></trkpt><trkpt lat="41.594667223118776" lon="2.184429463067183"><ele>174.0</ele><time>2026-04-02T14:52:54.022Z</time></trkpt><trkpt lat="41.594827616697835" lon="2.1843437113321946"><ele>175.66666666666666</ele><time>2026-04-02T14:52:55.017Z</time></trkpt><trkpt lat="41.59498394727006" lon="2.1842391864902564"><ele>177.33333333333331</ele><time>2026-04-02T14:52:56.017Z</time></trkpt><trkpt lat="41.59515098474693" lon="2.184127502878263"><ele>179.0</ele><time>2026-04-02T14:52:57.023Z</time></trkpt><trkpt lat="41.59530512915614" lon="2.1840246969906563"><ele>177.66666666666666</ele><time>2026-04-02T14:52:58.019Z</time></trkpt><trkpt lat="41.59545310887273" lon="2.1839266211312154"><ele>176.33333333333334</ele><time>2026-04-02T14:52:59.02Z</time></trkpt><trkpt lat="41.595594042415975" lon="2.18382607050181"><ele>175.0</ele><time>2026-04-02T14:53:00.001Z</time></trkpt><trkpt lat="41.5957380097731" lon="2.1837196670698273"><ele>175.0</ele><time>2026-04-02T14:53:01.001Z</time></trkpt><trkpt lat="41.59589625323819" lon="2.183586380488487"><ele>175.0</ele><time>2026-04-02T14:53:02.001Z</time></trkpt><trkpt lat="41.596049753202095" lon="2.1835114821984445"><ele>175.0</ele><time>2026-04-02T14:53:03.001Z</time></trkpt><trkpt lat="41.59619859720025" lon="2.1834215532098047"><ele>175.33333333333334</ele><time>2026-04-02T14:53:04.001Z</time></trkpt><trkpt lat="41.59633847034878" lon="2.183306901377065"><ele>175.66666666666666</ele><time>2026-04-02T14:53:05.001Z</time></trkpt><trkpt lat="41.59648211724794" lon="2.183170027473693"><ele>176.0</ele><time>2026-04-02T14:53:06.001Z</time></trkpt><trkpt lat="41.59662794662017" lon="2.1830466425550368"><ele>175.33333333333331</ele><time>2026-04-02T14:53:07.001Z</time></trkpt><trkpt lat="41.596771313150875" lon="2.182936013136236"><ele>174.66666666666666</ele><time>2026-04-02T14:53:08.001Z</time></trkpt><trkpt lat="41.596915097871076" lon="2.18282898591215"><ele>174.0</ele><time>2026-04-02T14:53:09.001Z</time></trkpt><trkpt lat="41.59706385974062" lon="2.182715522575492"><ele>174.0</ele><time>2026-04-02T14:53:10.001Z</time></trkpt><trkpt lat="41.59722073126031" lon="2.182594263811889"><ele>174.0</ele><time>2026-04-02T14:53:11.001Z</time></trkpt><trkpt lat="41.597372964157756" lon="2.182487628324104"><ele>174.0</ele><time>2026-04-02T14:53:12.001Z</time></trkpt><trkpt lat="41.597520801674854" lon="2.182378697413365"><ele>172.0</ele><time>2026-04-02T14:53:13.001Z</time></trkpt><trkpt lat="41.59767465052133" lon="2.1822684800834296"><ele>170.0</ele><time>2026-04-02T14:53:14.001Z</time></trkpt><trkpt lat="41.597834178546954" lon="2.182165798895846"><ele>168.0</ele><time>2026-04-02T14:53:15.001Z</time></trkpt><trkpt lat="41.597997948362284" lon="2.1820633835601204"><ele>165.66666666666666</ele><time>2026-04-02T14:53:16.001Z</time></trkpt><trkpt lat="41.598156926817786" lon="2.1819649120026448"><ele>163.33333333333331</ele><time>2026-04-02T14:53:17.001Z</time></trkpt><trkpt lat="41.59830398928742" lon="2.1818642035228257"><ele>161.0</ele><time>2026-04-02T14:53:18.001Z</time></trkpt><trkpt lat="41.598454763393654" lon="2.1817442106077793"><ele>161.0</ele><time>2026-04-02T14:53:19.001Z</time></trkpt><trkpt lat="41.59858934981263" lon="2.181577541772692"><ele>161.0</ele><time>2026-04-02T14:53:20.001Z</time></trkpt><trkpt lat="41.59870621697448" lon="2.1814050865210675"><ele>161.0</ele><time>2026-04-02T14:53:21.001Z</time></trkpt><trkpt lat="41.59880635292807" lon="2.1812357769678132"><ele>160.66666666666666</ele><time>2026-04-02T14:53:22.001Z</time></trkpt><trkpt lat="41.598892233396334" lon="2.181067308846528"><ele>160.33333333333334</ele><time>2026-04-02T14:53:23.001Z</time></trkpt><trkpt lat="41.59898332209528" lon="2.1808983933946475"><ele>160.0</ele><time>2026-04-02T14:53:24.001Z</time></trkpt><trkpt lat="41.59906964771893" lon="2.18073480426929"><ele>158.0</ele><time>2026-04-02T14:53:25.001Z</time></trkpt><trkpt lat="41.599169071075316" lon="2.1805787120526965"><ele>156.0</ele><time>2026-04-02T14:53:26.001Z</time></trkpt><trkpt lat="41.59930267161133" lon="2.1804559618298742"><ele>154.0</ele><time>2026-04-02T14:53:27.001Z</time></trkpt><trkpt lat="41.59946576754376" lon="2.18037941896935"><ele>154.0</ele><time>2026-04-02T14:53:28.001Z</time></trkpt><trkpt lat="41.59961593609853" lon="2.1803497588808023"><ele>154.0</ele><time>2026-04-02T14:53:29.001Z</time></trkpt><trkpt lat="41.59976433110646" lon="2.180336371938996"><ele>154.0</ele><time>2026-04-02T14:53:30.001Z</time></trkpt><trkpt lat="41.59991207650777" lon="2.180323184468182"><ele>154.0</ele><time>2026-04-02T14:53:31.001Z</time></trkpt><trkpt lat="41.60005992284464" lon="2.1803052723318843"><ele>154.0</ele><time>2026-04-02T14:53:32.001Z</time></trkpt><trkpt lat="41.6002103859626" lon="2.1802855440764297"><ele>154.0</ele><time>2026-04-02T14:53:33.001Z</time></trkpt><trkpt lat="41.60036646257034" lon="2.180261404904009"><ele>154.0</ele><time>2026-04-02T14:53:34.001Z</time></trkpt><trkpt lat="41.60051161993745" lon="2.1802315545283286"><ele>153.75</ele><time>2026-04-02T14:53:35.001Z</time></trkpt><trkpt lat="41.600656650165085" lon="2.180218356186289"><ele>153.5</ele><time>2026-04-02T14:53:36.001Z</time></trkpt><trkpt lat="41.600807033895805" lon="2.1802087120721074"><ele>153.25</ele><time>2026-04-02T14:53:37.001Z</time></trkpt><trkpt lat="41.60095966217131" lon="2.1801956713111887"><ele>153.0</ele><time>2026-04-02T14:53:38.001Z</time></trkpt><trkpt lat="41.60111321338024" lon="2.180178530661768"><ele>153.33333333333334</ele><time>2026-04-02T14:53:39.001Z</time></trkpt><trkpt lat="41.60127035922325" lon="2.1801657124876233"><ele>153.66666666666669</ele><time>2026-04-02T14:53:40.001Z</time></trkpt><trkpt lat="41.601427757177724" lon="2.180150340516945"><ele>154.0</ele><time>2026-04-02T14:53:41.001Z</time></trkpt><trkpt lat="41.601583495086764" lon="2.1801390247749395"><ele>154.0</ele><time>2026-04-02T14:53:42.001Z</time></trkpt><trkpt lat="41.601744662180224" lon="2.180128559799846"><ele>154.0</ele><time>2026-04-02T14:53:43.001Z</time></trkpt><trkpt lat="41.60190379942075" lon="2.180118254491632"><ele>154.0</ele><time>2026-04-02T14:53:44.001Z</time></trkpt><trkpt lat="41.60206529912445" lon="2.180103876651001"><ele>154.25</ele><time>2026-04-02T14:53:45.001Z</time></trkpt><trkpt lat="41.60222272203583" lon="2.180093691343012"><ele>154.5</ele><time>2026-04-02T14:53:46.001Z</time></trkpt><trkpt lat="41.602363221086364" lon="2.1800868438980983"><ele>154.75</ele><time>2026-04-02T14:53:47.001Z</time></trkpt><trkpt lat="41.6024835225813" lon="2.18007975092063"><ele>155.0</ele><time>2026-04-02T14:53:48.001Z</time></trkpt><trkpt lat="41.60259521611753" lon="2.1800730994066506"><ele>155.0</ele><time>2026-04-02T14:53:49.001Z</time></trkpt><trkpt lat="41.602703460803475" lon="2.180064205425185"><ele>155.0</ele><time>2026-04-02T14:53:50.001Z</time></trkpt><trkpt lat="41.60281686707234" lon="2.180050907350109"><ele>155.0</ele><time>2026-04-02T14:53:51.001Z</time></trkpt><trkpt lat="41.602932548304054" lon="2.1800382071565525"><ele>155.0</ele><time>2026-04-02T14:53:52.001Z</time></trkpt><trkpt lat="41.60305107097147" lon="2.180027900596421"><ele>155.2</ele><time>2026-04-02T14:53:53.001Z</time></trkpt><trkpt lat="41.60316436202578" lon="2.1800150949595025"><ele>155.4</ele><time>2026-04-02T14:53:54.001Z</time></trkpt><trkpt lat="41.60327749502836" lon="2.180004377914675"><ele>155.6</ele><time>2026-04-02T14:53:55.001Z</time></trkpt><trkpt lat="41.60338976174556" lon="2.179995309051809"><ele>155.8</ele><time>2026-04-02T14:53:56.001Z</time></trkpt><trkpt lat="41.603493480838395" lon="2.1799874041708023"><ele>156.0</ele><time>2026-04-02T14:53:57.001Z</time></trkpt><trkpt lat="41.60359633798218" lon="2.1799803903861004"><ele>156.75</ele><time>2026-04-02T14:53:58.001Z</time></trkpt><trkpt lat="41.603705865637366" lon="2.1799723248509184"><ele>157.5</ele><time>2026-04-02T14:53:59.001Z</time></trkpt><trkpt lat="41.60382184683111" lon="2.179962874818894"><ele>158.25</ele><time>2026-04-02T14:54:00.001Z</time></trkpt><trkpt lat="41.603940770617" lon="2.179949636677158"><ele>159.0</ele><time>2026-04-02T14:54:01.001Z</time></trkpt><trkpt lat="41.60406358403376" lon="2.1799410359352485"><ele>159.0</ele><time>2026-04-02T14:54:02.001Z</time></trkpt><trkpt lat="41.604183004237875" lon="2.1799315207527368"><ele>159.0</ele><time>2026-04-02T14:54:03.001Z</time></trkpt><trkpt lat="41.60430647423049" lon="2.17992575404559"><ele>159.0</ele><time>2026-04-02T14:54:04.001Z</time></trkpt><trkpt lat="41.60442868768906" lon="2.1799191227087955"><ele>159.0</ele><time>2026-04-02T14:54:05.001Z</time></trkpt><trkpt lat="41.60455147763905" lon="2.17990874479121"><ele>159.25</ele><time>2026-04-02T14:54:06.001Z</time></trkpt><trkpt lat="41.604672887727084" lon="2.1798946479346455"><ele>159.5</ele><time>2026-04-02T14:54:07.001Z</time></trkpt><trkpt lat="41.60480235096548" lon="2.1798806584132766"><ele>159.75</ele><time>2026-04-02T14:54:08.001Z</time></trkpt><trkpt lat="41.604934837524226" lon="2.179866915376178"><ele>160.0</ele><time>2026-04-02T14:54:09.001Z</time></trkpt><trkpt lat="41.605069614322375" lon="2.1798551252475975"><ele>159.5</ele><time>2026-04-02T14:54:10.001Z</time></trkpt><trkpt lat="41.60520574095858" lon="2.179841737155542"><ele>159.0</ele><time>2026-04-02T14:54:11.001Z</time></trkpt><trkpt lat="41.60533528726321" lon="2.1798302078520506"><ele>158.5</ele><time>2026-04-02T14:54:12.001Z</time></trkpt><trkpt lat="41.6054654331372" lon="2.179819121964885"><ele>158.0</ele><time>2026-04-02T14:54:13.001Z</time></trkpt><trkpt lat="41.60559633033288" lon="2.179806058254825"><ele>159.5</ele><time>2026-04-02T14:54:14.001Z</time></trkpt><trkpt lat="41.60571809420491" lon="2.1797965974192586"><ele>161.0</ele><time>2026-04-02T14:54:15.001Z</time></trkpt><trkpt lat="41.60583619617946" lon="2.1797893361185703"><ele>162.5</ele><time>2026-04-02T14:54:16.001Z</time></trkpt><trkpt lat="41.605959024957244" lon="2.179782342398362"><ele>164.0</ele><time>2026-04-02T14:54:17.001Z</time></trkpt><trkpt lat="41.60608197148112" lon="2.1797717837128574"><ele>165.25</ele><time>2026-04-02T14:54:18.001Z</time></trkpt><trkpt lat="41.60620400561161" lon="2.179761019371989"><ele>166.5</ele><time>2026-04-02T14:54:19.001Z</time></trkpt><trkpt lat="41.60632607522027" lon="2.1797493656616926"><ele>167.75</ele><time>2026-04-02T14:54:20.001Z</time></trkpt><trkpt lat="41.60645174933062" lon="2.1797344124852964"><ele>169.0</ele><time>2026-04-02T14:54:21.001Z</time></trkpt><trkpt lat="41.606584870072375" lon="2.1797214647079013"><ele>169.0</ele><time>2026-04-02T14:54:22.001Z</time></trkpt><trkpt lat="41.60672197355575" lon="2.179708427083285"><ele>169.0</ele><time>2026-04-02T14:54:23.001Z</time></trkpt><trkpt lat="41.60686020244581" lon="2.179697434726751"><ele>169.0</ele><time>2026-04-02T14:54:24.001Z</time></trkpt><trkpt lat="41.60700260648659" lon="2.179681956367774"><ele>169.0</ele><time>2026-04-02T14:54:25.001Z</time></trkpt><trkpt lat="41.60714283725717" lon="2.1796683346866814"><ele>169.25</ele><time>2026-04-02T14:54:26.001Z</time></trkpt><trkpt lat="41.60728391350087" lon="2.179658658923309"><ele>169.5</ele><time>2026-04-02T14:54:27.001Z</time></trkpt><trkpt lat="41.60742505825953" lon="2.179647811783235"><ele>169.75</ele><time>2026-04-02T14:54:28.001Z</time></trkpt><trkpt lat="41.60756873916358" lon="2.1796377971296783"><ele>170.0</ele><time>2026-04-02T14:54:29.001Z</time></trkpt><trkpt lat="41.60771255906383" lon="2.1796280017495064"><ele>171.0</ele><time>2026-04-02T14:54:30.001Z</time></trkpt><trkpt lat="41.60785584117042" lon="2.179616338439693"><ele>172.0</ele><time>2026-04-02T14:54:31.001Z</time></trkpt><trkpt lat="41.6080004036564" lon="2.179603521627676"><ele>173.0</ele><time>2026-04-02T14:54:32.001Z</time></trkpt><trkpt lat="41.60814462454634" lon="2.1795903762559075"><ele>174.0</ele><time>2026-04-02T14:54:33.001Z</time></trkpt><trkpt lat="41.60829109214977" lon="2.1795759165145467"><ele>174.0</ele><time>2026-04-02T14:54:34.001Z</time></trkpt><trkpt lat="41.60843903630686" lon="2.179565985696187"><ele>174.0</ele><time>2026-04-02T14:54:35.001Z</time></trkpt><trkpt lat="41.60858438341245" lon="2.1795549492100137"><ele>174.0</ele><time>2026-04-02T14:54:36.001Z</time></trkpt><trkpt lat="41.60872732348976" lon="2.1795397793730977"><ele>174.0</ele><time>2026-04-02T14:54:37.001Z</time></trkpt><trkpt lat="41.60886799286059" lon="2.1795271548265718"><ele>175.0</ele><time>2026-04-02T14:54:38.001Z</time></trkpt><trkpt lat="41.60901615999562" lon="2.1795131712521743"><ele>176.0</ele><time>2026-04-02T14:54:39.001Z</time></trkpt><trkpt lat="41.60916120714051" lon="2.179503426521357"><ele>177.0</ele><time>2026-04-02T14:54:40.001Z</time></trkpt><trkpt lat="41.60930960176214" lon="2.1794907846903557"><ele>178.0</ele><time>2026-04-02T14:54:41.001Z</time></trkpt><trkpt lat="41.6094558081005" lon="2.179475810011433"><ele>177.75</ele><time>2026-04-02T14:54:42.001Z</time></trkpt><trkpt lat="41.609598625296265" lon="2.179462727796152"><ele>177.5</ele><time>2026-04-02T14:54:43.001Z</time></trkpt><trkpt lat="41.60973570516304" lon="2.1794500511204338"><ele>177.25</ele><time>2026-04-02T14:54:44.001Z</time></trkpt><trkpt lat="41.60987729355012" lon="2.17943841062842"><ele>177.0</ele><time>2026-04-02T14:54:45.001Z</time></trkpt><trkpt lat="41.61001759038326" lon="2.1794270440499837"><ele>177.0</ele><time>2026-04-02T14:54:46.001Z</time></trkpt><trkpt lat="41.610153410258434" lon="2.179415556012298"><ele>177.0</ele><time>2026-04-02T14:54:47.001Z</time></trkpt><trkpt lat="41.61029373686668" lon="2.179404675952123"><ele>177.0</ele><time>2026-04-02T14:54:48.001Z</time></trkpt><trkpt lat="41.61043706027677" lon="2.1793921419552036"><ele>177.0</ele><time>2026-04-02T14:54:49.001Z</time></trkpt><trkpt lat="41.610586980297434" lon="2.179378013891934"><ele>176.66666666666666</ele><time>2026-04-02T14:54:50.001Z</time></trkpt><trkpt lat="41.610738553106714" lon="2.179365548198219"><ele>176.33333333333331</ele><time>2026-04-02T14:54:51.001Z</time></trkpt><trkpt lat="41.61089224117695" lon="2.1793508646318003"><ele>176.0</ele><time>2026-04-02T14:54:52.001Z</time></trkpt><trkpt lat="41.61104466636854" lon="2.1793361983581256"><ele>176.0</ele><time>2026-04-02T14:54:53.001Z</time></trkpt><trkpt lat="41.61119343531815" lon="2.1793226770996728"><ele>176.0</ele><time>2026-04-02T14:54:54.001Z</time></trkpt><trkpt lat="41.611342113021905" lon="2.179306247831382"><ele>176.0</ele><time>2026-04-02T14:54:55.001Z</time></trkpt><trkpt lat="41.611496737412246" lon="2.179284460050339"><ele>176.0</ele><time>2026-04-02T14:54:56.001Z</time></trkpt><trkpt lat="41.611651276329766" lon="2.179262753201586"><ele>176.0</ele><time>2026-04-02T14:54:57.001Z</time></trkpt><trkpt lat="41.611809119007965" lon="2.179243251509488"><ele>176.0</ele><time>2026-04-02T14:54:58.001Z</time></trkpt><trkpt lat="41.61196949408748" lon="2.179217998227863"><ele>176.66666666666666</ele><time>2026-04-02T14:54:59.001Z</time></trkpt><trkpt lat="41.61211738609005" lon="2.1791954925817603"><ele>177.33333333333334</ele><time>2026-04-02T14:55:00.001Z</time></trkpt><trkpt lat="41.61227153274967" lon="2.1791724248900333"><ele>178.0</ele><time>2026-04-02T14:55:01.001Z</time></trkpt><trkpt lat="41.6124310732379" lon="2.179149808627218"><ele>178.0</ele><time>2026-04-02T14:55:02.001Z</time></trkpt><trkpt lat="41.61258802198362" lon="2.179128037375339"><ele>178.0</ele><time>2026-04-02T14:55:03.001Z</time></trkpt><trkpt lat="41.612740397542034" lon="2.179105087600158"><ele>178.0</ele><time>2026-04-02T14:55:04.001Z</time></trkpt><trkpt lat="41.61288795941184" lon="2.1790795477543625"><ele>178.0</ele><time>2026-04-02T14:55:05.001Z</time></trkpt><trkpt lat="41.61303959137117" lon="2.1790543597308796"><ele>178.0</ele><time>2026-04-02T14:55:06.001Z</time></trkpt><trkpt lat="41.613197509235086" lon="2.17902820126074"><ele>178.0</ele><time>2026-04-02T14:55:07.001Z</time></trkpt><trkpt lat="41.613355598984775" lon="2.1790014729804192"><ele>176.0</ele><time>2026-04-02T14:55:08.001Z</time></trkpt><trkpt lat="41.61351178490342" lon="2.1789702347984483"><ele>174.0</ele><time>2026-04-02T14:55:09.001Z</time></trkpt><trkpt lat="41.61366617546373" lon="2.1789302784915368"><ele>172.0</ele><time>2026-04-02T14:55:10.001Z</time></trkpt><trkpt lat="41.61381986131213" lon="2.178888264250168"><ele>172.0</ele><time>2026-04-02T14:55:11.001Z</time></trkpt><trkpt lat="41.61398068053886" lon="2.1788338760000427"><ele>172.0</ele><time>2026-04-02T14:55:12.001Z</time></trkpt><trkpt lat="41.61414209917946" lon="2.17877356331369"><ele>172.0</ele><time>2026-04-02T14:55:13.001Z</time></trkpt><trkpt lat="41.614302701515996" lon="2.178715069688353"><ele>172.0</ele><time>2026-04-02T14:55:14.001Z</time></trkpt><trkpt lat="41.61445827867073" lon="2.1786601682265303"><ele>172.0</ele><time>2026-04-02T14:55:15.001Z</time></trkpt><trkpt lat="41.61461375101106" lon="2.1786037798835545"><ele>172.0</ele><time>2026-04-02T14:55:16.001Z</time></trkpt><trkpt lat="41.61477539808902" lon="2.178541574605533"><ele>173.33333333333334</ele><time>2026-04-02T14:55:17.001Z</time></trkpt><trkpt lat="41.61493193888375" lon="2.178476083228697"><ele>174.66666666666666</ele><time>2026-04-02T14:55:18.001Z</time></trkpt><trkpt lat="41.615077822762125" lon="2.1784039453222803"><ele>176.0</ele><time>2026-04-02T14:55:19.001Z</time></trkpt><trkpt lat="41.61522524595527" lon="2.178328407867854"><ele>176.33333333333331</ele><time>2026-04-02T14:55:20.001Z</time></trkpt><trkpt lat="41.61536603173214" lon="2.1782460150568346"><ele>176.66666666666666</ele><time>2026-04-02T14:55:21.001Z</time></trkpt><trkpt lat="41.61550275830167" lon="2.1781573314169975"><ele>177.0</ele><time>2026-04-02T14:55:22.001Z</time></trkpt><trkpt lat="41.61563384244076" lon="2.1780753914571145"><ele>177.0</ele><time>2026-04-02T14:55:23.001Z</time></trkpt><trkpt lat="41.61575906982206" lon="2.1779926136506056"><ele>177.0</ele><time>2026-04-02T14:55:24.001Z</time></trkpt><trkpt lat="41.615883877765235" lon="2.1779073405458655"><ele>177.0</ele><time>2026-04-02T14:55:25.001Z</time></trkpt><trkpt lat="41.61600700864055" lon="2.1778112110903867"><ele>177.0</ele><time>2026-04-02T14:55:26.001Z</time></trkpt><trkpt lat="41.61612579131481" lon="2.177711821790517"><ele>176.75</ele><time>2026-04-02T14:55:27.001Z</time></trkpt><trkpt lat="41.61624024238671" lon="2.177620518553465"><ele>176.5</ele><time>2026-04-02T14:55:28.001Z</time></trkpt><trkpt lat="41.6163511774069" lon="2.1775300100823936"><ele>176.25</ele><time>2026-04-02T14:55:29.001Z</time></trkpt><trkpt lat="41.616465107981675" lon="2.1774330127484296"><ele>176.0</ele><time>2026-04-02T14:55:30.001Z</time></trkpt><trkpt lat="41.6165789490285" lon="2.1773358093086115"><ele>176.0</ele><time>2026-04-02T14:55:31.001Z</time></trkpt><trkpt lat="41.61669080944806" lon="2.177237129027112"><ele>176.0</ele><time>2026-04-02T14:55:32.001Z</time></trkpt><trkpt lat="41.616804017623124" lon="2.1771474567289713"><ele>176.0</ele><time>2026-04-02T14:55:33.001Z</time></trkpt><trkpt lat="41.616919032285715" lon="2.1770476131200494"><ele>176.0</ele><time>2026-04-02T14:55:34.001Z</time></trkpt><trkpt lat="41.61703587911719" lon="2.1769471586530207"><ele>176.5</ele><time>2026-04-02T14:55:35.001Z</time></trkpt><trkpt lat="41.617156658692906" lon="2.1768441617470855"><ele>177.0</ele><time>2026-04-02T14:55:36.001Z</time></trkpt><trkpt lat="41.617279090044235" lon="2.1767388617794707"><ele>177.5</ele><time>2026-04-02T14:55:37.001Z</time></trkpt><trkpt lat="41.617402074843625" lon="2.1766320073557686"><ele>178.0</ele><time>2026-04-02T14:55:38.001Z</time></trkpt><trkpt lat="41.61752852453651" lon="2.1765215892496377"><ele>177.66666666666669</ele><time>2026-04-02T14:55:39.001Z</time></trkpt><trkpt lat="41.617656018152445" lon="2.1764113858222975"><ele>177.33333333333334</ele><time>2026-04-02T14:55:40.001Z</time></trkpt><trkpt lat="41.61778505936311" lon="2.1763015730441393"><ele>177.0</ele><time>2026-04-02T14:55:41.001Z</time></trkpt><trkpt lat="41.61791364297902" lon="2.176190569854361"><ele>177.66666666666666</ele><time>2026-04-02T14:55:42.001Z</time></trkpt><trkpt lat="41.61804342104587" lon="2.17607958945482"><ele>178.33333333333331</ele><time>2026-04-02T14:55:43.001Z</time></trkpt><trkpt lat="41.618173217075345" lon="2.1759655285588364"><ele>179.0</ele><time>2026-04-02T14:55:44.001Z</time></trkpt><trkpt lat="41.61830110290377" lon="2.175852041409296"><ele>179.0</ele><time>2026-04-02T14:55:45.001Z</time></trkpt><trkpt lat="41.618431273089385" lon="2.1757411178697024"><ele>179.0</ele><time>2026-04-02T14:55:46.001Z</time></trkpt><trkpt lat="41.61856178952018" lon="2.175629396669096"><ele>179.0</ele><time>2026-04-02T14:55:47.001Z</time></trkpt><trkpt lat="41.61869138919756" lon="2.175519269969551"><ele>179.0</ele><time>2026-04-02T14:55:48.001Z</time></trkpt><trkpt lat="41.61882206267981" lon="2.1754071208927104"><ele>179.0</ele><time>2026-04-02T14:55:49.001Z</time></trkpt><trkpt lat="41.61895204590251" lon="2.1752940301210324"><ele>179.0</ele><time>2026-04-02T14:55:50.001Z</time></trkpt><trkpt lat="41.61908443165454" lon="2.1751802439150736"><ele>179.0</ele><time>2026-04-02T14:55:51.001Z</time></trkpt><trkpt lat="41.61922084326706" lon="2.1750610195272557"><ele>179.0</ele><time>2026-04-02T14:55:52.001Z</time></trkpt><trkpt lat="41.619355755565444" lon="2.1749505189835383"><ele>179.0</ele><time>2026-04-02T14:55:53.001Z</time></trkpt><trkpt lat="41.61948095047762" lon="2.174842330111711"><ele>178.75</ele><time>2026-04-02T14:55:54.001Z</time></trkpt><trkpt lat="41.61960609148254" lon="2.1747343534846584"><ele>178.5</ele><time>2026-04-02T14:55:55.001Z</time></trkpt><trkpt lat="41.619725822996905" lon="2.1746344772241195"><ele>178.25</ele><time>2026-04-02T14:55:56.001Z</time></trkpt><trkpt lat="41.619838019298776" lon="2.1745339542769915"><ele>178.0</ele><time>2026-04-02T14:55:57.001Z</time></trkpt><trkpt lat="41.619951909745154" lon="2.1744377090587994"><ele>178.0</ele><time>2026-04-02T14:55:58.001Z</time></trkpt><trkpt lat="41.6200719735633" lon="2.17434202540069"><ele>178.0</ele><time>2026-04-02T14:55:59.001Z</time></trkpt><trkpt lat="41.620193370202095" lon="2.174243576630814"><ele>178.0</ele><time>2026-04-02T14:56:00.001Z</time></trkpt><trkpt lat="41.62032186047534" lon="2.1741466122130753"><ele>178.0</ele><time>2026-04-02T14:56:01.001Z</time></trkpt><trkpt lat="41.62045692342161" lon="2.1740485689239293"><ele>179.33333333333334</ele><time>2026-04-02T14:56:02.001Z</time></trkpt><trkpt lat="41.620588993233056" lon="2.173953846580754"><ele>180.66666666666666</ele><time>2026-04-02T14:56:03.001Z</time></trkpt><trkpt lat="41.62072815971935" lon="2.173862602150181"><ele>182.0</ele><time>2026-04-02T14:56:04.001Z</time></trkpt><trkpt lat="41.6208717647209" lon="2.173773581328631"><ele>182.0</ele><time>2026-04-02T14:56:05.001Z</time></trkpt><trkpt lat="41.62101873170187" lon="2.1736895195791006"><ele>182.0</ele><time>2026-04-02T14:56:06.001Z</time></trkpt><trkpt lat="41.62116756704395" lon="2.173607215009427"><ele>182.0</ele><time>2026-04-02T14:56:07.001Z</time></trkpt><trkpt lat="41.62132264112914" lon="2.1735310655901654"><ele>182.66666666666666</ele><time>2026-04-02T14:56:08.001Z</time></trkpt><trkpt lat="41.6214808396143" lon="2.173465185309349"><ele>183.33333333333334</ele><time>2026-04-02T14:56:09.001Z</time></trkpt><trkpt lat="41.62164593503859" lon="2.173406842992017"><ele>184.0</ele><time>2026-04-02T14:56:10.001Z</time></trkpt><trkpt lat="41.62181149229324" lon="2.17335946406221"><ele>184.0</ele><time>2026-04-02T14:56:11.001Z</time></trkpt><trkpt lat="41.6219816239121" lon="2.1733210631313202"><ele>184.0</ele><time>2026-04-02T14:56:12.001Z</time></trkpt><trkpt lat="41.62215325392852" lon="2.1732907418045566"><ele>184.0</ele><time>2026-04-02T14:56:13.001Z</time></trkpt><trkpt lat="41.62232694604888" lon="2.173263297283002"><ele>184.0</ele><time>2026-04-02T14:56:14.001Z</time></trkpt><trkpt lat="41.62250210168479" lon="2.1732383293764577"><ele>184.0</ele><time>2026-04-02T14:56:15.001Z</time></trkpt><trkpt lat="41.62268042436562" lon="2.1732174634255226"><ele>184.0</ele><time>2026-04-02T14:56:16.001Z</time></trkpt><trkpt lat="41.6228606223836" lon="2.17320565597057"><ele>185.0</ele><time>2026-04-02T14:56:17.001Z</time></trkpt><trkpt lat="41.623045364379664" lon="2.1732038647373435"><ele>186.0</ele><time>2026-04-02T14:56:18.001Z</time></trkpt><trkpt lat="41.62323103076398" lon="2.1732103572027524"><ele>187.0</ele><time>2026-04-02T14:56:19.001Z</time></trkpt><trkpt lat="41.62341687746635" lon="2.173224221089568"><ele>187.0</ele><time>2026-04-02T14:56:20.001Z</time></trkpt><trkpt lat="41.62359973980972" lon="2.1732418097549315"><ele>187.0</ele><time>2026-04-02T14:56:21.001Z</time></trkpt><trkpt lat="41.62378289561502" lon="2.1732711632652273"><ele>187.0</ele><time>2026-04-02T14:56:22.001Z</time></trkpt><trkpt lat="41.62396510946575" lon="2.1733135036622064"><ele>187.66666666666669</ele><time>2026-04-02T14:56:23.001Z</time></trkpt><trkpt lat="41.62414791237346" lon="2.1733715357107726"><ele>188.33333333333334</ele><time>2026-04-02T14:56:24.001Z</time></trkpt><trkpt lat="41.62433518589506" lon="2.1734338883826325"><ele>189.0</ele><time>2026-04-02T14:56:25.001Z</time></trkpt><trkpt lat="41.62452522359845" lon="2.173497127695544"><ele>191.0</ele><time>2026-04-02T14:56:26.001Z</time></trkpt><trkpt lat="41.62471399130325" lon="2.17357025366006"><ele>193.0</ele><time>2026-04-02T14:56:27.001Z</time></trkpt><trkpt lat="41.62490029847047" lon="2.173653056368249"><ele>195.0</ele><time>2026-04-02T14:56:28.001Z</time></trkpt><trkpt lat="41.62508125409367" lon="2.173739267097221"><ele>195.0</ele><time>2026-04-02T14:56:29.001Z</time></trkpt><trkpt lat="41.62525290633674" lon="2.1738250283461724"><ele>195.0</ele><time>2026-04-02T14:56:30.001Z</time></trkpt><trkpt lat="41.625426113533" lon="2.173912097861217"><ele>195.0</ele><time>2026-04-02T14:56:31.001Z</time></trkpt><trkpt lat="41.625601839131505" lon="2.1739974702544558"><ele>197.33333333333331</ele><time>2026-04-02T14:56:32.001Z</time></trkpt><trkpt lat="41.625781749807" lon="2.174086148895761"><ele>199.66666666666666</ele><time>2026-04-02T14:56:33.001Z</time></trkpt><trkpt lat="41.62596225953457" lon="2.1741719520097886"><ele>202.0</ele><time>2026-04-02T14:56:34.001Z</time></trkpt><trkpt lat="41.62614328965311" lon="2.174253169518031"><ele>203.33333333333331</ele><time>2026-04-02T14:56:35.001Z</time></trkpt><trkpt lat="41.626325810925" lon="2.1743311407351738"><ele>204.66666666666669</ele><time>2026-04-02T14:56:36.001Z</time></trkpt><trkpt lat="41.62651249467252" lon="2.1744031908106556"><ele>206.0</ele><time>2026-04-02T14:56:37.001Z</time></trkpt><trkpt lat="41.62670077093025" lon="2.1744689082284006"><ele>206.0</ele><time>2026-04-02T14:56:38.001Z</time></trkpt><trkpt lat="41.62689131742465" lon="2.1745301933671377"><ele>206.0</ele><time>2026-04-02T14:56:39.001Z</time></trkpt><trkpt lat="41.627081605118605" lon="2.174581084957239"><ele>206.0</ele><time>2026-04-02T14:56:40.001Z</time></trkpt><trkpt lat="41.627276296296124" lon="2.17462255704129"><ele>207.66666666666669</ele><time>2026-04-02T14:56:41.001Z</time></trkpt><trkpt lat="41.62747280620712" lon="2.1746567070961236"><ele>209.33333333333331</ele><time>2026-04-02T14:56:42.001Z</time></trkpt><trkpt lat="41.627674348769325" lon="2.174682469429191"><ele>211.0</ele><time>2026-04-02T14:56:43.001Z</time></trkpt><trkpt lat="41.627879222255075" lon="2.1746980274311727"><ele>212.33333333333331</ele><time>2026-04-02T14:56:44.001Z</time></trkpt><trkpt lat="41.62808565618766" lon="2.174698249539289"><ele>213.66666666666669</ele><time>2026-04-02T14:56:45.001Z</time></trkpt><trkpt lat="41.62829515369037" lon="2.174686229818243"><ele>215.0</ele><time>2026-04-02T14:56:46.001Z</time></trkpt><trkpt lat="41.62850609745723" lon="2.174669437707522"><ele>215.0</ele><time>2026-04-02T14:56:47.001Z</time></trkpt><trkpt lat="41.62871839972746" lon="2.174646937052494"><ele>215.0</ele><time>2026-04-02T14:56:48.001Z</time></trkpt><trkpt lat="41.628932054748006" lon="2.1746265697241283"><ele>215.0</ele><time>2026-04-02T14:56:49.001Z</time></trkpt><trkpt lat="41.62914919255556" lon="2.1746097230686727"><ele>215.0</ele><time>2026-04-02T14:56:50.001Z</time></trkpt><trkpt lat="41.629367549296774" lon="2.174592378281879"><ele>215.0</ele><time>2026-04-02T14:56:51.001Z</time></trkpt><trkpt lat="41.62958741198106" lon="2.1745821596900785"><ele>215.0</ele><time>2026-04-02T14:56:52.001Z</time></trkpt><trkpt lat="41.62979861550491" lon="2.174584585336451"><ele>215.33333333333334</ele><time>2026-04-02T14:56:53.001Z</time></trkpt><trkpt lat="41.630007687556365" lon="2.1745975525203702"><ele>215.66666666666669</ele><time>2026-04-02T14:56:54.001Z</time></trkpt><trkpt lat="41.63021994346629" lon="2.1746171506784076"><ele>216.0</ele><time>2026-04-02T14:56:55.001Z</time></trkpt><trkpt lat="41.630429821073974" lon="2.1746458441961645"><ele>216.66666666666669</ele><time>2026-04-02T14:56:56.001Z</time></trkpt><trkpt lat="41.63064535392561" lon="2.174677337108834"><ele>217.33333333333334</ele><time>2026-04-02T14:56:57.001Z</time></trkpt><trkpt lat="41.63087233897905" lon="2.1747066633469423"><ele>218.0</ele><time>2026-04-02T14:56:58.001Z</time></trkpt><trkpt lat="41.63107878663671" lon="2.174722837261872"><ele>218.66666666666669</ele><time>2026-04-02T14:56:59.001Z</time></trkpt><trkpt lat="41.6312794832513" lon="2.174730845583476"><ele>219.33333333333331</ele><time>2026-04-02T14:57:00.001Z</time></trkpt><trkpt lat="41.631474823154875" lon="2.1747214079254404"><ele>220.0</ele><time>2026-04-02T14:57:01.001Z</time></trkpt><trkpt lat="41.63165945360501" lon="2.1746936058382706"><ele>220.0</ele><time>2026-04-02T14:57:02.001Z</time></trkpt><trkpt lat="41.63182377604947" lon="2.174656992724029"><ele>220.0</ele><time>2026-04-02T14:57:03.001Z</time></trkpt><trkpt lat="41.63197380035179" lon="2.1746121331744157"><ele>220.0</ele><time>2026-04-02T14:57:04.001Z</time></trkpt><trkpt lat="41.63210878951934" lon="2.1745560083245046"><ele>222.0</ele><time>2026-04-02T14:57:05.001Z</time></trkpt><trkpt lat="41.632256368718544" lon="2.1745340755602736"><ele>224.0</ele><time>2026-04-02T14:57:06.001Z</time></trkpt><trkpt lat="41.63236753955818" lon="2.174393994010732"><ele>226.0</ele><time>2026-04-02T14:57:07.001Z</time></trkpt><trkpt lat="41.63246125928618" lon="2.1743315332533006"><ele>228.0</ele><time>2026-04-02T14:57:08.001Z</time></trkpt><trkpt lat="41.63254344345905" lon="2.1742888555601225"><ele>228.0</ele><time>2026-04-02T14:57:09.001Z</time></trkpt><trkpt lat="41.63262369852047" lon="2.174268558397075"><ele>228.0</ele><time>2026-04-02T14:57:10.001Z</time></trkpt><trkpt lat="41.63271800063906" lon="2.1742752400908194"><ele>228.0</ele><time>2026-04-02T14:57:11.001Z</time></trkpt><trkpt lat="41.63281385966253" lon="2.1743293545926696"><ele>228.0</ele><time>2026-04-02T14:57:12.001Z</time></trkpt><trkpt lat="41.63290940726842" lon="2.1743667335280965"><ele>228.0</ele><time>2026-04-02T14:57:13.001Z</time></trkpt><trkpt lat="41.63299581862053" lon="2.174338373680758"><ele>229.2</ele><time>2026-04-02T14:57:14.001Z</time></trkpt><trkpt lat="41.633070056611494" lon="2.174257892742462"><ele>230.4</ele><time>2026-04-02T14:57:15.001Z</time></trkpt><trkpt lat="41.63311974686497" lon="2.1741385144730327"><ele>231.59999999999997</ele><time>2026-04-02T14:57:16.001Z</time></trkpt><trkpt lat="41.633135928488855" lon="2.1739838869509396"><ele>232.79999999999998</ele><time>2026-04-02T14:57:17.001Z</time></trkpt><trkpt lat="41.6331477820464" lon="2.17380628698307"><ele>234.0</ele><time>2026-04-02T14:57:18.001Z</time></trkpt><trkpt lat="41.63319356193033" lon="2.1736308405572053"><ele>234.25</ele><time>2026-04-02T14:57:19.001Z</time></trkpt><trkpt lat="41.633269023931206" lon="2.1734720675048433"><ele>234.5</ele><time>2026-04-02T14:57:20.001Z</time></trkpt><trkpt lat="41.63335542053191" lon="2.173340283996022"><ele>234.75</ele><time>2026-04-02T14:57:21.001Z</time></trkpt><trkpt lat="41.63343026987337" lon="2.1732099436202095"><ele>235.0</ele><time>2026-04-02T14:57:22.001Z</time></trkpt><trkpt lat="41.633507121818305" lon="2.173077213840355"><ele>235.25</ele><time>2026-04-02T14:57:23.001Z</time></trkpt><trkpt lat="41.63358531156286" lon="2.172950599352894"><ele>235.5</ele><time>2026-04-02T14:57:24.001Z</time></trkpt><trkpt lat="41.63365966932529" lon="2.1728294568451085"><ele>235.75</ele><time>2026-04-02T14:57:25.001Z</time></trkpt><trkpt lat="41.633730102857136" lon="2.1727104913659843"><ele>236.0</ele><time>2026-04-02T14:57:26.001Z</time></trkpt><trkpt lat="41.63379962153" lon="2.172592963459654"><ele>237.0</ele><time>2026-04-02T14:57:27.001Z</time></trkpt><trkpt lat="41.63387338274934" lon="2.1724793548954096"><ele>238.0</ele><time>2026-04-02T14:57:28.001Z</time></trkpt><trkpt lat="41.6339477527836" lon="2.1723654694665604"><ele>239.0</ele><time>2026-04-02T14:57:29.001Z</time></trkpt><trkpt lat="41.63402303615271" lon="2.1722521097893583"><ele>240.0</ele><time>2026-04-02T14:57:30.001Z</time></trkpt><trkpt lat="41.63410276567973" lon="2.1721364612501213"><ele>240.0</ele><time>2026-04-02T14:57:31.001Z</time></trkpt><trkpt lat="41.634187860703726" lon="2.1720227341444525"><ele>240.0</ele><time>2026-04-02T14:57:32.001Z</time></trkpt><trkpt lat="41.63427801299296" lon="2.1719054568335934"><ele>240.0</ele><time>2026-04-02T14:57:33.001Z</time></trkpt><trkpt lat="41.63437518411599" lon="2.1717894132918447"><ele>240.0</ele><time>2026-04-02T14:57:34.001Z</time></trkpt><trkpt lat="41.63447996043598" lon="2.1716686109873917"><ele>242.0</ele><time>2026-04-02T14:57:35.001Z</time></trkpt><trkpt lat="41.63459284775393" lon="2.171550287380242"><ele>244.0</ele><time>2026-04-02T14:57:36.001Z</time></trkpt><trkpt lat="41.634712606594086" lon="2.1714347846501"><ele>246.0</ele><time>2026-04-02T14:57:37.001Z</time></trkpt><trkpt lat="41.63484214367518" lon="2.171324440301079"><ele>248.0</ele><time>2026-04-02T14:57:38.001Z</time></trkpt><trkpt lat="41.6349797652637" lon="2.17121735371397"><ele>248.0</ele><time>2026-04-02T14:57:39.001Z</time></trkpt><trkpt lat="41.63512778954201" lon="2.1711150053372794"><ele>248.0</ele><time>2026-04-02T14:57:40.001Z</time></trkpt><trkpt lat="41.63528122853332" lon="2.171024821516298"><ele>248.0</ele><time>2026-04-02T14:57:41.001Z</time></trkpt><trkpt lat="41.63543924119384" lon="2.170936685968903"><ele>250.33333333333334</ele><time>2026-04-02T14:57:42Z</time></trkpt><trkpt lat="41.63559095346542" lon="2.1708568740275713"><ele>252.66666666666669</ele><time>2026-04-02T14:57:43Z</time></trkpt><trkpt lat="41.63574865568213" lon="2.170787894881828"><ele>255.0</ele><time>2026-04-02T14:57:44Z</time></trkpt><trkpt lat="41.635907320396164" lon="2.170733438195161"><ele>254.33333333333331</ele><time>2026-04-02T14:57:45Z</time></trkpt><trkpt lat="41.636064723004424" lon="2.1706845762995597"><ele>253.66666666666666</ele><time>2026-04-02T14:57:46Z</time></trkpt><trkpt lat="41.6362239082313" lon="2.1706439406188425"><ele>253.0</ele><time>2026-04-02T14:57:47Z</time></trkpt><trkpt lat="41.636384889407886" lon="2.1706124071256534"><ele>254.66666666666666</ele><time>2026-04-02T14:57:48Z</time></trkpt><trkpt lat="41.6365484872815" lon="2.1705814570952877"><ele>256.3333333333333</ele><time>2026-04-02T14:57:49Z</time></trkpt><trkpt lat="41.63671480714617" lon="2.1705437887795123"><ele>258.0</ele><time>2026-04-02T14:57:50Z</time></trkpt><trkpt lat="41.63687298128928" lon="2.170506867881657"><ele>259.3333333333333</ele><time>2026-04-02T14:57:51Z</time></trkpt><trkpt lat="41.637036849012034" lon="2.170475299843062"><ele>260.66666666666663</ele><time>2026-04-02T14:57:52Z</time></trkpt><trkpt lat="41.63720619063709" lon="2.1704416727296794"><ele>262.0</ele><time>2026-04-02T14:57:53Z</time></trkpt><trkpt lat="41.637364081592175" lon="2.170405866655"><ele>262.0</ele><time>2026-04-02T14:57:54Z</time></trkpt><trkpt lat="41.637520509506764" lon="2.1703652631996926"><ele>262.0</ele><time>2026-04-02T14:57:55Z</time></trkpt><trkpt lat="41.63767696729088" lon="2.1703213610762258"><ele>262.0</ele><time>2026-04-02T14:57:56Z</time></trkpt><trkpt lat="41.63783903799165" lon="2.170269731377732"><ele>263.3333333333333</ele><time>2026-04-02T14:57:57Z</time></trkpt><trkpt lat="41.638003504051945" lon="2.170212325699594"><ele>264.6666666666667</ele><time>2026-04-02T14:57:58Z</time></trkpt><trkpt lat="41.63815559725633" lon="2.170140994941007"><ele>266.0</ele><time>2026-04-02T14:57:59Z</time></trkpt><trkpt lat="41.638300938820485" lon="2.1700645822647595"><ele>266.0</ele><time>2026-04-02T14:58:00Z</time></trkpt><trkpt lat="41.638446538820176" lon="2.1699756018516645"><ele>266.0</ele><time>2026-04-02T14:58:01Z</time></trkpt><trkpt lat="41.63858871213184" lon="2.1698744517559247"><ele>266.0</ele><time>2026-04-02T14:58:02Z</time></trkpt><trkpt lat="41.638725431077944" lon="2.169767983167764"><ele>265.33333333333337</ele><time>2026-04-02T14:58:03Z</time></trkpt><trkpt lat="41.638868474235764" lon="2.1696676064183413"><ele>264.6666666666667</ele><time>2026-04-02T14:58:04Z</time></trkpt><trkpt lat="41.63900755872715" lon="2.169553384542486"><ele>264.0</ele><time>2026-04-02T14:58:05Z</time></trkpt><trkpt lat="41.63914306063782" lon="2.1694331175964567"><ele>264.0</ele><time>2026-04-02T14:58:06Z</time></trkpt><trkpt lat="41.63927482639274" lon="2.169308408956183"><ele>264.0</ele><time>2026-04-02T14:58:07Z</time></trkpt><trkpt lat="41.63940442183081" lon="2.169173747611186"><ele>264.0</ele><time>2026-04-02T14:58:08Z</time></trkpt><trkpt lat="41.63953149104429" lon="2.1690292641698345"><ele>263.3333333333333</ele><time>2026-04-02T14:58:09Z</time></trkpt><trkpt lat="41.63964896089656" lon="2.1688832565169625"><ele>262.66666666666663</ele><time>2026-04-02T14:58:10Z</time></trkpt><trkpt lat="41.639770596154335" lon="2.1687155999963528"><ele>262.0</ele><time>2026-04-02T14:58:11Z</time></trkpt><trkpt lat="41.63989176379055" lon="2.168533096937264"><ele>262.0</ele><time>2026-04-02T14:58:12Z</time></trkpt><trkpt lat="41.64000688834239" lon="2.168345014537112"><ele>262.0</ele><time>2026-04-02T14:58:13Z</time></trkpt><trkpt lat="41.640113102762925" lon="2.1681535482768894"><ele>262.0</ele><time>2026-04-02T14:58:14Z</time></trkpt><trkpt lat="41.64020994823025" lon="2.1679568748848737"><ele>261.0</ele><time>2026-04-02T14:58:15Z</time></trkpt><trkpt lat="41.64029577556501" lon="2.1677656243112136"><ele>260.0</ele><time>2026-04-02T14:58:16Z</time></trkpt><trkpt lat="41.64037850819721" lon="2.1675641219706505"><ele>259.0</ele><time>2026-04-02T14:58:17Z</time></trkpt><trkpt lat="41.64045504409917" lon="2.167356109362097"><ele>257.66666666666663</ele><time>2026-04-02T14:58:18Z</time></trkpt><trkpt lat="41.64052268382771" lon="2.1671538441284532"><ele>256.3333333333333</ele><time>2026-04-02T14:58:19Z</time></trkpt><trkpt lat="41.64058533261609" lon="2.1669357595748657"><ele>255.0</ele><time>2026-04-02T14:58:20Z</time></trkpt><trkpt lat="41.64064689295804" lon="2.1667132069031565"><ele>253.66666666666669</ele><time>2026-04-02T14:58:21Z</time></trkpt><trkpt lat="41.64070345983922" lon="2.1664968161227547"><ele>252.33333333333334</ele><time>2026-04-02T14:58:22Z</time></trkpt><trkpt lat="41.64075788683083" lon="2.1662900085100745"><ele>251.0</ele><time>2026-04-02T14:58:23Z</time></trkpt><trkpt lat="41.64080466708096" lon="2.1660816427852523"><ele>251.0</ele><time>2026-04-02T14:58:24Z</time></trkpt><trkpt lat="41.64084542325756" lon="2.165863104978497"><ele>251.0</ele><time>2026-04-02T14:58:25Z</time></trkpt><trkpt lat="41.64088645119633" lon="2.1656433395274295"><ele>251.0</ele><time>2026-04-02T14:58:26Z</time></trkpt><trkpt lat="41.64093198591299" lon="2.165414384413816"><ele>250.33333333333334</ele><time>2026-04-02T14:58:27Z</time></trkpt><trkpt lat="41.64098454726665" lon="2.165182101938452"><ele>249.66666666666669</ele><time>2026-04-02T14:58:28Z</time></trkpt><trkpt lat="41.641049697361474" lon="2.164951959175139"><ele>249.0</ele><time>2026-04-02T14:58:29Z</time></trkpt><trkpt lat="41.64112277067146" lon="2.16471895162456"><ele>248.0</ele><time>2026-04-02T14:58:30Z</time></trkpt><trkpt lat="41.64122102197627" lon="2.164497774454157"><ele>247.0</ele><time>2026-04-02T14:58:31Z</time></trkpt><trkpt lat="41.64132310393543" lon="2.164279737771386"><ele>246.0</ele><time>2026-04-02T14:58:32Z</time></trkpt><trkpt lat="41.641438166272785" lon="2.1640697010727714"><ele>244.66666666666669</ele><time>2026-04-02T14:58:33Z</time></trkpt><trkpt lat="41.64156946603911" lon="2.1638788398607516"><ele>243.33333333333334</ele><time>2026-04-02T14:58:34Z</time></trkpt><trkpt lat="41.64171333021253" lon="2.1637047565740892"><ele>242.0</ele><time>2026-04-02T14:58:35Z</time></trkpt><trkpt lat="41.64186799884675" lon="2.163550441743396"><ele>241.33333333333334</ele><time>2026-04-02T14:58:36Z</time></trkpt><trkpt lat="41.64202838019361" lon="2.1634138749825977"><ele>240.66666666666669</ele><time>2026-04-02T14:58:37Z</time></trkpt><trkpt lat="41.64219334783342" lon="2.1632905437061294"><ele>240.0</ele><time>2026-04-02T14:58:38Z</time></trkpt><trkpt lat="41.64236864176768" lon="2.1631853677153567"><ele>238.33333333333331</ele><time>2026-04-02T14:58:39Z</time></trkpt><trkpt lat="41.6425444925808" lon="2.1630989140093466"><ele>236.66666666666666</ele><time>2026-04-02T14:58:40Z</time></trkpt><trkpt lat="41.64272100533117" lon="2.163017013883306"><ele>235.0</ele><time>2026-04-02T14:58:41Z</time></trkpt><trkpt lat="41.642896185963856" lon="2.1629327857814795"><ele>240.33333333333331</ele><time>2026-04-02T14:58:42Z</time></trkpt><trkpt lat="41.64306762203507" lon="2.162847916332038"><ele>245.66666666666669</ele><time>2026-04-02T14:58:43Z</time></trkpt><trkpt lat="41.64323455397769" lon="2.1627558344104156"><ele>251.0</ele><time>2026-04-02T14:58:44Z</time></trkpt><trkpt lat="41.6433972076757" lon="2.1626463529305853"><ele>251.0</ele><time>2026-04-02T14:58:45Z</time></trkpt><trkpt lat="41.6435477874609" lon="2.16251507178685"><ele>251.0</ele><time>2026-04-02T14:58:46Z</time></trkpt><trkpt lat="41.643693393840145" lon="2.162376348422187"><ele>251.0</ele><time>2026-04-02T14:58:47Z</time></trkpt><trkpt lat="41.64383856015927" lon="2.162241203678141"><ele>252.0</ele><time>2026-04-02T14:58:48Z</time></trkpt><trkpt lat="41.643978158341625" lon="2.162101985160028"><ele>253.0</ele><time>2026-04-02T14:58:49Z</time></trkpt><trkpt lat="41.64411766528058" lon="2.1619603338421998"><ele>254.0</ele><time>2026-04-02T14:58:50Z</time></trkpt><trkpt lat="41.644268140488364" lon="2.1618327398780104"><ele>254.0</ele><time>2026-04-02T14:58:51Z</time></trkpt><trkpt lat="41.6444264679428" lon="2.1617276645812553"><ele>254.0</ele><time>2026-04-02T14:58:52Z</time></trkpt><trkpt lat="41.644588210347244" lon="2.1616519127986518"><ele>254.0</ele><time>2026-04-02T14:58:53Z</time></trkpt><trkpt lat="41.644760794731695" lon="2.1616227401334007"><ele>257.0</ele><time>2026-04-02T14:58:54Z</time></trkpt><trkpt lat="41.64493686316124" lon="2.161633367107394"><ele>260.0</ele><time>2026-04-02T14:58:55Z</time></trkpt><trkpt lat="41.64511067802202" lon="2.1616880959622273"><ele>263.0</ele><time>2026-04-02T14:58:56Z</time></trkpt><trkpt lat="41.64527473248628" lon="2.1617616297657207"><ele>266.33333333333337</ele><time>2026-04-02T14:58:57Z</time></trkpt><trkpt lat="41.64543646643372" lon="2.1618482277574635"><ele>269.6666666666667</ele><time>2026-04-02T14:58:58Z</time></trkpt><trkpt lat="41.64559742356966" lon="2.161950989309775"><ele>273.0</ele><time>2026-04-02T14:58:59Z</time></trkpt><trkpt lat="41.64575980783373" lon="2.1620560295853286"><ele>273.0</ele><time>2026-04-02T14:59:00Z</time></trkpt><trkpt lat="41.645924932426276" lon="2.162151140600744"><ele>273.0</ele><time>2026-04-02T14:59:01Z</time></trkpt><trkpt lat="41.64609660594148" lon="2.162223717441873"><ele>273.0</ele><time>2026-04-02T14:59:02Z</time></trkpt><trkpt lat="41.64627374333644" lon="2.162265214253861"><ele>276.3333333333333</ele><time>2026-04-02T14:59:03Z</time></trkpt><trkpt lat="41.64645770346328" lon="2.1622661452202414"><ele>279.66666666666663</ele><time>2026-04-02T14:59:04Z</time></trkpt><trkpt lat="41.64663570066527" lon="2.1622274038950593"><ele>283.0</ele><time>2026-04-02T14:59:05Z</time></trkpt><trkpt lat="41.646801437899114" lon="2.1621642077142402"><ele>283.0</ele><time>2026-04-02T14:59:06Z</time></trkpt><trkpt lat="41.646957264062515" lon="2.162093252341513"><ele>283.0</ele><time>2026-04-02T14:59:07Z</time></trkpt><trkpt lat="41.647117064819064" lon="2.1620301301808276"><ele>283.0</ele><time>2026-04-02T14:59:08Z</time></trkpt><trkpt lat="41.647281748862376" lon="2.1619688190468946"><ele>283.66666666666663</ele><time>2026-04-02T14:59:09Z</time></trkpt><trkpt lat="41.64744614726332" lon="2.1618989692335293"><ele>284.3333333333333</ele><time>2026-04-02T14:59:10Z</time></trkpt><trkpt lat="41.64760280785805" lon="2.1618340758526067"><ele>285.0</ele><time>2026-04-02T14:59:11Z</time></trkpt><trkpt lat="41.647742768864276" lon="2.1617749886239834"><ele>286.25</ele><time>2026-04-02T14:59:12Z</time></trkpt><trkpt lat="41.64787890136957" lon="2.161724295132081"><ele>287.5</ele><time>2026-04-02T14:59:13Z</time></trkpt><trkpt lat="41.64802313481869" lon="2.1617135533086613"><ele>288.75</ele><time>2026-04-02T14:59:14Z</time></trkpt><trkpt lat="41.64816632543809" lon="2.161753794828672"><ele>290.0</ele><time>2026-04-02T14:59:15Z</time></trkpt><trkpt lat="41.64830073897364" lon="2.1618272487173513"><ele>290.0</ele><time>2026-04-02T14:59:16Z</time></trkpt><trkpt lat="41.648436062384896" lon="2.1618839938636074"><ele>290.0</ele><time>2026-04-02T14:59:17Z</time></trkpt><trkpt lat="41.64858454682106" lon="2.1618850007849413"><ele>290.0</ele><time>2026-04-02T14:59:18Z</time></trkpt><trkpt lat="41.64872934644971" lon="2.1618353627989766"><ele>290.0</ele><time>2026-04-02T14:59:19Z</time></trkpt><trkpt lat="41.648857557922206" lon="2.1617533264187894"><ele>291.5</ele><time>2026-04-02T14:59:20Z</time></trkpt><trkpt lat="41.64897956448092" lon="2.1616614527325844"><ele>293.0</ele><time>2026-04-02T14:59:21Z</time></trkpt><trkpt lat="41.64910553327553" lon="2.1615802117292136"><ele>294.5</ele><time>2026-04-02T14:59:22Z</time></trkpt><trkpt lat="41.649245277115575" lon="2.1615389632565134"><ele>296.0</ele><time>2026-04-02T14:59:23Z</time></trkpt><trkpt lat="41.64939293278652" lon="2.1615450514797874"><ele>296.75</ele><time>2026-04-02T14:59:24Z</time></trkpt><trkpt lat="41.64952950665648" lon="2.1616098469875236"><ele>297.5</ele><time>2026-04-02T14:59:25Z</time></trkpt><trkpt lat="41.649658427616515" lon="2.16170136579817"><ele>298.25</ele><time>2026-04-02T14:59:26Z</time></trkpt><trkpt lat="41.64979044484882" lon="2.1617871599364347"><ele>299.0</ele><time>2026-04-02T14:59:27Z</time></trkpt><trkpt lat="41.64993885314001" lon="2.1618522928010435"><ele>299.0</ele><time>2026-04-02T14:59:28Z</time></trkpt><trkpt lat="41.650089244750134" lon="2.16191161602883"><ele>299.0</ele><time>2026-04-02T14:59:29Z</time></trkpt><trkpt lat="41.650244708771254" lon="2.161970106406145"><ele>299.0</ele><time>2026-04-02T14:59:30Z</time></trkpt><trkpt lat="41.65040259447334" lon="2.1620213182580814"><ele>301.0</ele><time>2026-04-02T14:59:31Z</time></trkpt><trkpt lat="41.65055543976294" lon="2.1620646041363054"><ele>303.0</ele><time>2026-04-02T14:59:32Z</time></trkpt><trkpt lat="41.650706792352125" lon="2.162109774718539"><ele>305.0</ele><time>2026-04-02T14:59:33Z</time></trkpt><trkpt lat="41.65085103115352" lon="2.1621510187415565"><ele>305.0</ele><time>2026-04-02T14:59:34Z</time></trkpt><trkpt lat="41.65098976540781" lon="2.1621735744235906"><ele>305.0</ele><time>2026-04-02T14:59:35Z</time></trkpt><trkpt lat="41.65112250707251" lon="2.1621655342510313"><ele>305.0</ele><time>2026-04-02T14:59:36Z</time></trkpt><trkpt lat="41.65125075363765" lon="2.16211651323011"><ele>305.0</ele><time>2026-04-02T14:59:37Z</time></trkpt><trkpt lat="41.65136539706253" lon="2.162024185120217"><ele>305.75</ele><time>2026-04-02T14:59:38Z</time></trkpt><trkpt lat="41.651473039148414" lon="2.1619016196044942"><ele>306.5</ele><time>2026-04-02T14:59:39Z</time></trkpt><trkpt lat="41.65157708075002" lon="2.1617682967205987"><ele>307.25</ele><time>2026-04-02T14:59:40Z</time></trkpt><trkpt lat="41.65168936917781" lon="2.161625535840092"><ele>308.0</ele><time>2026-04-02T14:59:41Z</time></trkpt><trkpt lat="41.65180426989633" lon="2.1614912568954225"><ele>309.75</ele><time>2026-04-02T14:59:42Z</time></trkpt><trkpt lat="41.65193095866144" lon="2.161387019117369"><ele>311.5</ele><time>2026-04-02T14:59:43Z</time></trkpt><trkpt lat="41.65207015803105" lon="2.161317132462847"><ele>313.25</ele><time>2026-04-02T14:59:44Z</time></trkpt><trkpt lat="41.65221993891779" lon="2.1612843651679388"><ele>315.0</ele><time>2026-04-02T14:59:45Z</time></trkpt><trkpt lat="41.652377974015835" lon="2.1612839412467864"><ele>317.0</ele><time>2026-04-02T14:59:46Z</time></trkpt><trkpt lat="41.65254191119229" lon="2.1613071444557224"><ele>319.0</ele><time>2026-04-02T14:59:47Z</time></trkpt><trkpt lat="41.652711812492676" lon="2.161333986361583"><ele>321.0</ele><time>2026-04-02T14:59:48Z</time></trkpt><trkpt lat="41.65288657527476" lon="2.1613618259333762"><ele>322.6666666666667</ele><time>2026-04-02T14:59:49Z</time></trkpt><trkpt lat="41.653058764338894" lon="2.1613853778710985"><ele>324.33333333333337</ele><time>2026-04-02T14:59:50Z</time></trkpt><trkpt lat="41.653230214429946" lon="2.161408434188393"><ele>326.0</ele><time>2026-04-02T14:59:51Z</time></trkpt><trkpt lat="41.653401755263936" lon="2.161430198809327"><ele>326.0</ele><time>2026-04-02T14:59:52Z</time></trkpt><trkpt lat="41.65357425807789" lon="2.16144924346475"><ele>326.0</ele><time>2026-04-02T14:59:53Z</time></trkpt><trkpt lat="41.653743154032654" lon="2.1614649686069716"><ele>326.0</ele><time>2026-04-02T14:59:54Z</time></trkpt><trkpt lat="41.653909499861435" lon="2.1614857053633054"><ele>324.6666666666667</ele><time>2026-04-02T14:59:55Z</time></trkpt><trkpt lat="41.65407948961308" lon="2.1615071595703026"><ele>323.3333333333333</ele><time>2026-04-02T14:59:56Z</time></trkpt><trkpt lat="41.65425077107488" lon="2.16154167759153"><ele>322.0</ele><time>2026-04-02T14:59:57Z</time></trkpt><trkpt lat="41.654427535737014" lon="2.1615881083500486"><ele>325.3333333333333</ele><time>2026-04-02T14:59:58Z</time></trkpt><trkpt lat="41.654601639969336" lon="2.161635332781756"><ele>328.6666666666667</ele><time>2026-04-02T14:59:59Z</time></trkpt><trkpt lat="41.654781401284694" lon="2.161682697707365"><ele>332.0</ele><time>2026-04-02T15:00:00Z</time></trkpt><trkpt lat="41.654962283291624" lon="2.1617304247908877"><ele>332.0</ele><time>2026-04-02T15:00:01Z</time></trkpt><trkpt lat="41.655145125139015" lon="2.1617839983817144"><ele>332.0</ele><time>2026-04-02T15:00:02Z</time></trkpt><trkpt lat="41.65533125834787" lon="2.161834347138953"><ele>332.0</ele><time>2026-04-02T15:00:03Z</time></trkpt><trkpt lat="41.65551851279009" lon="2.161884058300333"><ele>335.6666666666667</ele><time>2026-04-02T15:00:04Z</time></trkpt><trkpt lat="41.655705929292914" lon="2.1619364156897105"><ele>339.3333333333333</ele><time>2026-04-02T15:00:05Z</time></trkpt><trkpt lat="41.655893049116656" lon="2.1619852988745034"><ele>343.0</ele><time>2026-04-02T15:00:06Z</time></trkpt><trkpt lat="41.6560769431668" lon="2.162031319292205"><ele>346.0</ele><time>2026-04-02T15:00:07Z</time></trkpt><trkpt lat="41.65625782512557" lon="2.16207753035083"><ele>349.0</ele><time>2026-04-02T15:00:08Z</time></trkpt><trkpt lat="41.656438696167974" lon="2.1621376670015007"><ele>352.0</ele><time>2026-04-02T15:00:09Z</time></trkpt><trkpt lat="41.656618681475905" lon="2.1621981389329368"><ele>352.0</ele><time>2026-04-02T15:00:10Z</time></trkpt><trkpt lat="41.65680155955485" lon="2.1622644331756016"><ele>352.0</ele><time>2026-04-02T15:00:11Z</time></trkpt><trkpt lat="41.6569794504505" lon="2.1623516042642614"><ele>352.0</ele><time>2026-04-02T15:00:12Z</time></trkpt><trkpt lat="41.657153628751075" lon="2.1624409721487132"><ele>352.0</ele><time>2026-04-02T15:00:13Z</time></trkpt><trkpt lat="41.657330265420015" lon="2.162522019638291"><ele>352.0</ele><time>2026-04-02T15:00:14Z</time></trkpt><trkpt lat="41.657519829892294" lon="2.1625898526417084"><ele>352.0</ele><time>2026-04-02T15:00:15Z</time></trkpt><trkpt lat="41.65771485820099" lon="2.1626278190367016"><ele>354.66666666666663</ele><time>2026-04-02T15:00:16Z</time></trkpt><trkpt lat="41.65791371111225" lon="2.1626499756168083"><ele>357.3333333333333</ele><time>2026-04-02T15:00:17Z</time></trkpt><trkpt lat="41.65811499381379" lon="2.162657648603348"><ele>360.0</ele><time>2026-04-02T15:00:18Z</time></trkpt><trkpt lat="41.65832070374256" lon="2.162662348231792"><ele>360.0</ele><time>2026-04-02T15:00:19Z</time></trkpt><trkpt lat="41.6585251480222" lon="2.162655383872831"><ele>360.0</ele><time>2026-04-02T15:00:20Z</time></trkpt><trkpt lat="41.65872615682671" lon="2.1626458916580433"><ele>360.0</ele><time>2026-04-02T15:00:21Z</time></trkpt><trkpt lat="41.65892269684366" lon="2.1626364301623395"><ele>362.0</ele><time>2026-04-02T15:00:22Z</time></trkpt><trkpt lat="41.659116769393265" lon="2.162625258197327"><ele>364.0</ele><time>2026-04-02T15:00:23Z</time></trkpt><trkpt lat="41.65930937612091" lon="2.1626132577608335"><ele>366.0</ele><time>2026-04-02T15:00:24Z</time></trkpt><trkpt lat="41.65950285858831" lon="2.162599649405732"><ele>367.0</ele><time>2026-04-02T15:00:25Z</time></trkpt><trkpt lat="41.65969628686676" lon="2.1625760501766327"><ele>368.0</ele><time>2026-04-02T15:00:26Z</time></trkpt><trkpt lat="41.65989202291909" lon="2.1625559762108013"><ele>369.0</ele><time>2026-04-02T15:00:27Z</time></trkpt><trkpt lat="41.66008521511166" lon="2.1625350847748583"><ele>369.0</ele><time>2026-04-02T15:00:28Z</time></trkpt><trkpt lat="41.66028160092568" lon="2.1625066296404603"><ele>369.0</ele><time>2026-04-02T15:00:29Z</time></trkpt><trkpt lat="41.66047577000001" lon="2.16248480846162"><ele>369.0</ele><time>2026-04-02T15:00:30Z</time></trkpt><trkpt lat="41.66066890417142" lon="2.1624599766999797"><ele>370.0</ele><time>2026-04-02T15:00:31Z</time></trkpt><trkpt lat="41.660864311354715" lon="2.162430263478885"><ele>371.0</ele><time>2026-04-02T15:00:32Z</time></trkpt><trkpt lat="41.66105721609528" lon="2.1624006192685816"><ele>372.0</ele><time>2026-04-02T15:00:33Z</time></trkpt><trkpt lat="41.661248520994725" lon="2.162369813003157"><ele>384.33333333333337</ele><time>2026-04-02T15:00:34Z</time></trkpt><trkpt lat="41.661441783032224" lon="2.162342926390776"><ele>396.6666666666667</ele><time>2026-04-02T15:00:35Z</time></trkpt><trkpt lat="41.66163839944099" lon="2.162340987165227"><ele>409.0</ele><time>2026-04-02T15:00:36Z</time></trkpt><trkpt lat="41.661835682800366" lon="2.1623612571442528"><ele>401.0</ele><time>2026-04-02T15:00:37Z</time></trkpt><trkpt lat="41.662035220720895" lon="2.162393744114407"><ele>393.0</ele><time>2026-04-02T15:00:38Z</time></trkpt><trkpt lat="41.662240171331" lon="2.1624325949652747"><ele>385.0</ele><time>2026-04-02T15:00:39Z</time></trkpt><trkpt lat="41.66243578251743" lon="2.162475227741664"><ele>385.0</ele><time>2026-04-02T15:00:40Z</time></trkpt><trkpt lat="41.66262426243599" lon="2.1625128002730998"><ele>385.0</ele><time>2026-04-02T15:00:41Z</time></trkpt><trkpt lat="41.66281271387981" lon="2.1625555167407544"><ele>385.0</ele><time>2026-04-02T15:00:42Z</time></trkpt><trkpt lat="41.663003302010914" lon="2.162602616416711"><ele>387.6666666666667</ele><time>2026-04-02T15:00:43Z</time></trkpt><trkpt lat="41.66319356858199" lon="2.1626512976468866"><ele>390.33333333333337</ele><time>2026-04-02T15:00:44Z</time></trkpt><trkpt lat="41.66338219876678" lon="2.162710842666523"><ele>393.0</ele><time>2026-04-02T15:00:45Z</time></trkpt><trkpt lat="41.66356473258147" lon="2.162781568077235"><ele>398.33333333333337</ele><time>2026-04-02T15:00:46Z</time></trkpt><trkpt lat="41.663750139054216" lon="2.1628685300988555"><ele>403.6666666666667</ele><time>2026-04-02T15:00:47Z</time></trkpt><trkpt lat="41.66393375293718" lon="2.162953409526059"><ele>409.0</ele><time>2026-04-02T15:00:48Z</time></trkpt><trkpt lat="41.66411244646004" lon="2.163030986562599"><ele>409.0</ele><time>2026-04-02T15:00:49Z</time></trkpt><trkpt lat="41.664286930615" lon="2.163093410352227"><ele>409.0</ele><time>2026-04-02T15:00:50Z</time></trkpt><trkpt lat="41.664456957117174" lon="2.1631421651196363"><ele>409.0</ele><time>2026-04-02T15:00:51Z</time></trkpt><trkpt lat="41.66463137397129" lon="2.163191412461474"><ele>406.0</ele><time>2026-04-02T15:00:52Z</time></trkpt><trkpt lat="41.664803213549575" lon="2.1632508903362333"><ele>403.0</ele><time>2026-04-02T15:00:53Z</time></trkpt><trkpt lat="41.664972140155434" lon="2.1633249164205273"><ele>400.0</ele><time>2026-04-02T15:00:54Z</time></trkpt><trkpt lat="41.66514010862049" lon="2.1634188590024674"><ele>405.33333333333337</ele><time>2026-04-02T15:00:55Z</time></trkpt><trkpt lat="41.6653027983811" lon="2.1635185028409345"><ele>410.66666666666663</ele><time>2026-04-02T15:00:56Z</time></trkpt><trkpt lat="41.66546674571498" lon="2.163617016453623"><ele>416.0</ele><time>2026-04-02T15:00:57Z</time></trkpt><trkpt lat="41.6656364360628" lon="2.1637067671789745"><ele>416.0</ele><time>2026-04-02T15:00:58Z</time></trkpt><trkpt lat="41.665814804396184" lon="2.163779776486737"><ele>416.0</ele><time>2026-04-02T15:00:59Z</time></trkpt><trkpt lat="41.66600061809865" lon="2.1638307222030737"><ele>416.0</ele><time>2026-04-02T15:01:00Z</time></trkpt><trkpt lat="41.666196269606445" lon="2.1638563345431314"><ele>420.3333333333333</ele><time>2026-04-02T15:01:01Z</time></trkpt><trkpt lat="41.66639635597739" lon="2.1638552365144443"><ele>424.66666666666663</ele><time>2026-04-02T15:01:02Z</time></trkpt><trkpt lat="41.66659607168663" lon="2.1638421425129994"><ele>429.0</ele><time>2026-04-02T15:01:03Z</time></trkpt><trkpt lat="41.66678674685178" lon="2.1638178162949013"><ele>427.66666666666663</ele><time>2026-04-02T15:01:04Z</time></trkpt><trkpt lat="41.66698113853157" lon="2.163808292624612"><ele>426.3333333333333</ele><time>2026-04-02T15:01:05Z</time></trkpt><trkpt lat="41.66717179810377" lon="2.163796654781373"><ele>425.0</ele><time>2026-04-02T15:01:06Z</time></trkpt><trkpt lat="41.667359501884775" lon="2.1637886443960603"><ele>425.0</ele><time>2026-04-02T15:01:07Z</time></trkpt><trkpt lat="41.66754867359424" lon="2.1637754481424687"><ele>425.0</ele><time>2026-04-02T15:01:08Z</time></trkpt><trkpt lat="41.667736149987554" lon="2.163764233125236"><ele>425.0</ele><time>2026-04-02T15:01:09Z</time></trkpt><trkpt lat="41.66792245990771" lon="2.163754508347062"><ele>423.66666666666663</ele><time>2026-04-02T15:01:10Z</time></trkpt><trkpt lat="41.668107005117015" lon="2.1637527238238237"><ele>422.33333333333337</ele><time>2026-04-02T15:01:11Z</time></trkpt><trkpt lat="41.66828545156017" lon="2.16376837556883"><ele>421.0</ele><time>2026-04-02T15:01:12Z</time></trkpt><trkpt lat="41.66846180191082" lon="2.1638062609723145"><ele>420.0</ele><time>2026-04-02T15:01:13Z</time></trkpt><trkpt lat="41.66863834419604" lon="2.16386249873894"><ele>419.0</ele><time>2026-04-02T15:01:14Z</time></trkpt><trkpt lat="41.66881013922884" lon="2.16393200439109"><ele>418.0</ele><time>2026-04-02T15:01:15Z</time></trkpt><trkpt lat="41.66897720781738" lon="2.164023407036565"><ele>419.6666666666667</ele><time>2026-04-02T15:01:16Z</time></trkpt><trkpt lat="41.669131714886966" lon="2.1641269304367103"><ele>421.33333333333337</ele><time>2026-04-02T15:01:17Z</time></trkpt><trkpt lat="41.669296729903394" lon="2.164249266659605"><ele>423.0</ele><time>2026-04-02T15:01:18Z</time></trkpt><trkpt lat="41.66945786705623" lon="2.1643847754411274"><ele>423.0</ele><time>2026-04-02T15:01:19Z</time></trkpt><trkpt lat="41.66962321166255" lon="2.1645180647638926"><ele>423.0</ele><time>2026-04-02T15:01:20Z</time></trkpt><trkpt lat="41.669791739289025" lon="2.164632893046006"><ele>423.0</ele><time>2026-04-02T15:01:21Z</time></trkpt><trkpt lat="41.66996159442622" lon="2.1647133386494755"><ele>423.0</ele><time>2026-04-02T15:01:22Z</time></trkpt><trkpt lat="41.67013431446375" lon="2.164775209500674"><ele>423.0</ele><time>2026-04-02T15:01:23Z</time></trkpt><trkpt lat="41.67030472962659" lon="2.164842177754103"><ele>423.0</ele><time>2026-04-02T15:01:24Z</time></trkpt><trkpt lat="41.67046566776531" lon="2.1649324828644594"><ele>426.33333333333337</ele><time>2026-04-02T15:01:25Z</time></trkpt><trkpt lat="41.67061059508585" lon="2.1650536255962147"><ele>429.6666666666667</ele><time>2026-04-02T15:01:26Z</time></trkpt><trkpt lat="41.67075017837332" lon="2.165188548072611"><ele>433.0</ele><time>2026-04-02T15:01:27Z</time></trkpt><trkpt lat="41.670897242773485" lon="2.1653200790625053"><ele>433.0</ele><time>2026-04-02T15:01:28Z</time></trkpt><trkpt lat="41.67105390403297" lon="2.165434831950101"><ele>433.0</ele><time>2026-04-02T15:01:29Z</time></trkpt><trkpt lat="41.67121404733572" lon="2.16551959046534"><ele>433.0</ele><time>2026-04-02T15:01:30Z</time></trkpt><trkpt lat="41.67138491581809" lon="2.1655799004743246"><ele>434.0</ele><time>2026-04-02T15:01:31Z</time></trkpt><trkpt lat="41.67156292170241" lon="2.165606747943003"><ele>435.0</ele><time>2026-04-02T15:01:32Z</time></trkpt><trkpt lat="41.67173848427623" lon="2.165590669304036"><ele>436.0</ele><time>2026-04-02T15:01:33Z</time></trkpt><trkpt lat="41.671914368915296" lon="2.1655437920475045"><ele>437.6666666666667</ele><time>2026-04-02T15:01:34Z</time></trkpt><trkpt lat="41.67208385541067" lon="2.1654972890450184"><ele>439.33333333333337</ele><time>2026-04-02T15:01:35Z</time></trkpt><trkpt lat="41.672262166191494" lon="2.1654480136146446"><ele>441.0</ele><time>2026-04-02T15:01:36Z</time></trkpt><trkpt lat="41.67244056467137" lon="2.1654021758119404"><ele>441.0</ele><time>2026-04-02T15:01:37Z</time></trkpt><trkpt lat="41.67261489209598" lon="2.1653539316617487"><ele>441.0</ele><time>2026-04-02T15:01:38Z</time></trkpt><trkpt lat="41.67278861259698" lon="2.1653013599736646"><ele>441.0</ele><time>2026-04-02T15:01:39Z</time></trkpt><trkpt lat="41.6729611758432" lon="2.1652485465853935"><ele>444.33333333333337</ele><time>2026-04-02T15:01:40Z</time></trkpt><trkpt lat="41.673121450477176" lon="2.165193095828226"><ele>447.6666666666667</ele><time>2026-04-02T15:01:41Z</time></trkpt><trkpt lat="41.673274075520446" lon="2.165118127004519"><ele>451.0</ele><time>2026-04-02T15:01:42Z</time></trkpt><trkpt lat="41.67341648645211" lon="2.165018886594451"><ele>451.0</ele><time>2026-04-02T15:01:43Z</time></trkpt><trkpt lat="41.67355455144473" lon="2.1649054766743148"><ele>451.0</ele><time>2026-04-02T15:01:44Z</time></trkpt><trkpt lat="41.673694993813825" lon="2.164783142296541"><ele>451.0</ele><time>2026-04-02T15:01:45Z</time></trkpt><trkpt lat="41.67382576685871" lon="2.1646680196900294"><ele>452.0</ele><time>2026-04-02T15:01:46Z</time></trkpt><trkpt lat="41.67395599742206" lon="2.1645599441071997"><ele>453.0</ele><time>2026-04-02T15:01:47Z</time></trkpt><trkpt lat="41.67408683769372" lon="2.1644518986926045"><ele>454.0</ele><time>2026-04-02T15:01:48Z</time></trkpt><trkpt lat="41.67420635178763" lon="2.164344406946796"><ele>454.0</ele><time>2026-04-02T15:01:49Z</time></trkpt><trkpt lat="41.674323155320785" lon="2.1642533065594813"><ele>454.0</ele><time>2026-04-02T15:01:50Z</time></trkpt><trkpt lat="41.67443616149157" lon="2.1641792469513987"><ele>454.0</ele><time>2026-04-02T15:01:51Z</time></trkpt><trkpt lat="41.67455756026029" lon="2.1641094205027174"><ele>454.0</ele><time>2026-04-02T15:01:52Z</time></trkpt><trkpt lat="41.67469430944524" lon="2.164076541415697"><ele>454.5</ele><time>2026-04-02T15:01:53Z</time></trkpt><trkpt lat="41.67483447363668" lon="2.1640772468396348"><ele>455.0</ele><time>2026-04-02T15:01:54Z</time></trkpt><trkpt lat="41.67497486072328" lon="2.1641114111206665"><ele>455.5</ele><time>2026-04-02T15:01:55Z</time></trkpt><trkpt lat="41.675116391478" lon="2.1641590460964832"><ele>456.0</ele><time>2026-04-02T15:01:56Z</time></trkpt><trkpt lat="41.675260472613935" lon="2.164205357646122"><ele>453.75</ele><time>2026-04-02T15:01:57Z</time></trkpt><trkpt lat="41.67539200169551" lon="2.164250713440968"><ele>451.5</ele><time>2026-04-02T15:01:58Z</time></trkpt><trkpt lat="41.675532319328326" lon="2.164312496993254"><ele>449.25</ele><time>2026-04-02T15:01:59Z</time></trkpt><trkpt lat="41.67567676636147" lon="2.164401765273889"><ele>447.0</ele><time>2026-04-02T15:02:00Z</time></trkpt><trkpt lat="41.67582101626786" lon="2.1645131656840437"><ele>447.0</ele><time>2026-04-02T15:02:01Z</time></trkpt><trkpt lat="41.67596130344082" lon="2.164633526268691"><ele>447.0</ele><time>2026-04-02T15:02:02Z</time></trkpt><trkpt lat="41.676097908773656" lon="2.164756866170192"><ele>447.0</ele><time>2026-04-02T15:02:03Z</time></trkpt><trkpt lat="41.67624647378704" lon="2.1648576845922487"><ele>449.33333333333337</ele><time>2026-04-02T15:02:04Z</time></trkpt><trkpt lat="41.676389797350915" lon="2.164929112747133"><ele>451.6666666666667</ele><time>2026-04-02T15:02:05Z</time></trkpt><trkpt lat="41.67653024656132" lon="2.1649856401584744"><ele>454.0</ele><time>2026-04-02T15:02:06Z</time></trkpt><trkpt lat="41.6766742018059" lon="2.1650448695361524"><ele>454.0</ele><time>2026-04-02T15:02:07Z</time></trkpt><trkpt lat="41.676818828253275" lon="2.165094943752755"><ele>454.0</ele><time>2026-04-02T15:02:08Z</time></trkpt><trkpt lat="41.676965334126706" lon="2.1651151736433096"><ele>454.0</ele><time>2026-04-02T15:02:09Z</time></trkpt><trkpt lat="41.67711421378924" lon="2.1651003717116484"><ele>454.0</ele><time>2026-04-02T15:02:10Z</time></trkpt><trkpt lat="41.67725348711429" lon="2.1650622834867366"><ele>454.25</ele><time>2026-04-02T15:02:11Z</time></trkpt><trkpt lat="41.677380061005785" lon="2.1649869078846584"><ele>454.5</ele><time>2026-04-02T15:02:12Z</time></trkpt><trkpt lat="41.677497437972505" lon="2.164888491127483"><ele>454.75</ele><time>2026-04-02T15:02:13Z</time></trkpt><trkpt lat="41.677606703977936" lon="2.164795114422885"><ele>455.0</ele><time>2026-04-02T15:02:14Z</time></trkpt><trkpt lat="41.67770772765871" lon="2.1647129530683467"><ele>455.0</ele><time>2026-04-02T15:02:15Z</time></trkpt><trkpt lat="41.67781134448918" lon="2.1646297590601664"><ele>455.0</ele><time>2026-04-02T15:02:16Z</time></trkpt><trkpt lat="41.67791310778736" lon="2.164545331633168"><ele>455.0</ele><time>2026-04-02T15:02:17Z</time></trkpt><trkpt lat="41.67801185530966" lon="2.1644619053667227"><ele>455.0</ele><time>2026-04-02T15:02:18Z</time></trkpt><trkpt lat="41.67810911968571" lon="2.1643802610063743"><ele>455.0</ele><time>2026-04-02T15:02:19Z</time></trkpt><trkpt lat="41.67821058805518" lon="2.1642944582564123"><ele>455.0</ele><time>2026-04-02T15:02:20Z</time></trkpt><trkpt lat="41.678303421080116" lon="2.1642153606122814"><ele>455.0</ele><time>2026-04-02T15:02:21Z</time></trkpt><trkpt lat="41.67838742835717" lon="2.1641442152847254"><ele>455.0</ele><time>2026-04-02T15:02:22Z</time></trkpt><trkpt lat="41.67846566186337" lon="2.164081915641468"><ele>455.0</ele><time>2026-04-02T15:02:23Z</time></trkpt><trkpt lat="41.67853955009345" lon="2.1640237568605247"><ele>453.2</ele><time>2026-04-02T15:02:24Z</time></trkpt><trkpt lat="41.678612795442234" lon="2.163964453273385"><ele>451.4</ele><time>2026-04-02T15:02:25Z</time></trkpt><trkpt lat="41.67868728219924" lon="2.1639029385288677"><ele>449.6</ele><time>2026-04-02T15:02:26Z</time></trkpt><trkpt lat="41.67876562991578" lon="2.1638361895433467"><ele>447.8</ele><time>2026-04-02T15:02:27Z</time></trkpt><trkpt lat="41.67884973286602" lon="2.163769203403918"><ele>446.0</ele><time>2026-04-02T15:02:28Z</time></trkpt><trkpt lat="41.67894553901719" lon="2.163721774841376"><ele>446.0</ele><time>2026-04-02T15:02:29Z</time></trkpt><trkpt lat="41.67904529203892" lon="2.163705845933446"><ele>446.0</ele><time>2026-04-02T15:02:30Z</time></trkpt><trkpt lat="41.67913976507894" lon="2.1637300916453017"><ele>446.0</ele><time>2026-04-02T15:02:31Z</time></trkpt><trkpt lat="41.679235257637174" lon="2.1637843016347786"><ele>446.0</ele><time>2026-04-02T15:02:32Z</time></trkpt><trkpt lat="41.67932356155724" lon="2.1638553838312213"><ele>446.0</ele><time>2026-04-02T15:02:33Z</time></trkpt><trkpt lat="41.67939992977924" lon="2.1639380487531312"><ele>448.4</ele><time>2026-04-02T15:02:34Z</time></trkpt><trkpt lat="41.67946834885996" lon="2.16403697842871"><ele>450.8</ele><time>2026-04-02T15:02:35Z</time></trkpt><trkpt lat="41.67953387845624" lon="2.164141556915522"><ele>453.19999999999993</ele><time>2026-04-02T15:02:36Z</time></trkpt><trkpt lat="41.6796080173352" lon="2.164234514226998"><ele>455.59999999999997</ele><time>2026-04-02T15:02:37Z</time></trkpt><trkpt lat="41.67969191762189" lon="2.1643035459033793"><ele>458.0</ele><time>2026-04-02T15:02:38Z</time></trkpt><trkpt lat="41.679784728217676" lon="2.164337000580564"><ele>458.0</ele><time>2026-04-02T15:02:39Z</time></trkpt><trkpt lat="41.67987740033057" lon="2.1643250953199256"><ele>457.99999999999994</ele><time>2026-04-02T15:02:40Z</time></trkpt><trkpt lat="41.679969774080874" lon="2.164277579427584"><ele>457.99999999999994</ele><time>2026-04-02T15:02:41Z</time></trkpt><trkpt lat="41.68005221291159" lon="2.1642055920883307"><ele>458.0</ele><time>2026-04-02T15:02:42Z</time></trkpt><trkpt lat="41.68013886916473" lon="2.1641366602320615"><ele>458.0</ele><time>2026-04-02T15:02:43Z</time></trkpt><trkpt lat="41.68023755408275" lon="2.1640785899828336"><ele>458.75</ele><time>2026-04-02T15:02:44Z</time></trkpt><trkpt lat="41.68033842764365" lon="2.1640016045308506"><ele>459.5</ele><time>2026-04-02T15:02:45Z</time></trkpt><trkpt lat="41.680439756329875" lon="2.1639251855297523"><ele>460.25</ele><time>2026-04-02T15:02:46Z</time></trkpt><trkpt lat="41.680542784861096" lon="2.1638504685847066"><ele>461.0</ele><time>2026-04-02T15:02:47Z</time></trkpt><trkpt lat="41.68064120928201" lon="2.16377713587853"><ele>461.0</ele><time>2026-04-02T15:02:48Z</time></trkpt><trkpt lat="41.680731092279565" lon="2.1637094082013095"><ele>461.0</ele><time>2026-04-02T15:02:49Z</time></trkpt><trkpt lat="41.68081476730484" lon="2.1636421621263984"><ele>461.0</ele><time>2026-04-02T15:02:50Z</time></trkpt><trkpt lat="41.68089856464299" lon="2.163576127286384"><ele>461.0</ele><time>2026-04-02T15:02:51Z</time></trkpt><trkpt lat="41.68098931389351" lon="2.1635110138117697"><ele>461.0</ele><time>2026-04-02T15:02:52Z</time></trkpt><trkpt lat="41.68107567094648" lon="2.1634380342487196"><ele>459.66666666666663</ele><time>2026-04-02T15:02:53Z</time></trkpt><trkpt lat="41.68115696499406" lon="2.1633747788793887"><ele>458.3333333333333</ele><time>2026-04-02T15:02:54Z</time></trkpt><trkpt lat="41.68123138746457" lon="2.163315884714777"><ele>457.0</ele><time>2026-04-02T15:02:55Z</time></trkpt><trkpt lat="41.681296849919924" lon="2.1632708008750496"><ele>455.66666666666663</ele><time>2026-04-02T15:02:56Z</time></trkpt><trkpt lat="41.68135339422886" lon="2.1632280685093748"><ele>454.3333333333333</ele><time>2026-04-02T15:02:57Z</time></trkpt><trkpt lat="41.6814561414127" lon="2.1631815870074176"><ele>453.0</ele><time>2026-04-02T15:02:59Z</time></trkpt><trkpt lat="41.68154004847811" lon="2.1632222662380265"><ele>453.0</ele><time>2026-04-02T15:03:01Z</time></trkpt><trkpt lat="41.68158305744517" lon="2.1632911191081408"><ele>452.99999999999994</ele><time>2026-04-02T15:03:02Z</time></trkpt><trkpt lat="41.68162549880688" lon="2.1633554136068587"><ele>452.99999999999994</ele><time>2026-04-02T15:03:03Z</time></trkpt><trkpt lat="41.681721512152194" lon="2.163430534317456"><ele>453.0</ele><time>2026-04-02T15:03:05Z</time></trkpt><trkpt lat="41.681821980389934" lon="2.1633755129715992"><ele>453.0</ele><time>2026-04-02T15:03:07Z</time></trkpt><trkpt lat="41.68187678738751" lon="2.163248164986543"><ele>452.0</ele><time>2026-04-02T15:03:09Z</time></trkpt><trkpt lat="41.68188888312929" lon="2.1631496507330854"><ele>450.99999999999994</ele><time>2026-04-02T15:03:11Z</time></trkpt><trkpt lat="41.68199947900835" lon="2.163129936897269"><ele>449.99999999999994</ele><time>2026-04-02T15:03:12Z</time></trkpt><trkpt lat="41.68211802460943" lon="2.1631296937343105"><ele>449.0</ele><time>2026-04-02T15:03:14Z</time></trkpt><trkpt lat="41.682190873024844" lon="2.1631344508223584"><ele>448.0</ele><time>2026-04-02T15:03:15Z</time></trkpt><trkpt lat="41.68226595458125" lon="2.1631345611832824"><ele>448.0</ele><time>2026-04-02T15:03:16Z</time></trkpt><trkpt lat="41.68234642935869" lon="2.1631355682444062"><ele>447.99999999999994</ele><time>2026-04-02T15:03:17Z</time></trkpt><trkpt lat="41.68243386980521" lon="2.163140722816371"><ele>447.99999999999994</ele><time>2026-04-02T15:03:18Z</time></trkpt><trkpt lat="41.68252792219818" lon="2.1631613151453366"><ele>448.0</ele><time>2026-04-02T15:03:19Z</time></trkpt><trkpt lat="41.68261926635037" lon="2.163186863275049"><ele>448.0</ele><time>2026-04-02T15:03:20Z</time></trkpt><trkpt lat="41.682713141317784" lon="2.163212496996679"><ele>450.0</ele><time>2026-04-02T15:03:21Z</time></trkpt><trkpt lat="41.682807027520305" lon="2.1632510396701026"><ele>451.99999999999994</ele><time>2026-04-02T15:03:22Z</time></trkpt><trkpt lat="41.68289345658609" lon="2.1633048611296926"><ele>453.99999999999994</ele><time>2026-04-02T15:03:23Z</time></trkpt><trkpt lat="41.68298309688022" lon="2.163344399491987"><ele>456.0</ele><time>2026-04-02T15:03:24Z</time></trkpt><trkpt lat="41.683072916168534" lon="2.163384566447706"><ele>458.0</ele><time>2026-04-02T15:03:25Z</time></trkpt><trkpt lat="41.683167295724814" lon="2.163427387441585"><ele>458.0</ele><time>2026-04-02T15:03:26Z</time></trkpt><trkpt lat="41.683266896861284" lon="2.1634721848948284"><ele>458.0</ele><time>2026-04-02T15:03:27Z</time></trkpt><trkpt lat="41.68337404855394" lon="2.1635247926374803"><ele>458.0</ele><time>2026-04-02T15:03:28Z</time></trkpt><trkpt lat="41.683489493573674" lon="2.1635799439806154"><ele>458.0</ele><time>2026-04-02T15:03:29Z</time></trkpt><trkpt lat="41.68359968366464" lon="2.163632972971031"><ele>460.25</ele><time>2026-04-02T15:03:30Z</time></trkpt><trkpt lat="41.68370587056631" lon="2.163693998923725"><ele>462.5</ele><time>2026-04-02T15:03:31Z</time></trkpt><trkpt lat="41.683819148127576" lon="2.1637300776602135"><ele>464.75</ele><time>2026-04-02T15:03:32Z</time></trkpt><trkpt lat="41.68394021338159" lon="2.163734689682803"><ele>467.0</ele><time>2026-04-02T15:03:33Z</time></trkpt><trkpt lat="41.684054936967094" lon="2.163730032573852"><ele>467.0</ele><time>2026-04-02T15:03:34Z</time></trkpt><trkpt lat="41.68416736595875" lon="2.1637217317064867"><ele>467.0</ele><time>2026-04-02T15:03:35Z</time></trkpt><trkpt lat="41.68427976713455" lon="2.163708664709689"><ele>467.0</ele><time>2026-04-02T15:03:36Z</time></trkpt><trkpt lat="41.68438928982336" lon="2.1636879328007916"><ele>467.0</ele><time>2026-04-02T15:03:37Z</time></trkpt><trkpt lat="41.68450719124295" lon="2.163672885520482"><ele>468.20000000000005</ele><time>2026-04-02T15:03:38Z</time></trkpt><trkpt lat="41.68461318370829" lon="2.1636382385207025"><ele>469.40000000000003</ele><time>2026-04-02T15:03:39Z</time></trkpt><trkpt lat="41.68471106993573" lon="2.1635908360160445"><ele>470.59999999999997</ele><time>2026-04-02T15:03:40Z</time></trkpt><trkpt lat="41.68480596038508" lon="2.1635489650016493"><ele>471.79999999999995</ele><time>2026-04-02T15:03:41Z</time></trkpt><trkpt lat="41.68489483890976" lon="2.1634944338307185"><ele>473.0</ele><time>2026-04-02T15:03:42Z</time></trkpt><trkpt lat="41.68498782568352" lon="2.1634552190644376"><ele>473.0</ele><time>2026-04-02T15:03:43Z</time></trkpt><trkpt lat="41.68507486840275" lon="2.163410817601224"><ele>472.99999999999994</ele><time>2026-04-02T15:03:44Z</time></trkpt><trkpt lat="41.6851652187225" lon="2.1633638265375006"><ele>472.99999999999994</ele><time>2026-04-02T15:03:45Z</time></trkpt><trkpt lat="41.68525706182135" lon="2.1633404938834273"><ele>473.0</ele><time>2026-04-02T15:03:46Z</time></trkpt><trkpt lat="41.68534989132685" lon="2.1633345038194616"><ele>473.0</ele><time>2026-04-02T15:03:47Z</time></trkpt><trkpt lat="41.685442423253285" lon="2.1633551181585946"><ele>473.59999999999997</ele><time>2026-04-02T15:03:48Z</time></trkpt><trkpt lat="41.68554249772087" lon="2.1633336039351696"><ele>474.19999999999993</ele><time>2026-04-02T15:03:49Z</time></trkpt><trkpt lat="41.68564073219756" lon="2.163343089369406"><ele>474.8</ele><time>2026-04-02T15:03:50Z</time></trkpt><trkpt lat="41.685734128287706" lon="2.1633553270693513"><ele>475.4</ele><time>2026-04-02T15:03:51Z</time></trkpt><trkpt lat="41.68583082689454" lon="2.163356142295899"><ele>476.0</ele><time>2026-04-02T15:03:52Z</time></trkpt><trkpt lat="41.68593178983045" lon="2.1633573669226625"><ele>476.0</ele><time>2026-04-02T15:03:53Z</time></trkpt><trkpt lat="41.68602323549581" lon="2.1633586376532143"><ele>476.0</ele><time>2026-04-02T15:03:54Z</time></trkpt><trkpt lat="41.68611623606246" lon="2.1633639094564865"><ele>476.0</ele><time>2026-04-02T15:03:55Z</time></trkpt><trkpt lat="41.686206733728824" lon="2.1633611289128254"><ele>476.0</ele><time>2026-04-02T15:03:56Z</time></trkpt><trkpt lat="41.68629059377113" lon="2.1633967651667274"><ele>476.0</ele><time>2026-04-02T15:03:57Z</time></trkpt><trkpt lat="41.686384090239905" lon="2.163430658846722"><ele>476.6</ele><time>2026-04-02T15:03:58Z</time></trkpt><trkpt lat="41.686467595283524" lon="2.1634959808168652"><ele>477.20000000000005</ele><time>2026-04-02T15:03:59Z</time></trkpt><trkpt lat="41.68655125581835" lon="2.163547943477009"><ele>477.79999999999995</ele><time>2026-04-02T15:04:00Z</time></trkpt><trkpt lat="41.686638173622896" lon="2.1635987570151567"><ele>478.4</ele><time>2026-04-02T15:04:01Z</time></trkpt><trkpt lat="41.686723384712586" lon="2.1636597647144256"><ele>479.0</ele><time>2026-04-02T15:04:02Z</time></trkpt><trkpt lat="41.686805211873164" lon="2.1637152549139183"><ele>478.99999999999994</ele><time>2026-04-02T15:04:03Z</time></trkpt><trkpt lat="41.68687103327922" lon="2.16373767921922"><ele>479.0</ele><time>2026-04-02T15:04:04Z</time></trkpt><trkpt lat="41.68694248448974" lon="2.1637772825501966"><ele>479.0</ele><time>2026-04-02T15:04:05Z</time></trkpt><trkpt lat="41.686998974444734" lon="2.1638157157719293"><ele>479.0</ele><time>2026-04-02T15:04:06Z</time></trkpt><trkpt lat="41.68707883557964" lon="2.1638784375164257"><ele>478.99999999999994</ele><time>2026-04-02T15:04:08Z</time></trkpt><trkpt lat="41.68717549543704" lon="2.163960174539403"><ele>479.0</ele><time>2026-04-02T15:04:10Z</time></trkpt><trkpt lat="41.68727202188355" lon="2.1640385447010777"><ele>479.79999999999995</ele><time>2026-04-02T15:04:12Z</time></trkpt><trkpt lat="41.68736473735165" lon="2.1641063491893964"><ele>480.59999999999997</ele><time>2026-04-02T15:04:14Z</time></trkpt><trkpt lat="41.68745923732568" lon="2.1641876610526207"><ele>481.4</ele><time>2026-04-02T15:04:16Z</time></trkpt><trkpt lat="41.68757276484065" lon="2.164278731365722"><ele>482.2</ele><time>2026-04-02T15:04:18Z</time></trkpt><trkpt lat="41.68764115228353" lon="2.164327542360868"><ele>483.0</ele><time>2026-04-02T15:04:19Z</time></trkpt><trkpt lat="41.68771358854264" lon="2.164389083488623"><ele>482.8333333333333</ele><time>2026-04-02T15:04:20Z</time></trkpt><trkpt lat="41.68778619952352" lon="2.1644461720764996"><ele>482.66666666666663</ele><time>2026-04-02T15:04:21Z</time></trkpt><trkpt lat="41.68785540029123" lon="2.1645049389080833"><ele>482.5</ele><time>2026-04-02T15:04:22Z</time></trkpt><trkpt lat="41.68791145187522" lon="2.1645799859727646"><ele>482.3333333333333</ele><time>2026-04-02T15:04:23Z</time></trkpt><trkpt lat="41.68797941407547" lon="2.164637390210378"><ele>482.16666666666663</ele><time>2026-04-02T15:04:24Z</time></trkpt><trkpt lat="41.68803728707805" lon="2.164695085511875"><ele>482.0</ele><time>2026-04-02T15:04:25Z</time></trkpt><trkpt lat="41.688112462160845" lon="2.1647408933363335"><ele>481.99999999999994</ele><time>2026-04-02T15:04:26Z</time></trkpt><trkpt lat="41.68817272959536" lon="2.1647998584513264"><ele>482.0</ele><time>2026-04-02T15:04:27Z</time></trkpt><trkpt lat="41.68824020041521" lon="2.164864239337931"><ele>482.0</ele><time>2026-04-02T15:04:28Z</time></trkpt><trkpt lat="41.688308570073076" lon="2.164922153552868"><ele>482.0</ele><time>2026-04-02T15:04:29Z</time></trkpt><trkpt lat="41.68837125171356" lon="2.1649903578819076"><ele>481.99999999999994</ele><time>2026-04-02T15:04:30Z</time></trkpt><trkpt lat="41.68843447469481" lon="2.165053729192607"><ele>482.0</ele><time>2026-04-02T15:04:31Z</time></trkpt><trkpt lat="41.68849692082187" lon="2.1651220497854666"><ele>482.66666666666663</ele><time>2026-04-02T15:04:32Z</time></trkpt><trkpt lat="41.6885535852512" lon="2.165183058201721"><ele>483.3333333333333</ele><time>2026-04-02T15:04:33Z</time></trkpt><trkpt lat="41.68860705889315" lon="2.165234986750801"><ele>484.0</ele><time>2026-04-02T15:04:34Z</time></trkpt><trkpt lat="41.68866062629355" lon="2.1653423087420167"><ele>484.66666666666663</ele><time>2026-04-02T15:04:36Z</time></trkpt><trkpt lat="41.68863729127991" lon="2.165423645398536"><ele>485.3333333333333</ele><time>2026-04-02T15:04:37Z</time></trkpt><trkpt lat="41.6885687666912" lon="2.1655478457776103"><ele>486.0</ele><time>2026-04-02T15:04:39Z</time></trkpt><trkpt lat="41.68853833055836" lon="2.165686593908124"><ele>485.6</ele><time>2026-04-02T15:04:41Z</time></trkpt><trkpt lat="41.68855715964562" lon="2.1658169475132905"><ele>485.20000000000005</ele><time>2026-04-02T15:04:43Z</time></trkpt><trkpt lat="41.688642271999484" lon="2.165901767967376"><ele>484.79999999999995</ele><time>2026-04-02T15:04:45Z</time></trkpt><trkpt lat="41.68871598181729" lon="2.165928415449411"><ele>484.4</ele><time>2026-04-02T15:04:47Z</time></trkpt><trkpt lat="41.68880697793673" lon="2.165961585269057"><ele>484.0</ele><time>2026-04-02T15:04:50Z</time></trkpt><trkpt lat="41.68889858569972" lon="2.165995272194049"><ele>486.4</ele><time>2026-04-02T15:04:52Z</time></trkpt><trkpt lat="41.68899021845854" lon="2.1660596265960477"><ele>488.79999999999995</ele><time>2026-04-02T15:04:54Z</time></trkpt><trkpt lat="41.689082259918365" lon="2.1660969815023554"><ele>491.20000000000005</ele><time>2026-04-02T15:04:56Z</time></trkpt><trkpt lat="41.68917366722697" lon="2.1661392285262075"><ele>493.6</ele><time>2026-04-02T15:04:58Z</time></trkpt><trkpt lat="41.68927801284501" lon="2.166183385970076"><ele>496.0</ele><time>2026-04-02T15:05:00Z</time></trkpt><trkpt lat="41.68939339863571" lon="2.166242376367266"><ele>497.00000000000006</ele><time>2026-04-02T15:05:02Z</time></trkpt><trkpt lat="41.68947427557427" lon="2.166272806218953"><ele>498.0</ele><time>2026-04-02T15:05:03Z</time></trkpt><trkpt lat="41.689547091315724" lon="2.166320630934355"><ele>499.0</ele><time>2026-04-02T15:05:04Z</time></trkpt><trkpt lat="41.68958680722333" lon="2.166400127322327"><ele>500.0</ele><time>2026-04-02T15:05:05Z</time></trkpt><trkpt lat="41.68963677564728" lon="2.166513179181956"><ele>501.00000000000006</ele><time>2026-04-02T15:05:06Z</time></trkpt><trkpt lat="41.689652408293654" lon="2.1666385409537967"><ele>502.0</ele><time>2026-04-02T15:05:07Z</time></trkpt><trkpt lat="41.68965631883503" lon="2.1667526365888743"><ele>502.6</ele><time>2026-04-02T15:05:08Z</time></trkpt><trkpt lat="41.68967328194357" lon="2.166898439091006"><ele>503.20000000000005</ele><time>2026-04-02T15:05:09Z</time></trkpt><trkpt lat="41.68965994443538" lon="2.1670401972893827"><ele>503.8</ele><time>2026-04-02T15:05:10Z</time></trkpt><trkpt lat="41.68966783593038" lon="2.1671825883059643"><ele>504.4</ele><time>2026-04-02T15:05:11Z</time></trkpt><trkpt lat="41.68967001781139" lon="2.167324984555085"><ele>505.0</ele><time>2026-04-02T15:05:12Z</time></trkpt><trkpt lat="41.689670236396005" lon="2.1674545011759645"><ele>505.33333333333337</ele><time>2026-04-02T15:05:13Z</time></trkpt><trkpt lat="41.68967255676217" lon="2.167566782905023"><ele>505.6666666666667</ele><time>2026-04-02T15:05:14Z</time></trkpt><trkpt lat="41.68968061881148" lon="2.1676842018808857"><ele>506.0</ele><time>2026-04-02T15:05:15Z</time></trkpt><trkpt lat="41.68969305938905" lon="2.167796893491004"><ele>506.33333333333337</ele><time>2026-04-02T15:05:16Z</time></trkpt><trkpt lat="41.68971679568096" lon="2.1679025043623605"><ele>506.6666666666667</ele><time>2026-04-02T15:05:17Z</time></trkpt><trkpt lat="41.68974926119331" lon="2.1680065189856457"><ele>507.0</ele><time>2026-04-02T15:05:18Z</time></trkpt><trkpt lat="41.689782657422164" lon="2.1681039704039016"><ele>507.1666666666667</ele><time>2026-04-02T15:05:19Z</time></trkpt><trkpt lat="41.68982159230826" lon="2.1682002479450206"><ele>507.33333333333337</ele><time>2026-04-02T15:05:20Z</time></trkpt><trkpt lat="41.68985085623872" lon="2.168303276445626"><ele>507.5</ele><time>2026-04-02T15:05:21Z</time></trkpt><trkpt lat="41.68987653035096" lon="2.168400420615272"><ele>507.6666666666667</ele><time>2026-04-02T15:05:22Z</time></trkpt><trkpt lat="41.689910375499544" lon="2.1685040872380514"><ele>507.83333333333337</ele><time>2026-04-02T15:05:23Z</time></trkpt><trkpt lat="41.68992221116815" lon="2.168627860313383"><ele>508.0</ele><time>2026-04-02T15:05:24Z</time></trkpt><trkpt lat="41.6899128894749" lon="2.1687467536007166"><ele>508.0</ele><time>2026-04-02T15:05:25Z</time></trkpt><trkpt lat="41.68991111116135" lon="2.1688817743293174"><ele>507.99999999999994</ele><time>2026-04-02T15:05:26Z</time></trkpt><trkpt lat="41.689900235392194" lon="2.169009706159699"><ele>507.99999999999994</ele><time>2026-04-02T15:05:27Z</time></trkpt><trkpt lat="41.6898920743243" lon="2.16913578999396"><ele>508.0</ele><time>2026-04-02T15:05:28Z</time></trkpt><trkpt lat="41.68987998993162" lon="2.1692588077454955"><ele>508.0</ele><time>2026-04-02T15:05:29Z</time></trkpt><trkpt lat="41.68987047997199" lon="2.169379232723522"><ele>507.50000000000006</ele><time>2026-04-02T15:05:30Z</time></trkpt><trkpt lat="41.689862484160436" lon="2.1694821921538385"><ele>507.0</ele><time>2026-04-02T15:05:31Z</time></trkpt><trkpt lat="41.68986362573453" lon="2.1695783969843894"><ele>506.5</ele><time>2026-04-02T15:05:32Z</time></trkpt><trkpt lat="41.689880917018705" lon="2.169675095106814"><ele>506.0</ele><time>2026-04-02T15:05:33Z</time></trkpt><trkpt lat="41.68992178586769" lon="2.1697626115670676"><ele>505.50000000000006</ele><time>2026-04-02T15:05:34Z</time></trkpt><trkpt lat="41.689990373266255" lon="2.1698257248966883"><ele>505.0</ele><time>2026-04-02T15:05:35Z</time></trkpt><trkpt lat="41.690078850706264" lon="2.1698533972982754"><ele>505.0</ele><time>2026-04-02T15:05:36Z</time></trkpt><trkpt lat="41.69017480046347" lon="2.1698577718194327"><ele>505.0</ele><time>2026-04-02T15:05:37Z</time></trkpt><trkpt lat="41.69027265590347" lon="2.169851422454079"><ele>505.0</ele><time>2026-04-02T15:05:38Z</time></trkpt><trkpt lat="41.69037155851774" lon="2.1698336873917565"><ele>505.0</ele><time>2026-04-02T15:05:39Z</time></trkpt><trkpt lat="41.690460625973614" lon="2.1698114504891923"><ele>505.0</ele><time>2026-04-02T15:05:40Z</time></trkpt><trkpt lat="41.69054708743425" lon="2.169795868304233"><ele>508.0</ele><time>2026-04-02T15:05:41Z</time></trkpt><trkpt lat="41.690639729389325" lon="2.1697834279382175"><ele>511.0</ele><time>2026-04-02T15:05:42Z</time></trkpt><trkpt lat="41.69073527483881" lon="2.1697661368813517"><ele>514.0</ele><time>2026-04-02T15:05:43Z</time></trkpt><trkpt lat="41.690834337713085" lon="2.169748254622371"><ele>517.0</ele><time>2026-04-02T15:05:44Z</time></trkpt><trkpt lat="41.69093445274773" lon="2.169733649986104"><ele>520.0</ele><time>2026-04-02T15:05:45Z</time></trkpt><trkpt lat="41.691037299505076" lon="2.1697160570212444"><ele>521.8</ele><time>2026-04-02T15:05:46Z</time></trkpt><trkpt lat="41.69114191823586" lon="2.1697092844075305"><ele>523.6</ele><time>2026-04-02T15:05:47Z</time></trkpt><trkpt lat="41.69124567727659" lon="2.1697298295974403"><ele>525.4</ele><time>2026-04-02T15:05:48Z</time></trkpt><trkpt lat="41.69134006264472" lon="2.1697717748336363"><ele>527.2</ele><time>2026-04-02T15:05:49Z</time></trkpt><trkpt lat="41.6914122679086" lon="2.169812712450874"><ele>529.0</ele><time>2026-04-02T15:05:50Z</time></trkpt><trkpt lat="41.69148295625003" lon="2.1698538448361977"><ele>529.5</ele><time>2026-04-02T15:05:51Z</time></trkpt><trkpt lat="41.69156122883685" lon="2.1698949459136987"><ele>530.0</ele><time>2026-04-02T15:05:52Z</time></trkpt><trkpt lat="41.691644266826984" lon="2.1699385323114844"><ele>530.5</ele><time>2026-04-02T15:05:53Z</time></trkpt><trkpt lat="41.69172905248993" lon="2.1699843277647446"><ele>531.0</ele><time>2026-04-02T15:05:54Z</time></trkpt><trkpt lat="41.69181078112404" lon="2.1700308058909545"><ele>531.5</ele><time>2026-04-02T15:05:55Z</time></trkpt><trkpt lat="41.69189064187294" lon="2.170076364342062"><ele>532.0</ele><time>2026-04-02T15:05:56Z</time></trkpt><trkpt lat="41.691973320940406" lon="2.1700991946764265"><ele>532.0</ele><time>2026-04-02T15:05:57Z</time></trkpt><trkpt lat="41.692053108611" lon="2.170142947484291"><ele>532.0</ele><time>2026-04-02T15:05:58Z</time></trkpt><trkpt lat="41.69213444948401" lon="2.1701767953027624"><ele>532.0</ele><time>2026-04-02T15:05:59Z</time></trkpt><trkpt lat="41.69221281599531" lon="2.1702130008643357"><ele>532.0</ele><time>2026-04-02T15:06:00Z</time></trkpt><trkpt lat="41.692296378926194" lon="2.170256864924179"><ele>532.0</ele><time>2026-04-02T15:06:01Z</time></trkpt><trkpt lat="41.6923847057083" lon="2.1703134194099514"><ele>532.0</ele><time>2026-04-02T15:06:02Z</time></trkpt><trkpt lat="41.69247428377827" lon="2.1703751235042823"><ele>532.0</ele><time>2026-04-02T15:06:03Z</time></trkpt><trkpt lat="41.692564344347275" lon="2.170444239014889"><ele>532.0</ele><time>2026-04-02T15:06:04Z</time></trkpt><trkpt lat="41.692657338267544" lon="2.170512104979293"><ele>532.0</ele><time>2026-04-02T15:06:05Z</time></trkpt><trkpt lat="41.69275080619367" lon="2.170586589293848"><ele>532.0</ele><time>2026-04-02T15:06:06Z</time></trkpt><trkpt lat="41.69284777103351" lon="2.170662183531135"><ele>532.0</ele><time>2026-04-02T15:06:07Z</time></trkpt><trkpt lat="41.69294505523603" lon="2.1707472197745927"><ele>531.6</ele><time>2026-04-02T15:06:08Z</time></trkpt><trkpt lat="41.693045277279346" lon="2.1708301659468168"><ele>531.2</ele><time>2026-04-02T15:06:09Z</time></trkpt><trkpt lat="41.69314207788172" lon="2.170904686678648"><ele>530.8</ele><time>2026-04-02T15:06:10Z</time></trkpt><trkpt lat="41.69323161464209" lon="2.1709764502386464"><ele>530.4</ele><time>2026-04-02T15:06:11Z</time></trkpt><trkpt lat="41.693324947801784" lon="2.1710500723179003"><ele>530.0</ele><time>2026-04-02T15:06:12Z</time></trkpt><trkpt lat="41.693417642569564" lon="2.1711255551487874"><ele>530.0</ele><time>2026-04-02T15:06:13Z</time></trkpt><trkpt lat="41.6935033686025" lon="2.171195983216607"><ele>530.0</ele><time>2026-04-02T15:06:14Z</time></trkpt><trkpt lat="41.69359118429834" lon="2.171263767591722"><ele>530.0</ele><time>2026-04-02T15:06:15Z</time></trkpt><trkpt lat="41.69368429817836" lon="2.1713369439385897"><ele>530.0</ele><time>2026-04-02T15:06:16Z</time></trkpt><trkpt lat="41.69377952367336" lon="2.171411762814065"><ele>530.0</ele><time>2026-04-02T15:06:17Z</time></trkpt><trkpt lat="41.693873394719425" lon="2.1714881013933276"><ele>531.0</ele><time>2026-04-02T15:06:18Z</time></trkpt><trkpt lat="41.69397135800417" lon="2.17156629528275"><ele>532.0</ele><time>2026-04-02T15:06:19Z</time></trkpt><trkpt lat="41.69407098443284" lon="2.171645013751439"><ele>533.0</ele><time>2026-04-02T15:06:20Z</time></trkpt><trkpt lat="41.69417161836118" lon="2.1717235106109265"><ele>534.0</ele><time>2026-04-02T15:06:21Z</time></trkpt><trkpt lat="41.69427195159526" lon="2.171805879897184"><ele>534.0</ele><time>2026-04-02T15:06:22Z</time></trkpt><trkpt lat="41.69436540050434" lon="2.1718818847072283"><ele>534.0</ele><time>2026-04-02T15:06:23Z</time></trkpt><trkpt lat="41.69445609957716" lon="2.171951993292224"><ele>534.0</ele><time>2026-04-02T15:06:24Z</time></trkpt><trkpt lat="41.69454526618236" lon="2.172026390419056"><ele>534.0</ele><time>2026-04-02T15:06:25Z</time></trkpt><trkpt lat="41.694632475857304" lon="2.1720988696468324"><ele>534.0</ele><time>2026-04-02T15:06:26Z</time></trkpt><trkpt lat="41.69471261494211" lon="2.1721550664533953"><ele>535.3333333333334</ele><time>2026-04-02T15:06:27Z</time></trkpt><trkpt lat="41.69478082771751" lon="2.1722085472460138"><ele>536.6666666666666</ele><time>2026-04-02T15:06:28Z</time></trkpt><trkpt lat="41.69485064755865" lon="2.172243353239445"><ele>538.0</ele><time>2026-04-02T15:06:29Z</time></trkpt><trkpt lat="41.69491536417199" lon="2.1722694330865866"><ele>539.3333333333333</ele><time>2026-04-02T15:06:30Z</time></trkpt><trkpt lat="41.69501263284336" lon="2.1723072265632712"><ele>540.6666666666666</ele><time>2026-04-02T15:06:32Z</time></trkpt><trkpt lat="41.69508246857479" lon="2.1723586832407884"><ele>542.0</ele><time>2026-04-02T15:06:34Z</time></trkpt><trkpt lat="41.695156357808365" lon="2.1723413882283915"><ele>542.75</ele><time>2026-04-02T15:06:37Z</time></trkpt><trkpt lat="41.695093089112056" lon="2.172274987136394"><ele>543.5</ele><time>2026-04-02T15:06:50Z</time></trkpt><trkpt lat="41.69517406665684" lon="2.172325529977776"><ele>544.25</ele><time>2026-04-02T15:06:51Z</time></trkpt><trkpt lat="41.694926334033816" lon="2.172225549160098"><ele>545.0</ele><time>2026-04-02T15:06:52Z</time></trkpt><trkpt lat="41.69481874274436" lon="2.1721934756111274"><ele>545.0</ele><time>2026-04-02T15:06:53Z</time></trkpt><trkpt lat="41.694710177720665" lon="2.172133008146175"><ele>545.0</ele><time>2026-04-02T15:06:54Z</time></trkpt><trkpt lat="41.694595989994475" lon="2.172042688095954"><ele>545.0</ele><time>2026-04-02T15:06:55Z</time></trkpt><trkpt lat="41.69447763873723" lon="2.171940497375723"><ele>545.0</ele><time>2026-04-02T15:06:56Z</time></trkpt><trkpt lat="41.6943541615378" lon="2.1718416270764855"><ele>541.3333333333333</ele><time>2026-04-02T15:06:57Z</time></trkpt><trkpt lat="41.69422470512909" lon="2.171738078874248"><ele>537.6666666666666</ele><time>2026-04-02T15:06:58Z</time></trkpt><trkpt lat="41.69408836395698" lon="2.171629971950674"><ele>534.0</ele><time>2026-04-02T15:06:59Z</time></trkpt><trkpt lat="41.69394854387964" lon="2.171524683290061"><ele>532.6666666666666</ele><time>2026-04-02T15:07:00Z</time></trkpt><trkpt lat="41.6938039290239" lon="2.1714069154769637"><ele>531.3333333333333</ele><time>2026-04-02T15:07:01Z</time></trkpt><trkpt lat="41.69366075717368" lon="2.1712907891757602"><ele>530.0</ele><time>2026-04-02T15:07:02Z</time></trkpt><trkpt lat="41.693528299350426" lon="2.1711844097980775"><ele>530.0</ele><time>2026-04-02T15:07:03Z</time></trkpt><trkpt lat="41.69340362755267" lon="2.171081261270677"><ele>530.0</ele><time>2026-04-02T15:07:04Z</time></trkpt><trkpt lat="41.69328447045857" lon="2.170981627888018"><ele>530.0</ele><time>2026-04-02T15:07:05Z</time></trkpt><trkpt lat="41.693170150884136" lon="2.1708850997093747"><ele>530.0</ele><time>2026-04-02T15:07:06Z</time></trkpt><trkpt lat="41.693049863625504" lon="2.1707817629624464"><ele>530.6666666666666</ele><time>2026-04-02T15:07:07Z</time></trkpt><trkpt lat="41.69292050664705" lon="2.1706774322339095"><ele>531.3333333333334</ele><time>2026-04-02T15:07:08Z</time></trkpt><trkpt lat="41.69278853201459" lon="2.1705646097459828"><ele>532.0</ele><time>2026-04-02T15:07:09Z</time></trkpt><trkpt lat="41.692660298139096" lon="2.170459959963292"><ele>532.0</ele><time>2026-04-02T15:07:10Z</time></trkpt><trkpt lat="41.692530713038856" lon="2.17034909761143"><ele>532.0</ele><time>2026-04-02T15:07:11Z</time></trkpt><trkpt lat="41.692391317914954" lon="2.1702624962038826"><ele>532.0</ele><time>2026-04-02T15:07:12Z</time></trkpt><trkpt lat="41.692252229718186" lon="2.1701855401835743"><ele>532.0</ele><time>2026-04-02T15:07:13Z</time></trkpt><trkpt lat="41.692108054524695" lon="2.1701100090362853"><ele>532.0</ele><time>2026-04-02T15:07:14Z</time></trkpt><trkpt lat="41.69196342870932" lon="2.1700429845567855"><ele>532.0</ele><time>2026-04-02T15:07:15Z</time></trkpt><trkpt lat="41.691821535426094" lon="2.16997024757295"><ele>531.25</ele><time>2026-04-02T15:07:16Z</time></trkpt><trkpt lat="41.69167642011754" lon="2.1698946971939215"><ele>530.5</ele><time>2026-04-02T15:07:17Z</time></trkpt><trkpt lat="41.69153990904157" lon="2.169822148094183"><ele>529.75</ele><time>2026-04-02T15:07:18Z</time></trkpt><trkpt lat="41.691407674865864" lon="2.1697540263502475"><ele>529.0</ele><time>2026-04-02T15:07:19Z</time></trkpt><trkpt lat="41.69127135758221" lon="2.1696952736073523"><ele>529.0</ele><time>2026-04-02T15:07:20Z</time></trkpt><trkpt lat="41.69112586261385" lon="2.169673296464539"><ele>529.0</ele><time>2026-04-02T15:07:21Z</time></trkpt><trkpt lat="41.690976096876945" lon="2.1696903119623516"><ele>529.0</ele><time>2026-04-02T15:07:22Z</time></trkpt><trkpt lat="41.69083641361025" lon="2.1697140455094104"><ele>529.0</ele><time>2026-04-02T15:07:23Z</time></trkpt><trkpt lat="41.69069370267259" lon="2.1697457184212405"><ele>526.75</ele><time>2026-04-02T15:07:24Z</time></trkpt><trkpt lat="41.69055105789017" lon="2.1697731656051085"><ele>524.5</ele><time>2026-04-02T15:07:25Z</time></trkpt><trkpt lat="41.69041562045505" lon="2.1697897029537616"><ele>522.25</ele><time>2026-04-02T15:07:26Z</time></trkpt><trkpt lat="41.69028299287753" lon="2.169802688137514"><ele>520.0</ele><time>2026-04-02T15:07:27Z</time></trkpt><trkpt lat="41.69016867017391" lon="2.1698090929924474"><ele>517.0</ele><time>2026-04-02T15:07:28Z</time></trkpt><trkpt lat="41.69006989070835" lon="2.169799697139285"><ele>514.0</ele><time>2026-04-02T15:07:29Z</time></trkpt><trkpt lat="41.689973524529165" lon="2.16973548844653"><ele>511.0</ele><time>2026-04-02T15:07:30Z</time></trkpt><trkpt lat="41.68990904226501" lon="2.1696213068751646"><ele>508.0</ele><time>2026-04-02T15:07:31Z</time></trkpt><trkpt lat="41.68991047383954" lon="2.1694778594637576"><ele>505.0</ele><time>2026-04-02T15:07:32Z</time></trkpt><trkpt lat="41.68990768832924" lon="2.1693300193358107"><ele>505.0</ele><time>2026-04-02T15:07:33Z</time></trkpt><trkpt lat="41.68992751591355" lon="2.1691781389307314"><ele>505.0</ele><time>2026-04-02T15:07:34Z</time></trkpt><trkpt lat="41.68993486281802" lon="2.169036979581147"><ele>505.0</ele><time>2026-04-02T15:07:35Z</time></trkpt><trkpt lat="41.689936473715015" lon="2.1688931049384563"><ele>505.0</ele><time>2026-04-02T15:07:36Z</time></trkpt><trkpt lat="41.689936427286796" lon="2.168746536427908"><ele>505.0</ele><time>2026-04-02T15:07:37Z</time></trkpt><trkpt lat="41.68992821681398" lon="2.16858373006403"><ele>505.5</ele><time>2026-04-02T15:07:38Z</time></trkpt><trkpt lat="41.689906113771706" lon="2.1684263454004267"><ele>506.0</ele><time>2026-04-02T15:07:39Z</time></trkpt><trkpt lat="41.68987364458023" lon="2.168269178087498"><ele>506.5</ele><time>2026-04-02T15:07:40Z</time></trkpt><trkpt lat="41.689819720560685" lon="2.1681203309161816"><ele>507.0</ele><time>2026-04-02T15:07:41Z</time></trkpt><trkpt lat="41.68976970413559" lon="2.1679811437403598"><ele>507.0</ele><time>2026-04-02T15:07:42Z</time></trkpt><trkpt lat="41.6897285456706" lon="2.167849101215142"><ele>507.00000000000006</ele><time>2026-04-02T15:07:43Z</time></trkpt><trkpt lat="41.689705989202075" lon="2.1677163129915993"><ele>507.00000000000006</ele><time>2026-04-02T15:07:44Z</time></trkpt><trkpt lat="41.68969895970512" lon="2.167583611255683"><ele>507.0</ele><time>2026-04-02T15:07:45Z</time></trkpt><trkpt lat="41.689698001738215" lon="2.1674550739300438"><ele>507.0</ele><time>2026-04-02T15:07:46Z</time></trkpt><trkpt lat="41.68969741825362" lon="2.167322614131901"><ele>506.6</ele><time>2026-04-02T15:07:47Z</time></trkpt><trkpt lat="41.68968977283761" lon="2.167188598980419"><ele>506.20000000000005</ele><time>2026-04-02T15:07:48Z</time></trkpt><trkpt lat="41.68968473463627" lon="2.1670531345354838"><ele>505.8</ele><time>2026-04-02T15:07:49Z</time></trkpt><trkpt lat="41.68968934204471" lon="2.1669263624703174"><ele>505.4</ele><time>2026-04-02T15:07:50Z</time></trkpt><trkpt lat="41.68968573247005" lon="2.166793433378025"><ele>505.0</ele><time>2026-04-02T15:07:51Z</time></trkpt><trkpt lat="41.68968384460811" lon="2.1666697011096017"><ele>505.00000000000006</ele><time>2026-04-02T15:07:52Z</time></trkpt><trkpt lat="41.68967459787808" lon="2.1665481761205347"><ele>505.0</ele><time>2026-04-02T15:07:53Z</time></trkpt><trkpt lat="41.68964124251844" lon="2.166434380633666"><ele>505.0</ele><time>2026-04-02T15:07:54Z</time></trkpt><trkpt lat="41.68958380179603" lon="2.1663394442201853"><ele>505.0</ele><time>2026-04-02T15:07:55Z</time></trkpt><trkpt lat="41.6895117685371" lon="2.1662678857483852"><ele>505.00000000000006</ele><time>2026-04-02T15:07:56Z</time></trkpt><trkpt lat="41.68943221196631" lon="2.1662261012390953"><ele>505.0</ele><time>2026-04-02T15:07:57Z</time></trkpt><trkpt lat="41.68936610560107" lon="2.166203811281943"><ele>503.2</ele><time>2026-04-02T15:07:58Z</time></trkpt><trkpt lat="41.68926921602569" lon="2.166244132098386"><ele>501.4</ele><time>2026-04-02T15:08:00Z</time></trkpt><trkpt lat="41.68922396552518" lon="2.166396773834964"><ele>499.6</ele><time>2026-04-02T15:08:02Z</time></trkpt><trkpt lat="41.689199491507296" lon="2.1664948852854375"><ele>497.8</ele><time>2026-04-02T15:08:03Z</time></trkpt><trkpt lat="41.689167945353645" lon="2.166606481783047"><ele>496.0</ele><time>2026-04-02T15:08:04Z</time></trkpt><trkpt lat="41.68914667761168" lon="2.166721044252061"><ele>495.4</ele><time>2026-04-02T15:08:05Z</time></trkpt><trkpt lat="41.689113993747604" lon="2.1668294575037486"><ele>494.8</ele><time>2026-04-02T15:08:06Z</time></trkpt><trkpt lat="41.68908089108564" lon="2.166948462272619"><ele>494.19999999999993</ele><time>2026-04-02T15:08:07Z</time></trkpt><trkpt lat="41.68906958685166" lon="2.167073705569198"><ele>493.59999999999997</ele><time>2026-04-02T15:08:08Z</time></trkpt><trkpt lat="41.689067555175576" lon="2.1672141264679365"><ele>493.0</ele><time>2026-04-02T15:08:09Z</time></trkpt><trkpt lat="41.68906879895315" lon="2.167350909559041"><ele>493.0</ele><time>2026-04-02T15:08:10Z</time></trkpt><trkpt lat="41.689075039818945" lon="2.1674972444797422"><ele>492.99999999999994</ele><time>2026-04-02T15:08:11Z</time></trkpt><trkpt lat="41.689090956994995" lon="2.1676416496383397"><ele>492.99999999999994</ele><time>2026-04-02T15:08:12Z</time></trkpt><trkpt lat="41.68910232815677" lon="2.1677854400699887"><ele>493.0</ele><time>2026-04-02T15:08:13Z</time></trkpt><trkpt lat="41.68909693297843" lon="2.1679145110022864"><ele>493.0</ele><time>2026-04-02T15:08:14Z</time></trkpt><trkpt lat="41.68909059085688" lon="2.168023912600398"><ele>493.0</ele><time>2026-04-02T15:08:15Z</time></trkpt><trkpt lat="41.68912223727847" lon="2.1681258563346137"><ele>492.99999999999994</ele><time>2026-04-02T15:08:16Z</time></trkpt><trkpt lat="41.689164564200816" lon="2.1682191564392674"><ele>492.99999999999994</ele><time>2026-04-02T15:08:17Z</time></trkpt><trkpt lat="41.68923353954532" lon="2.168294589340852"><ele>493.0</ele><time>2026-04-02T15:08:18Z</time></trkpt><trkpt lat="41.68932181530815" lon="2.1683469394538992"><ele>493.0</ele><time>2026-04-02T15:08:19Z</time></trkpt><trkpt lat="41.689424941232595" lon="2.1683909995985693"><ele>495.50000000000006</ele><time>2026-04-02T15:08:20Z</time></trkpt><trkpt lat="41.689495235054025" lon="2.168451542161257"><ele>498.0</ele><time>2026-04-02T15:08:21Z</time></trkpt><trkpt lat="41.689544503042015" lon="2.1685293677599864"><ele>500.5</ele><time>2026-04-02T15:08:22Z</time></trkpt><trkpt lat="41.6895799688355" lon="2.168628387415444"><ele>503.0</ele><time>2026-04-02T15:08:23Z</time></trkpt><trkpt lat="41.6895738935728" lon="2.168734968813073"><ele>505.50000000000006</ele><time>2026-04-02T15:08:24Z</time></trkpt><trkpt lat="41.68955336773529" lon="2.1688558444935175"><ele>508.0</ele><time>2026-04-02T15:08:25Z</time></trkpt><trkpt lat="41.68952811802529" lon="2.1689919978353394"><ele>507.4</ele><time>2026-04-02T15:08:26Z</time></trkpt><trkpt lat="41.68951207819583" lon="2.1691338119232"><ele>506.79999999999995</ele><time>2026-04-02T15:08:27Z</time></trkpt><trkpt lat="41.68947576336528" lon="2.1692684117761183"><ele>506.2</ele><time>2026-04-02T15:08:28Z</time></trkpt><trkpt lat="41.68945145121051" lon="2.1694035378658225"><ele>505.6</ele><time>2026-04-02T15:08:29Z</time></trkpt><trkpt lat="41.68942365638646" lon="2.169540814480093"><ele>505.0</ele><time>2026-04-02T15:08:30Z</time></trkpt><trkpt lat="41.68938599741782" lon="2.1696750251830657"><ele>499.6</ele><time>2026-04-02T15:08:31Z</time></trkpt><trkpt lat="41.68936152742902" lon="2.1698056320313137"><ele>494.2</ele><time>2026-04-02T15:08:32Z</time></trkpt><trkpt lat="41.68933545061511" lon="2.1699314223839425"><ele>488.79999999999995</ele><time>2026-04-02T15:08:33Z</time></trkpt><trkpt lat="41.689319600359205" lon="2.170060951048286"><ele>483.4</ele><time>2026-04-02T15:08:34Z</time></trkpt><trkpt lat="41.6893256745999" lon="2.170199476500539"><ele>478.0</ele><time>2026-04-02T15:08:35Z</time></trkpt><trkpt lat="41.689350721301075" lon="2.170343008112536"><ele>478.0</ele><time>2026-04-02T15:08:36Z</time></trkpt><trkpt lat="41.689392421499505" lon="2.1704764743835288"><ele>477.99999999999994</ele><time>2026-04-02T15:08:37Z</time></trkpt><trkpt lat="41.68943639114163" lon="2.1705838955673626"><ele>477.99999999999994</ele><time>2026-04-02T15:08:38Z</time></trkpt><trkpt lat="41.68948608794675" lon="2.1706785507637236"><ele>478.0</ele><time>2026-04-02T15:08:39Z</time></trkpt><trkpt lat="41.689564994162126" lon="2.1707439864071545"><ele>478.0</ele><time>2026-04-02T15:08:40Z</time></trkpt><trkpt lat="41.68966462009177" lon="2.170771169045809"><ele>479.79999999999995</ele><time>2026-04-02T15:08:41Z</time></trkpt><trkpt lat="41.689762546696706" lon="2.170767200272352"><ele>481.59999999999997</ele><time>2026-04-02T15:08:42Z</time></trkpt><trkpt lat="41.68986489351129" lon="2.1707321432436046"><ele>483.40000000000003</ele><time>2026-04-02T15:08:43Z</time></trkpt><trkpt lat="41.68997644052089" lon="2.170725072101704"><ele>485.20000000000005</ele><time>2026-04-02T15:08:44Z</time></trkpt><trkpt lat="41.69009401068147" lon="2.170745945359186"><ele>487.0</ele><time>2026-04-02T15:08:45Z</time></trkpt><trkpt lat="41.69020726071428" lon="2.1707668574292653"><ele>486.8</ele><time>2026-04-02T15:08:46Z</time></trkpt><trkpt lat="41.69030900059472" lon="2.17077869332978"><ele>486.6</ele><time>2026-04-02T15:08:47Z</time></trkpt><trkpt lat="41.69041147622822" lon="2.170778984482877"><ele>486.40000000000003</ele><time>2026-04-02T15:08:48Z</time></trkpt><trkpt lat="41.6905220281771" lon="2.1707669464171424"><ele>486.20000000000005</ele><time>2026-04-02T15:08:49Z</time></trkpt><trkpt lat="41.69062362533202" lon="2.17068199652799"><ele>486.0</ele><time>2026-04-02T15:08:50Z</time></trkpt><trkpt lat="41.69073623440399" lon="2.1706275749825776"><ele>486.0</ele><time>2026-04-02T15:08:51Z</time></trkpt><trkpt lat="41.69084332394376" lon="2.1705797071660893"><ele>486.0</ele><time>2026-04-02T15:08:52Z</time></trkpt><trkpt lat="41.69095457155898" lon="2.1706130961399963"><ele>486.0</ele><time>2026-04-02T15:08:53Z</time></trkpt><trkpt lat="41.691045647786524" lon="2.170737523978199"><ele>486.0</ele><time>2026-04-02T15:08:54Z</time></trkpt><trkpt lat="41.6911550756639" lon="2.170864405120846"><ele>489.5</ele><time>2026-04-02T15:08:55Z</time></trkpt><trkpt lat="41.6912894074633" lon="2.1709446132385692"><ele>493.0</ele><time>2026-04-02T15:08:56Z</time></trkpt><trkpt lat="41.69143269695526" lon="2.1710030559331774"><ele>496.5</ele><time>2026-04-02T15:08:57Z</time></trkpt><trkpt lat="41.69154552327316" lon="2.171067304346309"><ele>500.0</ele><time>2026-04-02T15:08:58Z</time></trkpt><trkpt lat="41.69162600568703" lon="2.1711740705230733"><ele>500.0</ele><time>2026-04-02T15:08:59Z</time></trkpt><trkpt lat="41.6916733736693" lon="2.171326806773551"><ele>500.0</ele><time>2026-04-02T15:09:00Z</time></trkpt><trkpt lat="41.691724695372706" lon="2.171476699475573"><ele>500.0</ele><time>2026-04-02T15:09:01Z</time></trkpt><trkpt lat="41.691798512047725" lon="2.1716058216984044"><ele>500.0</ele><time>2026-04-02T15:09:02Z</time></trkpt><trkpt lat="41.6919260924349" lon="2.1716790989370476"><ele>497.5</ele><time>2026-04-02T15:09:03Z</time></trkpt><trkpt lat="41.692062466466986" lon="2.171663694234796"><ele>495.0</ele><time>2026-04-02T15:09:04Z</time></trkpt><trkpt lat="41.69219651017806" lon="2.1716507447308833"><ele>492.5</ele><time>2026-04-02T15:09:05Z</time></trkpt><trkpt lat="41.69233604288937" lon="2.17160801528929"><ele>490.0</ele><time>2026-04-02T15:09:06Z</time></trkpt><trkpt lat="41.69246661220129" lon="2.1715749760538934"><ele>490.0</ele><time>2026-04-02T15:09:07Z</time></trkpt><trkpt lat="41.692583221443726" lon="2.1715643194683736"><ele>490.0</ele><time>2026-04-02T15:09:08Z</time></trkpt><trkpt lat="41.69269138164691" lon="2.171578439717292"><ele>490.0</ele><time>2026-04-02T15:09:09Z</time></trkpt><trkpt lat="41.692784263979505" lon="2.171629171871471"><ele>490.0</ele><time>2026-04-02T15:09:10Z</time></trkpt><trkpt lat="41.69286683069303" lon="2.1717276334668947"><ele>490.0</ele><time>2026-04-02T15:09:11Z</time></trkpt><trkpt lat="41.692911749817156" lon="2.1718906628466574"><ele>490.0</ele><time>2026-04-02T15:09:12Z</time></trkpt><trkpt lat="41.69293555078597" lon="2.1720723632931906"><ele>490.0</ele><time>2026-04-02T15:09:13Z</time></trkpt><trkpt lat="41.693003945040566" lon="2.1722276594256225"><ele>490.0</ele><time>2026-04-02T15:09:14Z</time></trkpt><trkpt lat="41.69310705691402" lon="2.172376758521733"><ele>490.0</ele><time>2026-04-02T15:09:15Z</time></trkpt><trkpt lat="41.6932312050165" lon="2.172511459275542"><ele>490.0</ele><time>2026-04-02T15:09:16Z</time></trkpt><trkpt lat="41.69333738144201" lon="2.1726332629794154"><ele>490.0</ele><time>2026-04-02T15:09:17Z</time></trkpt><trkpt lat="41.69340437614" lon="2.1727421850357693"><ele>490.0</ele><time>2026-04-02T15:09:18Z</time></trkpt><trkpt lat="41.69344946500761" lon="2.17285568146664"><ele>490.0</ele><time>2026-04-02T15:09:19Z</time></trkpt><trkpt lat="41.69343427991617" lon="2.172972781507906"><ele>490.0</ele><time>2026-04-02T15:09:20Z</time></trkpt><trkpt lat="41.693370583079954" lon="2.1730887723910643"><ele>490.0</ele><time>2026-04-02T15:09:21Z</time></trkpt><trkpt lat="41.693266152769375" lon="2.1731813154749333"><ele>490.0</ele><time>2026-04-02T15:09:22Z</time></trkpt><trkpt lat="41.69315625538273" lon="2.1732796897383393"><ele>490.0</ele><time>2026-04-02T15:09:23Z</time></trkpt><trkpt lat="41.693046288377694" lon="2.1734133873383628"><ele>490.0</ele><time>2026-04-02T15:09:24Z</time></trkpt><trkpt lat="41.692955180107816" lon="2.1735811099918716"><ele>490.25</ele><time>2026-04-02T15:09:25Z</time></trkpt><trkpt lat="41.69287628155451" lon="2.173760897839755"><ele>490.5</ele><time>2026-04-02T15:09:26Z</time></trkpt><trkpt lat="41.692810445012356" lon="2.1739447088927113"><ele>490.75</ele><time>2026-04-02T15:09:27Z</time></trkpt><trkpt lat="41.69277365811134" lon="2.1741261387535653"><ele>491.0</ele><time>2026-04-02T15:09:28Z</time></trkpt><trkpt lat="41.69275944304856" lon="2.1743171748138366"><ele>497.0</ele><time>2026-04-02T15:09:29Z</time></trkpt><trkpt lat="41.69277582342907" lon="2.17452904097502"><ele>503.0</ele><time>2026-04-02T15:09:30Z</time></trkpt><trkpt lat="41.69280441876961" lon="2.174748035090818"><ele>509.0</ele><time>2026-04-02T15:09:31Z</time></trkpt><trkpt lat="41.692825610506944" lon="2.174976005237382"><ele>509.66666666666663</ele><time>2026-04-02T15:09:32Z</time></trkpt><trkpt lat="41.6928483837917" lon="2.175217454902734"><ele>510.33333333333337</ele><time>2026-04-02T15:09:33Z</time></trkpt><trkpt lat="41.692876367222944" lon="2.175466286111675"><ele>511.0</ele><time>2026-04-02T15:09:34Z</time></trkpt><trkpt lat="41.69291435011892" lon="2.1757229197798553"><ele>509.0</ele><time>2026-04-02T15:09:35Z</time></trkpt><trkpt lat="41.69295657524111" lon="2.175953124792025"><ele>507.0</ele><time>2026-04-02T15:09:36Z</time></trkpt><trkpt lat="41.69300552104078" lon="2.1761570197420537"><ele>505.0</ele><time>2026-04-02T15:09:37Z</time></trkpt><trkpt lat="41.693075841944314" lon="2.1763393921404224"><ele>505.0</ele><time>2026-04-02T15:09:38Z</time></trkpt><trkpt lat="41.69315226532588" lon="2.176510460773407"><ele>505.0</ele><time>2026-04-02T15:09:39Z</time></trkpt><trkpt lat="41.693215498109836" lon="2.176662852612818"><ele>505.0</ele><time>2026-04-02T15:09:40Z</time></trkpt><trkpt lat="41.69327295828751" lon="2.176793217477309"><ele>505.0</ele><time>2026-04-02T15:09:41Z</time></trkpt><trkpt lat="41.69333444918221" lon="2.1768921994166712"><ele>501.5</ele><time>2026-04-02T15:09:42Z</time></trkpt><trkpt lat="41.693418998186765" lon="2.1769580493174043"><ele>498.0</ele><time>2026-04-02T15:09:43Z</time></trkpt><trkpt lat="41.69351847572859" lon="2.177032208610162"><ele>494.5</ele><time>2026-04-02T15:09:44Z</time></trkpt><trkpt lat="41.69365411059232" lon="2.176970426666373"><ele>491.0</ele><time>2026-04-02T15:09:45Z</time></trkpt><trkpt lat="41.69378514155205" lon="2.1769078332585807"><ele>490.3333333333333</ele><time>2026-04-02T15:09:46Z</time></trkpt><trkpt lat="41.69391976138907" lon="2.1768283431518243"><ele>489.66666666666663</ele><time>2026-04-02T15:09:47Z</time></trkpt><trkpt lat="41.69406237459072" lon="2.1767461391208665"><ele>489.0</ele><time>2026-04-02T15:09:48Z</time></trkpt><trkpt lat="41.69420963995428" lon="2.176664841642046"><ele>489.0</ele><time>2026-04-02T15:09:49Z</time></trkpt><trkpt lat="41.69434484751534" lon="2.176534922479051"><ele>489.0</ele><time>2026-04-02T15:09:50Z</time></trkpt><trkpt lat="41.694482628330114" lon="2.1763507171939356"><ele>489.0</ele><time>2026-04-02T15:09:51Z</time></trkpt><trkpt lat="41.69461410521482" lon="2.1761617181257584"><ele>487.0</ele><time>2026-04-02T15:09:52Z</time></trkpt><trkpt lat="41.69474717134267" lon="2.1759756462492907"><ele>485.0</ele><time>2026-04-02T15:09:53Z</time></trkpt><trkpt lat="41.694871893414046" lon="2.1758135415026687"><ele>483.0</ele><time>2026-04-02T15:09:54Z</time></trkpt><trkpt lat="41.69499183474117" lon="2.175657567545677"><ele>480.66666666666663</ele><time>2026-04-02T15:09:55Z</time></trkpt><trkpt lat="41.69510027848679" lon="2.1755027242358187"><ele>478.3333333333333</ele><time>2026-04-02T15:09:56Z</time></trkpt><trkpt lat="41.69519239851884" lon="2.1753424452017303"><ele>476.0</ele><time>2026-04-02T15:09:57Z</time></trkpt><trkpt lat="41.695272012655764" lon="2.1751748379933273"><ele>476.0</ele><time>2026-04-02T15:09:58Z</time></trkpt><trkpt lat="41.695388211816635" lon="2.1750463235933624"><ele>476.0</ele><time>2026-04-02T15:09:59Z</time></trkpt><trkpt lat="41.69554521913435" lon="2.1749607906133024"><ele>476.0</ele><time>2026-04-02T15:10:00Z</time></trkpt><trkpt lat="41.69573005721725" lon="2.174886823923862"><ele>480.66666666666663</ele><time>2026-04-02T15:10:01Z</time></trkpt><trkpt lat="41.695903220809875" lon="2.1748268999241596"><ele>485.33333333333337</ele><time>2026-04-02T15:10:02Z</time></trkpt><trkpt lat="41.696050329988545" lon="2.1747010513420046"><ele>490.0</ele><time>2026-04-02T15:10:03Z</time></trkpt><trkpt lat="41.69619255452372" lon="2.1745449617459927"><ele>490.0</ele><time>2026-04-02T15:10:04Z</time></trkpt><trkpt lat="41.696369380473904" lon="2.174472418068624"><ele>490.0</ele><time>2026-04-02T15:10:05Z</time></trkpt><trkpt lat="41.696547782117065" lon="2.174420889290047"><ele>490.0</ele><time>2026-04-02T15:10:06Z</time></trkpt><trkpt lat="41.6967270641438" lon="2.174397391364341"><ele>490.0</ele><time>2026-04-02T15:10:07Z</time></trkpt><trkpt lat="41.6968723058452" lon="2.174344516740121"><ele>490.0</ele><time>2026-04-02T15:10:08Z</time></trkpt><trkpt lat="41.69700977638297" lon="2.174231647152675"><ele>490.0</ele><time>2026-04-02T15:10:09Z</time></trkpt><trkpt lat="41.69713480458256" lon="2.1741240977237664"><ele>486.75</ele><time>2026-04-02T15:10:10Z</time></trkpt><trkpt lat="41.69725978365629" lon="2.1740278589580577"><ele>483.5</ele><time>2026-04-02T15:10:11Z</time></trkpt><trkpt lat="41.69739428014256" lon="2.173963504077414"><ele>480.25</ele><time>2026-04-02T15:10:12Z</time></trkpt><trkpt lat="41.69753815941508" lon="2.1739217592564137"><ele>477.0</ele><time>2026-04-02T15:10:13Z</time></trkpt><trkpt lat="41.69766991202538" lon="2.173872245335901"><ele>484.75</ele><time>2026-04-02T15:10:14Z</time></trkpt><trkpt lat="41.697792194396136" lon="2.17382246274542"><ele>492.5</ele><time>2026-04-02T15:10:15Z</time></trkpt><trkpt lat="41.69792111963755" lon="2.1737838827383187"><ele>500.25</ele><time>2026-04-02T15:10:16Z</time></trkpt><trkpt lat="41.69803855735517" lon="2.173749089488289"><ele>508.0</ele><time>2026-04-02T15:10:17Z</time></trkpt><trkpt lat="41.69814746233685" lon="2.1737225652041277"><ele>508.00000000000006</ele><time>2026-04-02T15:10:18Z</time></trkpt><trkpt lat="41.698246647931605" lon="2.173699344714597"><ele>508.0</ele><time>2026-04-02T15:10:19Z</time></trkpt><trkpt lat="41.6983340020764" lon="2.1736892943221107"><ele>508.0</ele><time>2026-04-02T15:10:20Z</time></trkpt><trkpt lat="41.69840516510527" lon="2.173732568782409"><ele>508.0</ele><time>2026-04-02T15:10:21Z</time></trkpt><trkpt lat="41.69845218658461" lon="2.1738098228621374"><ele>508.00000000000006</ele><time>2026-04-02T15:10:22Z</time></trkpt><trkpt lat="41.69846248866687" lon="2.1739173320946037"><ele>508.0</ele><time>2026-04-02T15:10:23Z</time></trkpt><trkpt lat="41.69843326066663" lon="2.173997977938653"><ele>508.0</ele><time>2026-04-02T15:10:24Z</time></trkpt><trkpt lat="41.69831920790537" lon="2.173980692652532"><ele>508.0</ele><time>2026-04-02T15:10:25Z</time></trkpt><trkpt lat="41.69822685040411" lon="2.1740473144967765"><ele>508.0</ele><time>2026-04-02T15:10:26Z</time></trkpt><trkpt lat="41.69811914390132" lon="2.1741518713204973"><ele>508.0</ele><time>2026-04-02T15:10:27Z</time></trkpt><trkpt lat="41.69803617865571" lon="2.1742776116794538"><ele>502.75</ele><time>2026-04-02T15:10:28Z</time></trkpt><trkpt lat="41.69795223392812" lon="2.174424442863277"><ele>497.5</ele><time>2026-04-02T15:10:29Z</time></trkpt><trkpt lat="41.697856130611655" lon="2.174569701528994"><ele>492.25</ele><time>2026-04-02T15:10:30Z</time></trkpt><trkpt lat="41.69775350105184" lon="2.174726791237678"><ele>487.0</ele><time>2026-04-02T15:10:31Z</time></trkpt><trkpt lat="41.69762778262227" lon="2.174859123609271"><ele>479.6666666666667</ele><time>2026-04-02T15:10:32Z</time></trkpt><trkpt lat="41.6975037767909" lon="2.175016512650199"><ele>472.33333333333337</ele><time>2026-04-02T15:10:33Z</time></trkpt><trkpt lat="41.69741716264989" lon="2.1752230633104817"><ele>465.0</ele><time>2026-04-02T15:10:34Z</time></trkpt><trkpt lat="41.6973133867532" lon="2.1754095166768668"><ele>465.0</ele><time>2026-04-02T15:10:35Z</time></trkpt><trkpt lat="41.697217654182616" lon="2.1756001765956863"><ele>465.0</ele><time>2026-04-02T15:10:36Z</time></trkpt><trkpt lat="41.69712194311526" lon="2.1757856945337566"><ele>465.0</ele><time>2026-04-02T15:10:37Z</time></trkpt><trkpt lat="41.69703755668426" lon="2.175956709749186"><ele>465.5</ele><time>2026-04-02T15:10:38Z</time></trkpt><trkpt lat="41.69699888925985" lon="2.176135033515657"><ele>466.0</ele><time>2026-04-02T15:10:39Z</time></trkpt><trkpt lat="41.696987390058474" lon="2.176334153101917"><ele>466.5</ele><time>2026-04-02T15:10:40Z</time></trkpt><trkpt lat="41.69695153235439" lon="2.176505181906916"><ele>467.0</ele><time>2026-04-02T15:10:41Z</time></trkpt><trkpt lat="41.69686419087406" lon="2.176621544157555"><ele>467.0</ele><time>2026-04-02T15:10:42Z</time></trkpt><trkpt lat="41.69676514902235" lon="2.1767580607446537"><ele>467.0</ele><time>2026-04-02T15:10:43Z</time></trkpt><trkpt lat="41.696691602594406" lon="2.176911722947697"><ele>467.0</ele><time>2026-04-02T15:10:44Z</time></trkpt><trkpt lat="41.69665685497884" lon="2.177063665164031"><ele>467.0</ele><time>2026-04-02T15:10:45Z</time></trkpt><trkpt lat="41.69665225701357" lon="2.1772135251987765"><ele>467.0</ele><time>2026-04-02T15:10:46Z</time></trkpt><trkpt lat="41.69669348719214" lon="2.1773434163182865"><ele>467.0</ele><time>2026-04-02T15:10:47Z</time></trkpt><trkpt lat="41.696771002953646" lon="2.177449753091101"><ele>467.0</ele><time>2026-04-02T15:10:48Z</time></trkpt><trkpt lat="41.69686955984987" lon="2.1775424241010493"><ele>467.0</ele><time>2026-04-02T15:10:49Z</time></trkpt><trkpt lat="41.6969398783457" lon="2.1776726626975353"><ele>467.5</ele><time>2026-04-02T15:10:50Z</time></trkpt><trkpt lat="41.69695378314467" lon="2.1778194086294973"><ele>468.0</ele><time>2026-04-02T15:10:51Z</time></trkpt><trkpt lat="41.6969249396471" lon="2.1779753977361187"><ele>468.5</ele><time>2026-04-02T15:10:52Z</time></trkpt><trkpt lat="41.696860051602954" lon="2.1781296133193915"><ele>469.0</ele><time>2026-04-02T15:10:53Z</time></trkpt><trkpt lat="41.69681422863376" lon="2.178297876523619"><ele>469.0</ele><time>2026-04-02T15:10:54Z</time></trkpt><trkpt lat="41.69681058227941" lon="2.1784617439881417"><ele>469.0</ele><time>2026-04-02T15:10:55Z</time></trkpt><trkpt lat="41.69685974097122" lon="2.178608176517784"><ele>469.0</ele><time>2026-04-02T15:10:56Z</time></trkpt><trkpt lat="41.69694942130061" lon="2.1787528493738284"><ele>469.0</ele><time>2026-04-02T15:10:57Z</time></trkpt><trkpt lat="41.69706759818918" lon="2.178869363789864"><ele>481.0</ele><time>2026-04-02T15:10:58Z</time></trkpt><trkpt lat="41.69720380619056" lon="2.1789465750608965"><ele>493.0</ele><time>2026-04-02T15:10:59Z</time></trkpt><trkpt lat="41.69735665230294" lon="2.178974272214139"><ele>505.0</ele><time>2026-04-02T15:11:00Z</time></trkpt><trkpt lat="41.69751906617915" lon="2.178954874351207"><ele>505.0</ele><time>2026-04-02T15:11:01Z</time></trkpt><trkpt lat="41.69766629513258" lon="2.1789296898972674"><ele>505.0</ele><time>2026-04-02T15:11:02Z</time></trkpt><trkpt lat="41.697777751563166" lon="2.1789122610430187"><ele>505.0</ele><time>2026-04-02T15:11:03Z</time></trkpt><trkpt lat="41.697882521767795" lon="2.178945908248607"><ele>505.0</ele><time>2026-04-02T15:11:04Z</time></trkpt><trkpt lat="41.69796140944597" lon="2.1790211616582074"><ele>506.0</ele><time>2026-04-02T15:11:05Z</time></trkpt><trkpt lat="41.69800440188498" lon="2.17914541055768"><ele>507.0</ele><time>2026-04-02T15:11:06Z</time></trkpt><trkpt lat="41.697997441713845" lon="2.179291810232197"><ele>508.0</ele><time>2026-04-02T15:11:07Z</time></trkpt><trkpt lat="41.69797135182194" lon="2.179439264773351"><ele>509.0</ele><time>2026-04-02T15:11:08Z</time></trkpt><trkpt lat="41.697959823918005" lon="2.1795974708589094"><ele>510.0</ele><time>2026-04-02T15:11:09Z</time></trkpt><trkpt lat="41.69797527731729" lon="2.1797632274425527"><ele>507.5</ele><time>2026-04-02T15:11:10Z</time></trkpt><trkpt lat="41.69802863486722" lon="2.1799340541003227"><ele>505.0</ele><time>2026-04-02T15:11:11Z</time></trkpt><trkpt lat="41.69811757393463" lon="2.1800760697968777"><ele>502.5</ele><time>2026-04-02T15:11:12Z</time></trkpt><trkpt lat="41.69821899884831" lon="2.1801947660451777"><ele>500.0</ele><time>2026-04-02T15:11:13Z</time></trkpt><trkpt lat="41.69830023970511" lon="2.180302682248303"><ele>499.99999999999994</ele><time>2026-04-02T15:11:14Z</time></trkpt><trkpt lat="41.69837227575491" lon="2.1803817000062065"><ele>500.0</ele><time>2026-04-02T15:11:15Z</time></trkpt><trkpt lat="41.69842313498894" lon="2.1804535283231"><ele>500.0</ele><time>2026-04-02T15:11:16Z</time></trkpt><trkpt lat="41.69841581436815" lon="2.1805645429149325"><ele>500.0</ele><time>2026-04-02T15:11:17Z</time></trkpt><trkpt lat="41.698365087771144" lon="2.1806604954089615"><ele>499.99999999999994</ele><time>2026-04-02T15:11:18Z</time></trkpt><trkpt lat="41.69827848513086" lon="2.1807207983872625"><ele>500.0</ele><time>2026-04-02T15:11:19Z</time></trkpt><trkpt lat="41.69818129837567" lon="2.180775692646106"><ele>500.25</ele><time>2026-04-02T15:11:20Z</time></trkpt><trkpt lat="41.69808017224441" lon="2.180840618648752"><ele>500.5</ele><time>2026-04-02T15:11:21Z</time></trkpt><trkpt lat="41.697979781229456" lon="2.180916349870264"><ele>500.75</ele><time>2026-04-02T15:11:22Z</time></trkpt><trkpt lat="41.697850742280096" lon="2.1809413542051437"><ele>501.0</ele><time>2026-04-02T15:11:23Z</time></trkpt><trkpt lat="41.697712838465925" lon="2.1809870174369492"><ele>497.5</ele><time>2026-04-02T15:11:24Z</time></trkpt><trkpt lat="41.697566948859574" lon="2.1810391694553055"><ele>494.0</ele><time>2026-04-02T15:11:25Z</time></trkpt><trkpt lat="41.697418337492735" lon="2.18107320223338"><ele>490.5</ele><time>2026-04-02T15:11:26Z</time></trkpt><trkpt lat="41.69727371829413" lon="2.18109616757201"><ele>487.0</ele><time>2026-04-02T15:11:27Z</time></trkpt><trkpt lat="41.69713552740118" lon="2.1811272782362128"><ele>487.0</ele><time>2026-04-02T15:11:28Z</time></trkpt><trkpt lat="41.697026887317136" lon="2.181168810519059"><ele>487.00000000000006</ele><time>2026-04-02T15:11:29Z</time></trkpt><trkpt lat="41.696940972841425" lon="2.1812353323354365"><ele>487.00000000000006</ele><time>2026-04-02T15:11:30Z</time></trkpt><trkpt lat="41.69688243410394" lon="2.181346337801728"><ele>487.0</ele><time>2026-04-02T15:11:31Z</time></trkpt><trkpt lat="41.6968476578707" lon="2.1815001630756843"><ele>487.0</ele><time>2026-04-02T15:11:32Z</time></trkpt><trkpt lat="41.69684955047181" lon="2.181673807390075"><ele>488.5</ele><time>2026-04-02T15:11:33Z</time></trkpt><trkpt lat="41.69688484040241" lon="2.181856118526008"><ele>490.0</ele><time>2026-04-02T15:11:34Z</time></trkpt><trkpt lat="41.69690820664482" lon="2.182012681130085"><ele>491.5</ele><time>2026-04-02T15:11:35Z</time></trkpt><trkpt lat="41.69689619469247" lon="2.182164369324937"><ele>493.0</ele><time>2026-04-02T15:11:36Z</time></trkpt><trkpt lat="41.69684183517974" lon="2.1822942847605167"><ele>495.75</ele><time>2026-04-02T15:11:37Z</time></trkpt><trkpt lat="41.69675615232479" lon="2.182399018274162"><ele>498.5</ele><time>2026-04-02T15:11:38Z</time></trkpt><trkpt lat="41.69665413245445" lon="2.1824995041251753"><ele>501.25</ele><time>2026-04-02T15:11:39Z</time></trkpt><trkpt lat="41.696568507287814" lon="2.1826231059660905"><ele>504.0</ele><time>2026-04-02T15:11:40Z</time></trkpt><trkpt lat="41.696524763195335" lon="2.1827784831774264"><ele>504.0</ele><time>2026-04-02T15:11:41Z</time></trkpt><trkpt lat="41.69651410041441" lon="2.1829632111567534"><ele>504.0</ele><time>2026-04-02T15:11:42Z</time></trkpt><trkpt lat="41.696537168036194" lon="2.183161571166101"><ele>504.0</ele><time>2026-04-02T15:11:43Z</time></trkpt><trkpt lat="41.696562314327004" lon="2.1833607696573827"><ele>504.0</ele><time>2026-04-02T15:11:44Z</time></trkpt><trkpt lat="41.696537893812184" lon="2.183573082911305"><ele>506.33333333333337</ele><time>2026-04-02T15:11:45Z</time></trkpt><trkpt lat="41.69652606346978" lon="2.183801369710233"><ele>508.6666666666667</ele><time>2026-04-02T15:11:46Z</time></trkpt><trkpt lat="41.69650604190006" lon="2.1840298521546213"><ele>511.0</ele><time>2026-04-02T15:11:47Z</time></trkpt><trkpt lat="41.69649242805484" lon="2.18425486177569"><ele>511.5</ele><time>2026-04-02T15:11:48Z</time></trkpt><trkpt lat="41.69647917912631" lon="2.184462289310689"><ele>512.0</ele><time>2026-04-02T15:11:49Z</time></trkpt><trkpt lat="41.69647162530883" lon="2.184657837397402"><ele>512.5</ele><time>2026-04-02T15:11:50Z</time></trkpt><trkpt lat="41.69648451538777" lon="2.1848448061728925"><ele>513.0</ele><time>2026-04-02T15:11:51Z</time></trkpt><trkpt lat="41.69654158438309" lon="2.185014478782842"><ele>513.0</ele><time>2026-04-02T15:11:52Z</time></trkpt><trkpt lat="41.69663316062104" lon="2.185158470278687"><ele>513.0</ele><time>2026-04-02T15:11:53Z</time></trkpt><trkpt lat="41.696757284949214" lon="2.1852712207587803"><ele>513.0</ele><time>2026-04-02T15:11:54Z</time></trkpt><trkpt lat="41.69689916070384" lon="2.185364896377465"><ele>513.0</ele><time>2026-04-02T15:11:55Z</time></trkpt><trkpt lat="41.69704803992144" lon="2.185458632293364"><ele>518.6666666666666</ele><time>2026-04-02T15:11:56Z</time></trkpt><trkpt lat="41.6972128980792" lon="2.1854893276328013"><ele>524.3333333333333</ele><time>2026-04-02T15:11:57Z</time></trkpt><trkpt lat="41.6973816822241" lon="2.185485872435274"><ele>530.0</ele><time>2026-04-02T15:11:58Z</time></trkpt><trkpt lat="41.69755088610896" lon="2.185440577292741"><ele>530.0</ele><time>2026-04-02T15:11:59Z</time></trkpt><trkpt lat="41.697726228444836" lon="2.1853927384933187"><ele>530.0</ele><time>2026-04-02T15:12:00Z</time></trkpt><trkpt lat="41.69790801311505" lon="2.1853158313331362"><ele>530.0</ele><time>2026-04-02T15:12:01Z</time></trkpt><trkpt lat="41.698085119369" lon="2.1852006908368287"><ele>528.0</ele><time>2026-04-02T15:12:02Z</time></trkpt><trkpt lat="41.69825773676308" lon="2.1851064477109587"><ele>526.0</ele><time>2026-04-02T15:12:03Z</time></trkpt><trkpt lat="41.69842304134177" lon="2.1850424798237604"><ele>524.0</ele><time>2026-04-02T15:12:04Z</time></trkpt><trkpt lat="41.69856848925659" lon="2.18495042191935"><ele>524.3333333333333</ele><time>2026-04-02T15:12:05Z</time></trkpt><trkpt lat="41.69872581149244" lon="2.184904568275771"><ele>524.6666666666666</ele><time>2026-04-02T15:12:06Z</time></trkpt><trkpt lat="41.69889629570619" lon="2.1849413965489415"><ele>525.0</ele><time>2026-04-02T15:12:07Z</time></trkpt><trkpt lat="41.69907380209074" lon="2.184975714711777"><ele>525.0</ele><time>2026-04-02T15:12:08Z</time></trkpt><trkpt lat="41.69924155365019" lon="2.184984892809141"><ele>525.0</ele><time>2026-04-02T15:12:09Z</time></trkpt><trkpt lat="41.699389750703354" lon="2.1850291276996505"><ele>525.0</ele><time>2026-04-02T15:12:10Z</time></trkpt><trkpt lat="41.69952590069033" lon="2.1850585928958037"><ele>527.25</ele><time>2026-04-02T15:12:11Z</time></trkpt><trkpt lat="41.69964592267946" lon="2.1851160130254326"><ele>529.5</ele><time>2026-04-02T15:12:12Z</time></trkpt><trkpt lat="41.69974758778317" lon="2.18523516050164"><ele>531.75</ele><time>2026-04-02T15:12:13Z</time></trkpt><trkpt lat="41.69984731810078" lon="2.1853269469993735"><ele>534.0</ele><time>2026-04-02T15:12:14Z</time></trkpt><trkpt lat="41.69996005086159" lon="2.1853742376455547"><ele>534.0</ele><time>2026-04-02T15:12:15Z</time></trkpt><trkpt lat="41.7000673620235" lon="2.1853870224954925"><ele>534.0</ele><time>2026-04-02T15:12:16Z</time></trkpt><trkpt lat="41.70017756025181" lon="2.1853797956516585"><ele>534.0</ele><time>2026-04-02T15:12:17Z</time></trkpt><trkpt lat="41.70026698882062" lon="2.1852564379526305"><ele>534.0</ele><time>2026-04-02T15:12:18Z</time></trkpt><trkpt lat="41.70034373373552" lon="2.1851037015083348"><ele>531.6666666666666</ele><time>2026-04-02T15:12:19Z</time></trkpt><trkpt lat="41.700407361454815" lon="2.1849296710643755"><ele>529.3333333333333</ele><time>2026-04-02T15:12:20Z</time></trkpt><trkpt lat="41.70049813901202" lon="2.1847532973254316"><ele>527.0</ele><time>2026-04-02T15:12:21Z</time></trkpt><trkpt lat="41.700600497802206" lon="2.184593673539235"><ele>527.0</ele><time>2026-04-02T15:12:22Z</time></trkpt><trkpt lat="41.70072205178758" lon="2.184426788373306"><ele>527.0</ele><time>2026-04-02T15:12:23Z</time></trkpt><trkpt lat="41.7008143487577" lon="2.1842501587601126"><ele>527.0</ele><time>2026-04-02T15:12:24Z</time></trkpt><trkpt lat="41.70087171247493" lon="2.1840782161180234"><ele>535.5</ele><time>2026-04-02T15:12:25Z</time></trkpt><trkpt lat="41.70094733350115" lon="2.1839482615056354"><ele>544.0</ele><time>2026-04-02T15:12:26Z</time></trkpt><trkpt lat="41.701061537374315" lon="2.183852996808569"><ele>552.5</ele><time>2026-04-02T15:12:27Z</time></trkpt><trkpt lat="41.701191306750836" lon="2.1837970796243735"><ele>561.0</ele><time>2026-04-02T15:12:28Z</time></trkpt><trkpt lat="41.701341114938856" lon="2.1837899999510446"><ele>561.0</ele><time>2026-04-02T15:12:29Z</time></trkpt><trkpt lat="41.70150374533332" lon="2.1837635681105327"><ele>561.0</ele><time>2026-04-02T15:12:30Z</time></trkpt><trkpt lat="41.701661445745955" lon="2.183709044101344"><ele>561.0</ele><time>2026-04-02T15:12:31Z</time></trkpt><trkpt lat="41.70180120483145" lon="2.1836674013794957"><ele>561.75</ele><time>2026-04-02T15:12:32Z</time></trkpt><trkpt lat="41.70193825280319" lon="2.18365882033557"><ele>562.5</ele><time>2026-04-02T15:12:33Z</time></trkpt><trkpt lat="41.702064746124314" lon="2.1836861647735106"><ele>563.25</ele><time>2026-04-02T15:12:34Z</time></trkpt><trkpt lat="41.70217316533711" lon="2.1837827426509535"><ele>564.0</ele><time>2026-04-02T15:12:35Z</time></trkpt><trkpt lat="41.702286448707355" lon="2.1838287416648305"><ele>564.0</ele><time>2026-04-02T15:12:36Z</time></trkpt><trkpt lat="41.70241004426702" lon="2.183779705519508"><ele>564.0</ele><time>2026-04-02T15:12:37Z</time></trkpt><trkpt lat="41.702535742396904" lon="2.1837349362067053"><ele>564.0</ele><time>2026-04-02T15:12:38Z</time></trkpt><trkpt lat="41.70267489094485" lon="2.183767448159154"><ele>564.0</ele><time>2026-04-02T15:12:39Z</time></trkpt><trkpt lat="41.70280406573351" lon="2.1838373667957245"><ele>567.5</ele><time>2026-04-02T15:12:40Z</time></trkpt><trkpt lat="41.70295157202581" lon="2.1839234436697526"><ele>571.0</ele><time>2026-04-02T15:12:41Z</time></trkpt><trkpt lat="41.70307978861027" lon="2.1840264223462036"><ele>574.5</ele><time>2026-04-02T15:12:42Z</time></trkpt><trkpt lat="41.70320245463667" lon="2.1841010735536344"><ele>578.0</ele><time>2026-04-02T15:12:43Z</time></trkpt><trkpt lat="41.70332856490973" lon="2.184164971577019"><ele>565.75</ele><time>2026-04-02T15:12:44Z</time></trkpt><trkpt lat="41.70345487189099" lon="2.1841787363183127"><ele>553.5</ele><time>2026-04-02T15:12:45Z</time></trkpt><trkpt lat="41.703585077336754" lon="2.1841285936982584"><ele>541.25</ele><time>2026-04-02T15:12:46Z</time></trkpt><trkpt lat="41.70371888271388" lon="2.18407600129996"><ele>529.0</ele><time>2026-04-02T15:12:47Z</time></trkpt><trkpt lat="41.703855539274265" lon="2.1840344505563327"><ele>529.0</ele><time>2026-04-02T15:12:48Z</time></trkpt><trkpt lat="41.704003789660874" lon="2.184062833879081"><ele>529.0</ele><time>2026-04-02T15:12:49Z</time></trkpt><trkpt lat="41.704174780045946" lon="2.184099622680654"><ele>529.0</ele><time>2026-04-02T15:12:50Z</time></trkpt><trkpt lat="41.70432504694846" lon="2.1841086534843432"><ele>535.0</ele><time>2026-04-02T15:12:51Z</time></trkpt><trkpt lat="41.70445674059032" lon="2.184156800826563"><ele>541.0</ele><time>2026-04-02T15:12:52Z</time></trkpt><trkpt lat="41.70456805979178" lon="2.184229951472716"><ele>547.0</ele><time>2026-04-02T15:12:53Z</time></trkpt><trkpt lat="41.70467024956397" lon="2.1842870587648773"><ele>553.0</ele><time>2026-04-02T15:12:54Z</time></trkpt><trkpt lat="41.704780721533325" lon="2.184291321665442"><ele>553.0</ele><time>2026-04-02T15:12:55Z</time></trkpt><trkpt lat="41.70490356094347" lon="2.1842466497730384"><ele>553.0</ele><time>2026-04-02T15:12:56Z</time></trkpt><trkpt lat="41.70503124456658" lon="2.1842192574002963"><ele>553.0</ele><time>2026-04-02T15:12:57Z</time></trkpt><trkpt lat="41.7051573638548" lon="2.1842328998393192"><ele>553.0</ele><time>2026-04-02T15:12:58Z</time></trkpt><trkpt lat="41.70528502545775" lon="2.184255903090335"><ele>558.25</ele><time>2026-04-02T15:12:59Z</time></trkpt><trkpt lat="41.70538636067769" lon="2.184289674737595"><ele>563.5</ele><time>2026-04-02T15:13:00Z</time></trkpt><trkpt lat="41.70548827789043" lon="2.1843503744312325"><ele>568.75</ele><time>2026-04-02T15:13:01Z</time></trkpt><trkpt lat="41.7055744970486" lon="2.1844646409034967"><ele>574.0</ele><time>2026-04-02T15:13:02Z</time></trkpt><trkpt lat="41.70565130962519" lon="2.184579922745162"><ele>574.0</ele><time>2026-04-02T15:13:03Z</time></trkpt><trkpt lat="41.705724683583774" lon="2.18467698681372"><ele>574.0</ele><time>2026-04-02T15:13:04Z</time></trkpt><trkpt lat="41.705813340303095" lon="2.1847179848793226"><ele>574.0</ele><time>2026-04-02T15:13:05Z</time></trkpt><trkpt lat="41.705891481462906" lon="2.1847160449412164"><ele>574.0</ele><time>2026-04-02T15:13:06Z</time></trkpt><trkpt lat="41.70599240591736" lon="2.1846752815462596"><ele>574.0</ele><time>2026-04-02T15:13:07Z</time></trkpt><trkpt lat="41.70611396789581" lon="2.184648334045355"><ele>575.75</ele><time>2026-04-02T15:13:08Z</time></trkpt><trkpt lat="41.70623754838579" lon="2.18464897549344"><ele>577.5</ele><time>2026-04-02T15:13:09Z</time></trkpt><trkpt lat="41.70634942293635" lon="2.1846965739617397"><ele>579.25</ele><time>2026-04-02T15:13:10Z</time></trkpt><trkpt lat="41.706474158730515" lon="2.184743480385069"><ele>581.0</ele><time>2026-04-02T15:13:11Z</time></trkpt><trkpt lat="41.70657804434127" lon="2.1847952508429107"><ele>581.0</ele><time>2026-04-02T15:13:12Z</time></trkpt><trkpt lat="41.706699274719426" lon="2.1847958593469596"><ele>581.0</ele><time>2026-04-02T15:13:13Z</time></trkpt><trkpt lat="41.70682468929606" lon="2.1847674596587767"><ele>581.0</ele><time>2026-04-02T15:13:14Z</time></trkpt><trkpt lat="41.70693215938988" lon="2.184680034247623"><ele>581.0</ele><time>2026-04-02T15:13:15Z</time></trkpt><trkpt lat="41.707024412835544" lon="2.1845979979059384"><ele>579.6</ele><time>2026-04-02T15:13:16Z</time></trkpt><trkpt lat="41.707117494347564" lon="2.184555376975583"><ele>578.2</ele><time>2026-04-02T15:13:17Z</time></trkpt><trkpt lat="41.707214551266254" lon="2.1845714185970984"><ele>576.8</ele><time>2026-04-02T15:13:18Z</time></trkpt><trkpt lat="41.70731409952789" lon="2.1846198639110157"><ele>575.4</ele><time>2026-04-02T15:13:19Z</time></trkpt><trkpt lat="41.70742597115619" lon="2.184657690470946"><ele>574.0</ele><time>2026-04-02T15:13:20Z</time></trkpt><trkpt lat="41.707553800860026" lon="2.184676816492099"><ele>574.0</ele><time>2026-04-02T15:13:21Z</time></trkpt><trkpt lat="41.70768883651492" lon="2.1846671041413335"><ele>574.0</ele><time>2026-04-02T15:13:22Z</time></trkpt><trkpt lat="41.70781962652146" lon="2.184689808596219"><ele>574.0</ele><time>2026-04-02T15:13:23Z</time></trkpt><trkpt lat="41.7079423234415" lon="2.184698176206112"><ele>574.0</ele><time>2026-04-02T15:13:24Z</time></trkpt><trkpt lat="41.70805223604965" lon="2.184726353960599"><ele>576.6</ele><time>2026-04-02T15:13:25Z</time></trkpt><trkpt lat="41.70815236062258" lon="2.1847724120404033"><ele>579.2</ele><time>2026-04-02T15:13:26Z</time></trkpt><trkpt lat="41.70820268744714" lon="2.184902045601153"><ele>581.8000000000001</ele><time>2026-04-02T15:13:27Z</time></trkpt><trkpt lat="41.70826066300319" lon="2.185021704394527"><ele>584.4</ele><time>2026-04-02T15:13:28Z</time></trkpt><trkpt lat="41.7083046538253" lon="2.1851493736619996"><ele>587.0</ele><time>2026-04-02T15:13:29Z</time></trkpt><trkpt lat="41.70835332548925" lon="2.1852614941144064"><ele>582.2</ele><time>2026-04-02T15:13:30Z</time></trkpt><trkpt lat="41.708448824934656" lon="2.185331249421627"><ele>577.4000000000001</ele><time>2026-04-02T15:13:31Z</time></trkpt><trkpt lat="41.708557784238394" lon="2.1853476133853307"><ele>572.5999999999999</ele><time>2026-04-02T15:13:32Z</time></trkpt><trkpt lat="41.70866777304686" lon="2.185342184141467"><ele>567.8</ele><time>2026-04-02T15:13:33Z</time></trkpt><trkpt lat="41.70878799490681" lon="2.1853250385098417"><ele>563.0</ele><time>2026-04-02T15:13:34Z</time></trkpt><trkpt lat="41.70891225726919" lon="2.185305359465716"><ele>563.0</ele><time>2026-04-02T15:13:35Z</time></trkpt><trkpt lat="41.70903326472698" lon="2.1853654194964283"><ele>563.0</ele><time>2026-04-02T15:13:36Z</time></trkpt><trkpt lat="41.70914881747595" lon="2.185477688418538"><ele>563.0</ele><time>2026-04-02T15:13:37Z</time></trkpt><trkpt lat="41.70926890511193" lon="2.1855745659935724"><ele>563.0</ele><time>2026-04-02T15:13:38Z</time></trkpt><trkpt lat="41.709352440789715" lon="2.185620469295201"><ele>559.25</ele><time>2026-04-02T15:13:39Z</time></trkpt><trkpt lat="41.7094458922122" lon="2.185689569789915"><ele>555.5</ele><time>2026-04-02T15:13:40Z</time></trkpt><trkpt lat="41.70954611946098" lon="2.185721183676271"><ele>551.75</ele><time>2026-04-02T15:13:41Z</time></trkpt><trkpt lat="41.70966115019504" lon="2.1857197749061203"><ele>548.0</ele><time>2026-04-02T15:13:42Z</time></trkpt><trkpt lat="41.7097960903604" lon="2.1856753235784283"><ele>548.0</ele><time>2026-04-02T15:13:43Z</time></trkpt><trkpt lat="41.70992805573519" lon="2.185630754495902"><ele>548.0</ele><time>2026-04-02T15:13:44Z</time></trkpt><trkpt lat="41.710043119784224" lon="2.185587049830458"><ele>548.0</ele><time>2026-04-02T15:13:45Z</time></trkpt><trkpt lat="41.71012705663986" lon="2.185497406973018"><ele>548.0</ele><time>2026-04-02T15:13:46Z</time></trkpt><trkpt lat="41.71019438722036" lon="2.185373490504733"><ele>545.0</ele><time>2026-04-02T15:13:47Z</time></trkpt><trkpt lat="41.7102690950097" lon="2.1852518382950272"><ele>542.0</ele><time>2026-04-02T15:13:48Z</time></trkpt><trkpt lat="41.71038087321398" lon="2.1852056775807958"><ele>539.0</ele><time>2026-04-02T15:13:49Z</time></trkpt><trkpt lat="41.710499527014456" lon="2.1852010835821116"><ele>536.0</ele><time>2026-04-02T15:13:50Z</time></trkpt><trkpt lat="41.71062647202692" lon="2.1852034200223978"><ele>536.0</ele><time>2026-04-02T15:13:51Z</time></trkpt><trkpt lat="41.71075695427351" lon="2.1852116625702225"><ele>536.0</ele><time>2026-04-02T15:13:52Z</time></trkpt><trkpt lat="41.710888885933244" lon="2.185242086746632"><ele>536.0</ele><time>2026-04-02T15:13:53Z</time></trkpt><trkpt lat="41.71102071230246" lon="2.185277131644552"><ele>536.0</ele><time>2026-04-02T15:13:54Z</time></trkpt><trkpt lat="41.71114840355285" lon="2.185349839144718"><ele>539.0</ele><time>2026-04-02T15:13:55Z</time></trkpt><trkpt lat="41.71125921644276" lon="2.185421936750596"><ele>542.0</ele><time>2026-04-02T15:13:56Z</time></trkpt><trkpt lat="41.71137132289228" lon="2.185455830020346"><ele>545.0</ele><time>2026-04-02T15:13:57Z</time></trkpt><trkpt lat="41.711463306128216" lon="2.1854883769669566"><ele>548.0</ele><time>2026-04-02T15:13:58Z</time></trkpt><trkpt lat="41.71154144791262" lon="2.185538301167649"><ele>551.0</ele><time>2026-04-02T15:13:59Z</time></trkpt><trkpt lat="41.71158308058875" lon="2.18565839349155"><ele>546.4</ele><time>2026-04-02T15:14:00Z</time></trkpt><trkpt lat="41.71159862847859" lon="2.185792052850928"><ele>541.8</ele><time>2026-04-02T15:14:01Z</time></trkpt><trkpt lat="41.71163640753804" lon="2.1859317102908515"><ele>537.1999999999999</ele><time>2026-04-02T15:14:02Z</time></trkpt><trkpt lat="41.711728544732345" lon="2.18600908436552"><ele>532.6</ele><time>2026-04-02T15:14:03Z</time></trkpt><trkpt lat="41.711848992967724" lon="2.1860431088805523"><ele>528.0</ele><time>2026-04-02T15:14:04Z</time></trkpt><trkpt lat="41.711978832819405" lon="2.1860758564399814"><ele>528.0</ele><time>2026-04-02T15:14:05Z</time></trkpt><trkpt lat="41.7121247725346" lon="2.186073059290276"><ele>528.0</ele><time>2026-04-02T15:14:06Z</time></trkpt><trkpt lat="41.71225233627053" lon="2.186031305927448"><ele>528.0</ele><time>2026-04-02T15:14:07Z</time></trkpt><trkpt lat="41.712351844542944" lon="2.186003394588892"><ele>528.0</ele><time>2026-04-02T15:14:08Z</time></trkpt><trkpt lat="41.712432421516446" lon="2.186011752763162"><ele>528.0</ele><time>2026-04-02T15:14:09Z</time></trkpt><trkpt lat="41.71253096629475" lon="2.1860620090520513"><ele>528.0</ele><time>2026-04-02T15:14:10Z</time></trkpt><trkpt lat="41.712613469411345" lon="2.186147960015795"><ele>528.0</ele><time>2026-04-02T15:14:11Z</time></trkpt><trkpt lat="41.712700056231476" lon="2.1862593487130986"><ele>528.0</ele><time>2026-04-02T15:14:12Z</time></trkpt><trkpt lat="41.71279858371697" lon="2.186368219226038"><ele>524.0</ele><time>2026-04-02T15:14:13Z</time></trkpt><trkpt lat="41.71290442759121" lon="2.186459736689647"><ele>520.0</ele><time>2026-04-02T15:14:14Z</time></trkpt><trkpt lat="41.713036730651346" lon="2.186539367787144"><ele>516.0</ele><time>2026-04-02T15:14:15Z</time></trkpt><trkpt lat="41.71317436972031" lon="2.1866038596941166"><ele>512.0</ele><time>2026-04-02T15:14:16Z</time></trkpt><trkpt lat="41.71331483825824" lon="2.186675921456993"><ele>512.0</ele><time>2026-04-02T15:14:17Z</time></trkpt><trkpt lat="41.71345021434273" lon="2.186764902347854"><ele>512.0</ele><time>2026-04-02T15:14:18Z</time></trkpt><trkpt lat="41.71357186933819" lon="2.1868496091520995"><ele>512.0</ele><time>2026-04-02T15:14:19Z</time></trkpt><trkpt lat="41.71368186610008" lon="2.1869317328295144"><ele>512.0</ele><time>2026-04-02T15:14:20Z</time></trkpt><trkpt lat="41.71378691686318" lon="2.1870095039945556"><ele>513.0</ele><time>2026-04-02T15:14:21Z</time></trkpt><trkpt lat="41.71387973287646" lon="2.1871376323284455"><ele>514.0</ele><time>2026-04-02T15:14:22Z</time></trkpt><trkpt lat="41.713965294966904" lon="2.187274923713186"><ele>515.0</ele><time>2026-04-02T15:14:23Z</time></trkpt><trkpt lat="41.71404060703857" lon="2.1873936147874535"><ele>516.0</ele><time>2026-04-02T15:14:24Z</time></trkpt><trkpt lat="41.71411479808656" lon="2.1874826760879027"><ele>510.8</ele><time>2026-04-02T15:14:25Z</time></trkpt><trkpt lat="41.7141935009882" lon="2.1875396570588723"><ele>505.6</ele><time>2026-04-02T15:14:26Z</time></trkpt><trkpt lat="41.71428159908879" lon="2.187531395319247"><ele>500.4</ele><time>2026-04-02T15:14:27Z</time></trkpt><trkpt lat="41.71435730619181" lon="2.187453922648801"><ele>495.2</ele><time>2026-04-02T15:14:28Z</time></trkpt><trkpt lat="41.71440497128227" lon="2.1873294332368807"><ele>490.0</ele><time>2026-04-02T15:14:29Z</time></trkpt><trkpt lat="41.71441113580272" lon="2.187169853586993"><ele>492.5</ele><time>2026-04-02T15:14:30Z</time></trkpt><trkpt lat="41.71439475830911" lon="2.1869910589076915"><ele>495.0</ele><time>2026-04-02T15:14:31Z</time></trkpt><trkpt lat="41.7143974606405" lon="2.186796157497924"><ele>497.5</ele><time>2026-04-02T15:14:32Z</time></trkpt><trkpt lat="41.71444710386589" lon="2.186599057695256"><ele>500.0</ele><time>2026-04-02T15:14:33Z</time></trkpt><trkpt lat="41.71456656023884" lon="2.186436014874118"><ele>500.0</ele><time>2026-04-02T15:14:34Z</time></trkpt><trkpt lat="41.71463612243747" lon="2.1862478065527684"><ele>500.0</ele><time>2026-04-02T15:14:35Z</time></trkpt><trkpt lat="41.714691855143585" lon="2.1860984498199936"><ele>500.0</ele><time>2026-04-02T15:14:36Z</time></trkpt><trkpt lat="41.71476654328603" lon="2.185967108638556"><ele>500.0</ele><time>2026-04-02T15:14:37Z</time></trkpt><trkpt lat="41.71488607537316" lon="2.185876407531504"><ele>500.0</ele><time>2026-04-02T15:14:38Z</time></trkpt><trkpt lat="41.71504627921016" lon="2.1858693809356367"><ele>500.0</ele><time>2026-04-02T15:14:39Z</time></trkpt><trkpt lat="41.71518227332041" lon="2.1857885267649735"><ele>500.0</ele><time>2026-04-02T15:14:40Z</time></trkpt><trkpt lat="41.71527907232833" lon="2.185640141031368"><ele>503.5</ele><time>2026-04-02T15:14:41Z</time></trkpt><trkpt lat="41.71540532503379" lon="2.1855830217851855"><ele>507.0</ele><time>2026-04-02T15:14:42Z</time></trkpt><trkpt lat="41.715542895450064" lon="2.18558629962212"><ele>510.5</ele><time>2026-04-02T15:14:43Z</time></trkpt><trkpt lat="41.71570027157406" lon="2.185618220926502"><ele>514.0</ele><time>2026-04-02T15:14:44Z</time></trkpt><trkpt lat="41.7158718184115" lon="2.1856628877849804"><ele>505.6666666666667</ele><time>2026-04-02T15:14:45Z</time></trkpt><trkpt lat="41.716052688095544" lon="2.185709418960048"><ele>497.33333333333337</ele><time>2026-04-02T15:14:46Z</time></trkpt><trkpt lat="41.71624087991527" lon="2.1857507262223046"><ele>489.0</ele><time>2026-04-02T15:14:47Z</time></trkpt><trkpt lat="41.716423241351585" lon="2.1857930998472628"><ele>489.0</ele><time>2026-04-02T15:14:48Z</time></trkpt><trkpt lat="41.71658031189696" lon="2.1858117049869112"><ele>489.0</ele><time>2026-04-02T15:14:49Z</time></trkpt><trkpt lat="41.716722944074824" lon="2.185860960402034"><ele>489.0</ele><time>2026-04-02T15:14:50Z</time></trkpt><trkpt lat="41.71685164820863" lon="2.1859100891009953"><ele>489.0</ele><time>2026-04-02T15:14:51Z</time></trkpt><trkpt lat="41.71696852665641" lon="2.1859794137994144"><ele>488.2</ele><time>2026-04-02T15:14:52Z</time></trkpt><trkpt lat="41.7170886920197" lon="2.1860009755934877"><ele>487.4</ele><time>2026-04-02T15:14:53Z</time></trkpt><trkpt lat="41.71719547075027" lon="2.186029378465634"><ele>486.6</ele><time>2026-04-02T15:14:54Z</time></trkpt><trkpt lat="41.71729388546492" lon="2.1860502028993323"><ele>485.8</ele><time>2026-04-02T15:14:55Z</time></trkpt><trkpt lat="41.7173888310426" lon="2.1860139176799636"><ele>485.0</ele><time>2026-04-02T15:14:56Z</time></trkpt><trkpt lat="41.71746887133525" lon="2.1859119845223596"><ele>485.0</ele><time>2026-04-02T15:14:57Z</time></trkpt><trkpt lat="41.71748247179644" lon="2.1857587228173254"><ele>485.0</ele><time>2026-04-02T15:14:58Z</time></trkpt><trkpt lat="41.71747359312257" lon="2.185656553262536"><ele>485.0</ele><time>2026-04-02T15:14:59Z</time></trkpt><trkpt lat="41.71743570032508" lon="2.1855485398110903"><ele>485.0</ele><time>2026-04-02T15:15:00Z</time></trkpt><trkpt lat="41.71737894162864" lon="2.185438864961884"><ele>485.0</ele><time>2026-04-02T15:15:01Z</time></trkpt><trkpt lat="41.717304498061694" lon="2.185320824817128"><ele>484.75</ele><time>2026-04-02T15:15:02Z</time></trkpt><trkpt lat="41.717209877314" lon="2.1852101855902073"><ele>484.5</ele><time>2026-04-02T15:15:03Z</time></trkpt><trkpt lat="41.71710957654377" lon="2.1851033982443555"><ele>484.25</ele><time>2026-04-02T15:15:04Z</time></trkpt><trkpt lat="41.71699484768511" lon="2.1849847885602767"><ele>484.0</ele><time>2026-04-02T15:15:05Z</time></trkpt><trkpt lat="41.71689014390356" lon="2.184866886485571"><ele>484.2</ele><time>2026-04-02T15:15:06Z</time></trkpt><trkpt lat="41.716805914574245" lon="2.1847742372082215"><ele>484.4</ele><time>2026-04-02T15:15:07Z</time></trkpt><trkpt lat="41.7167623670177" lon="2.184684417700705"><ele>484.6</ele><time>2026-04-02T15:15:08Z</time></trkpt><trkpt lat="41.71677426115813" lon="2.1845472303818663"><ele>484.8</ele><time>2026-04-02T15:15:10Z</time></trkpt><trkpt lat="41.716841276832255" lon="2.184512972714908"><ele>485.0</ele><time>2026-04-02T15:15:11Z</time></trkpt><trkpt lat="41.7168898279408" lon="2.1846299441942048"><ele>484.8333333333333</ele><time>2026-04-02T15:15:12Z</time></trkpt><trkpt lat="41.716961769796875" lon="2.1846860191480504"><ele>484.66666666666663</ele><time>2026-04-02T15:15:13Z</time></trkpt><trkpt lat="41.71704432538911" lon="2.184753852095975"><ele>484.5</ele><time>2026-04-02T15:15:14Z</time></trkpt><trkpt lat="41.71711583954276" lon="2.1848172407449593"><ele>484.33333333333337</ele><time>2026-04-02T15:15:15Z</time></trkpt><trkpt lat="41.71719142208146" lon="2.1848881761585464"><ele>484.1666666666667</ele><time>2026-04-02T15:15:16Z</time></trkpt><trkpt lat="41.71726372822068" lon="2.1849596308036547"><ele>484.0</ele><time>2026-04-02T15:15:17Z</time></trkpt><trkpt lat="41.717336148155894" lon="2.185011706627808"><ele>484.0</ele><time>2026-04-02T15:15:18Z</time></trkpt><trkpt lat="41.717398584226146" lon="2.185098874679879"><ele>484.0</ele><time>2026-04-02T15:15:19Z</time></trkpt><trkpt lat="41.71747040966089" lon="2.1851583703165787"><ele>484.0</ele><time>2026-04-02T15:15:20Z</time></trkpt><trkpt lat="41.71755677694256" lon="2.185241993967626"><ele>484.0</ele><time>2026-04-02T15:15:21Z</time></trkpt><trkpt lat="41.717628913670964" lon="2.185331483932167"><ele>484.0</ele><time>2026-04-02T15:15:22Z</time></trkpt><trkpt lat="41.717702126284145" lon="2.1854231845902095"><ele>483.6</ele><time>2026-04-02T15:15:23Z</time></trkpt><trkpt lat="41.71776770161684" lon="2.185526316891592"><ele>483.2</ele><time>2026-04-02T15:15:24Z</time></trkpt><trkpt lat="41.71782685770288" lon="2.185633839625745"><ele>482.80000000000007</ele><time>2026-04-02T15:15:25Z</time></trkpt><trkpt lat="41.71788412997067" lon="2.1857472856268405"><ele>482.40000000000003</ele><time>2026-04-02T15:15:26Z</time></trkpt><trkpt lat="41.71793926669273" lon="2.1858617684310557"><ele>482.0</ele><time>2026-04-02T15:15:27Z</time></trkpt><trkpt lat="41.71798162543291" lon="2.185984857552438"><ele>482.0</ele><time>2026-04-02T15:15:28Z</time></trkpt><trkpt lat="41.71801303692735" lon="2.186137241959373"><ele>482.0</ele><time>2026-04-02T15:15:29Z</time></trkpt><trkpt lat="41.718040470109294" lon="2.18629291988834"><ele>482.0</ele><time>2026-04-02T15:15:30Z</time></trkpt><trkpt lat="41.718069091507864" lon="2.1864518790557192"><ele>482.0</ele><time>2026-04-02T15:15:31Z</time></trkpt><trkpt lat="41.71810109135043" lon="2.1865764292874"><ele>482.8</ele><time>2026-04-02T15:15:32Z</time></trkpt><trkpt lat="41.71812130348406" lon="2.1866935932455394"><ele>483.6</ele><time>2026-04-02T15:15:33Z</time></trkpt><trkpt lat="41.7181094362615" lon="2.1867974500122993"><ele>484.40000000000003</ele><time>2026-04-02T15:15:34Z</time></trkpt><trkpt lat="41.71803572403312" lon="2.186884373848703"><ele>485.20000000000005</ele><time>2026-04-02T15:15:35Z</time></trkpt><trkpt lat="41.71793077764181" lon="2.186955515646091"><ele>486.0</ele><time>2026-04-02T15:15:36Z</time></trkpt><trkpt lat="41.71780312211916" lon="2.1870015020886613"><ele>483.0</ele><time>2026-04-02T15:15:37Z</time></trkpt><trkpt lat="41.71765818085035" lon="2.187029704473148"><ele>480.0</ele><time>2026-04-02T15:15:38Z</time></trkpt><trkpt lat="41.71750536082324" lon="2.187027716368424"><ele>477.0</ele><time>2026-04-02T15:15:39Z</time></trkpt><trkpt lat="41.71734196510967" lon="2.187006532395873"><ele>477.0</ele><time>2026-04-02T15:15:40Z</time></trkpt><trkpt lat="41.71717970117353" lon="2.1869746413691584"><ele>477.0</ele><time>2026-04-02T15:15:41Z</time></trkpt><trkpt lat="41.71701116383336" lon="2.1869405352803897"><ele>477.0</ele><time>2026-04-02T15:15:42Z</time></trkpt><trkpt lat="41.71683814509338" lon="2.186876349009393"><ele>476.66666666666663</ele><time>2026-04-02T15:15:43Z</time></trkpt><trkpt lat="41.716656628143106" lon="2.186871114422712"><ele>476.3333333333333</ele><time>2026-04-02T15:15:44Z</time></trkpt><trkpt lat="41.71646603153931" lon="2.186854419441389"><ele>476.0</ele><time>2026-04-02T15:15:45Z</time></trkpt><trkpt lat="41.716284719278484" lon="2.1868579721710564"><ele>476.0</ele><time>2026-04-02T15:15:46Z</time></trkpt><trkpt lat="41.71611856051365" lon="2.186888459993025"><ele>476.0</ele><time>2026-04-02T15:15:47Z</time></trkpt><trkpt lat="41.715966931700045" lon="2.186904836502448"><ele>476.0</ele><time>2026-04-02T15:15:48Z</time></trkpt><trkpt lat="41.71583272856124" lon="2.186926670431803"><ele>474.0</ele><time>2026-04-02T15:15:49Z</time></trkpt><trkpt lat="41.71572133798386" lon="2.1869907106424185"><ele>472.0</ele><time>2026-04-02T15:15:50Z</time></trkpt><trkpt lat="41.71562328666181" lon="2.18708208174398"><ele>470.0</ele><time>2026-04-02T15:15:51Z</time></trkpt><trkpt lat="41.71555169573806" lon="2.1871976350147824"><ele>468.0</ele><time>2026-04-02T15:15:52Z</time></trkpt><trkpt lat="41.71550685772499" lon="2.1873351435926844"><ele>472.5</ele><time>2026-04-02T15:15:53Z</time></trkpt><trkpt lat="41.71550983961925" lon="2.1875073500332265"><ele>477.0</ele><time>2026-04-02T15:15:54Z</time></trkpt><trkpt lat="41.71551442994617" lon="2.1876832605010836"><ele>481.5</ele><time>2026-04-02T15:15:55Z</time></trkpt><trkpt lat="41.7155246547161" lon="2.1878663991773744"><ele>486.0</ele><time>2026-04-02T15:15:56Z</time></trkpt><trkpt lat="41.715532582956236" lon="2.188063796836355"><ele>490.5</ele><time>2026-04-02T15:15:57Z</time></trkpt><trkpt lat="41.71554308342318" lon="2.188264783453119"><ele>495.0</ele><time>2026-04-02T15:15:58Z</time></trkpt><trkpt lat="41.715553943755395" lon="2.188461726836515"><ele>499.5</ele><time>2026-04-02T15:15:59Z</time></trkpt><trkpt lat="41.71560086672618" lon="2.188636757552949"><ele>504.0</ele><time>2026-04-02T15:16:00Z</time></trkpt><trkpt lat="41.71565383922577" lon="2.188787042852908"><ele>504.0</ele><time>2026-04-02T15:16:01Z</time></trkpt><trkpt lat="41.71570871726589" lon="2.1889168770369487"><ele>504.0</ele><time>2026-04-02T15:16:02Z</time></trkpt><trkpt lat="41.71576949898264" lon="2.189045086103501"><ele>504.0</ele><time>2026-04-02T15:16:03Z</time></trkpt><trkpt lat="41.71586206212524" lon="2.189153369402394"><ele>504.0</ele><time>2026-04-02T15:16:04Z</time></trkpt><trkpt lat="41.715955730021975" lon="2.1892655004144723"><ele>509.2</ele><time>2026-04-02T15:16:05Z</time></trkpt><trkpt lat="41.716013027005566" lon="2.189381786348972"><ele>514.4</ele><time>2026-04-02T15:16:06Z</time></trkpt><trkpt lat="41.716061764152506" lon="2.189495273728384"><ele>519.6</ele><time>2026-04-02T15:16:07Z</time></trkpt><trkpt lat="41.71613653930449" lon="2.1895705268384176"><ele>524.8</ele><time>2026-04-02T15:16:08Z</time></trkpt><trkpt lat="41.71623918249878" lon="2.189606563777098"><ele>530.0</ele><time>2026-04-02T15:16:09Z</time></trkpt><trkpt lat="41.71635514177962" lon="2.189656130667565"><ele>530.0</ele><time>2026-04-02T15:16:10Z</time></trkpt><trkpt lat="41.71647642046669" lon="2.189687508776011"><ele>530.0</ele><time>2026-04-02T15:16:11Z</time></trkpt><trkpt lat="41.71658317876604" lon="2.1897027701329765"><ele>530.0</ele><time>2026-04-02T15:16:12Z</time></trkpt><trkpt lat="41.71667437941912" lon="2.18971728083856"><ele>530.0</ele><time>2026-04-02T15:16:13Z</time></trkpt><trkpt lat="41.716749994878896" lon="2.1897571778852094"><ele>530.0</ele><time>2026-04-02T15:16:14Z</time></trkpt><trkpt lat="41.716815430126765" lon="2.1898028333469797"><ele>529.6</ele><time>2026-04-02T15:16:15Z</time></trkpt><trkpt lat="41.71689040371528" lon="2.189846063251505"><ele>529.2</ele><time>2026-04-02T15:16:16Z</time></trkpt><trkpt lat="41.71697450764075" lon="2.1898933638521467"><ele>528.8</ele><time>2026-04-02T15:16:17Z</time></trkpt><trkpt lat="41.71703816088897" lon="2.189984895858402"><ele>528.4</ele><time>2026-04-02T15:16:18Z</time></trkpt><trkpt lat="41.717072125888976" lon="2.190102188409084"><ele>528.0</ele><time>2026-04-02T15:16:19Z</time></trkpt><trkpt lat="41.717109561432316" lon="2.190219900829307"><ele>528.0</ele><time>2026-04-02T15:16:20Z</time></trkpt><trkpt lat="41.71715876830342" lon="2.1903420915792333"><ele>528.0</ele><time>2026-04-02T15:16:21Z</time></trkpt><trkpt lat="41.71719776065767" lon="2.1904418706937894"><ele>528.0</ele><time>2026-04-02T15:16:22Z</time></trkpt><trkpt lat="41.71721687425946" lon="2.1905434121759235"><ele>528.0</ele><time>2026-04-02T15:16:23Z</time></trkpt><trkpt lat="41.71722154214816" lon="2.190663218230857"><ele>528.0</ele><time>2026-04-02T15:16:24Z</time></trkpt><trkpt lat="41.717196304986054" lon="2.1907745398075793"><ele>528.0</ele><time>2026-04-02T15:16:25Z</time></trkpt><trkpt lat="41.71715575976665" lon="2.190882127369998"><ele>526.4</ele><time>2026-04-02T15:16:26Z</time></trkpt><trkpt lat="41.71710800725396" lon="2.190987217945903"><ele>524.8</ele><time>2026-04-02T15:16:27Z</time></trkpt><trkpt lat="41.717055644163324" lon="2.191087661153825"><ele>523.2</ele><time>2026-04-02T15:16:28Z</time></trkpt><trkpt lat="41.71700249884638" lon="2.1911885029583162"><ele>521.6</ele><time>2026-04-02T15:16:29Z</time></trkpt><trkpt lat="41.716949825437105" lon="2.191290945508175"><ele>520.0</ele><time>2026-04-02T15:16:30Z</time></trkpt><trkpt lat="41.71689282045376" lon="2.191401246182023"><ele>515.0</ele><time>2026-04-02T15:16:31Z</time></trkpt><trkpt lat="41.71684915538768" lon="2.1914939492308694"><ele>510.0</ele><time>2026-04-02T15:16:32Z</time></trkpt><trkpt lat="41.716808229708676" lon="2.1915749296946463"><ele>505.0</ele><time>2026-04-02T15:16:33Z</time></trkpt><trkpt lat="41.716753924720805" lon="2.1916544861949676"><ele>500.0</ele><time>2026-04-02T15:16:34Z</time></trkpt><trkpt lat="41.71671818164403" lon="2.191742863310593"><ele>495.00000000000006</ele><time>2026-04-02T15:16:35Z</time></trkpt><trkpt lat="41.71671665919018" lon="2.191899670499528"><ele>490.0</ele><time>2026-04-02T15:16:37Z</time></trkpt><trkpt lat="41.71676111235688" lon="2.191968233878533"><ele>490.0</ele><time>2026-04-02T15:16:38Z</time></trkpt><trkpt lat="41.716833631327155" lon="2.1920033730442983"><ele>490.0</ele><time>2026-04-02T15:16:39Z</time></trkpt><trkpt lat="41.71692963516032" lon="2.192009181164747"><ele>490.0</ele><time>2026-04-02T15:16:40Z</time></trkpt><trkpt lat="41.717044489322284" lon="2.1920096026258555"><ele>490.0</ele><time>2026-04-02T15:16:41Z</time></trkpt><trkpt lat="41.71713449961518" lon="2.1920313540871206"><ele>490.0</ele><time>2026-04-02T15:16:42Z</time></trkpt><trkpt lat="41.71719634427912" lon="2.192078814245593"><ele>525.0</ele><time>2026-04-02T15:16:43Z</time></trkpt><trkpt lat="41.71727031374431" lon="2.192123793230127"><ele>525.0</ele><time>2026-04-02T15:16:45Z</time></trkpt></trkseg></trk></gpx>